<?xml version="1.0" encoding="UTF-8" standalone="no" ?>
<gpx xmlns="http://www.topografix.com/GPX/1/1" xmlns:xsi="http://www.w3.org/2001/XMLSchema-instance" xsi:schemaLocation="http://www.topografix.com/GPX/1/1 http://www.topografix.com/GPX/1/1/gpx.xsd" version="1.1" creator="VisuGPX - https://www.visugpx.com">
  <metadata>
    <name>Pessac Cestas</name>
  </metadata>
  <trk>
    <name><![CDATA[Pessac Cestas_1]]></name>
    <trkseg>
      <trkpt lat="44.79482" lon="-0.67323">
        <ele>51.6</ele>
        <time>2022-06-29T14:39:27Z</time>
      </trkpt>
      <trkpt lat="44.79479" lon="-0.67322">
        <ele>51.4</ele>
        <time>2022-06-29T14:39:40Z</time>
      </trkpt>
      <trkpt lat="44.79475" lon="-0.67324">
        <ele>50.8</ele>
        <time>2022-06-29T14:39:42Z</time>
      </trkpt>
      <trkpt lat="44.79473" lon="-0.67325">
        <ele>50.4</ele>
        <time>2022-06-29T14:39:43Z</time>
      </trkpt>
      <trkpt lat="44.79466" lon="-0.67331">
        <ele>49.2</ele>
        <time>2022-06-29T14:39:46Z</time>
      </trkpt>
      <trkpt lat="44.79465" lon="-0.67335">
        <ele>49</ele>
        <time>2022-06-29T14:39:47Z</time>
      </trkpt>
      <trkpt lat="44.79467" lon="-0.67349">
        <ele>48</ele>
        <time>2022-06-29T14:39:50Z</time>
      </trkpt>
      <trkpt lat="44.79469" lon="-0.67354">
        <ele>47.6</ele>
        <time>2022-06-29T14:39:51Z</time>
      </trkpt>
      <trkpt lat="44.79474" lon="-0.67369">
        <ele>47</ele>
        <time>2022-06-29T14:39:54Z</time>
      </trkpt>
      <trkpt lat="44.79477" lon="-0.67378">
        <ele>46.2</ele>
        <time>2022-06-29T14:39:56Z</time>
      </trkpt>
      <trkpt lat="44.79478" lon="-0.67382">
        <ele>45.8</ele>
        <time>2022-06-29T14:39:57Z</time>
      </trkpt>
      <trkpt lat="44.7948" lon="-0.67398">
        <ele>45.4</ele>
        <time>2022-06-29T14:40:00Z</time>
      </trkpt>
      <trkpt lat="44.79479" lon="-0.67405">
        <ele>44.8</ele>
        <time>2022-06-29T14:40:01Z</time>
      </trkpt>
      <trkpt lat="44.79478" lon="-0.67411">
        <ele>44.6</ele>
        <time>2022-06-29T14:40:02Z</time>
      </trkpt>
      <trkpt lat="44.79473" lon="-0.6743">
        <ele>44.2</ele>
        <time>2022-06-29T14:40:05Z</time>
      </trkpt>
      <trkpt lat="44.79467" lon="-0.67449">
        <ele>43.4</ele>
        <time>2022-06-29T14:40:08Z</time>
      </trkpt>
      <trkpt lat="44.79469" lon="-0.67459">
        <ele>43.2</ele>
        <time>2022-06-29T14:40:10Z</time>
      </trkpt>
      <trkpt lat="44.79481" lon="-0.67465">
        <ele>43.8</ele>
        <time>2022-06-29T14:40:13Z</time>
      </trkpt>
      <trkpt lat="44.79488" lon="-0.67468">
        <ele>44.6</ele>
        <time>2022-06-29T14:40:15Z</time>
      </trkpt>
      <trkpt lat="44.79492" lon="-0.6747">
        <ele>45</ele>
        <time>2022-06-29T14:40:16Z</time>
      </trkpt>
      <trkpt lat="44.795" lon="-0.67474">
        <ele>45.2</ele>
        <time>2022-06-29T14:40:18Z</time>
      </trkpt>
      <trkpt lat="44.79538" lon="-0.67494">
        <ele>45.8</ele>
        <time>2022-06-29T14:40:26Z</time>
      </trkpt>
      <trkpt lat="44.79578" lon="-0.67514">
        <ele>46</ele>
        <time>2022-06-29T14:40:34Z</time>
      </trkpt>
      <trkpt lat="44.79613" lon="-0.67533">
        <ele>45.8</ele>
        <time>2022-06-29T14:40:41Z</time>
      </trkpt>
      <trkpt lat="44.79657" lon="-0.67558">
        <ele>46</ele>
        <time>2022-06-29T14:40:50Z</time>
      </trkpt>
      <trkpt lat="44.79703" lon="-0.67577">
        <ele>45.8</ele>
        <time>2022-06-29T14:40:59Z</time>
      </trkpt>
      <trkpt lat="44.79708" lon="-0.67577">
        <ele>45.8</ele>
        <time>2022-06-29T14:41:00Z</time>
      </trkpt>
      <trkpt lat="44.79735" lon="-0.67576">
        <ele>44.8</ele>
        <time>2022-06-29T14:41:05Z</time>
      </trkpt>
      <trkpt lat="44.7974" lon="-0.67576">
        <ele>44.6</ele>
        <time>2022-06-29T14:41:06Z</time>
      </trkpt>
      <trkpt lat="44.79784" lon="-0.67575">
        <ele>44.4</ele>
        <time>2022-06-29T14:41:14Z</time>
      </trkpt>
      <trkpt lat="44.79827" lon="-0.67572">
        <ele>44.6</ele>
        <time>2022-06-29T14:41:22Z</time>
      </trkpt>
      <trkpt lat="44.79846" lon="-0.6757">
        <ele>44.4</ele>
        <time>2022-06-29T14:41:26Z</time>
      </trkpt>
      <trkpt lat="44.79855" lon="-0.67566">
        <ele>44.4</ele>
        <time>2022-06-29T14:41:28Z</time>
      </trkpt>
      <trkpt lat="44.79869" lon="-0.67569">
        <ele>44.8</ele>
        <time>2022-06-29T14:41:31Z</time>
      </trkpt>
      <trkpt lat="44.79889" lon="-0.6757">
        <ele>44.8</ele>
        <time>2022-06-29T14:41:35Z</time>
      </trkpt>
      <trkpt lat="44.79937" lon="-0.67567">
        <ele>44.6</ele>
        <time>2022-06-29T14:41:44Z</time>
      </trkpt>
      <trkpt lat="44.79982" lon="-0.67565">
        <ele>44.2</ele>
        <time>2022-06-29T14:41:52Z</time>
      </trkpt>
      <trkpt lat="44.8002" lon="-0.67563">
        <ele>44.4</ele>
        <time>2022-06-29T14:41:59Z</time>
      </trkpt>
      <trkpt lat="44.80059" lon="-0.67559">
        <ele>44.8</ele>
        <time>2022-06-29T14:42:07Z</time>
      </trkpt>
      <trkpt lat="44.80071" lon="-0.67544">
        <ele>44.4</ele>
        <time>2022-06-29T14:42:11Z</time>
      </trkpt>
      <trkpt lat="44.80076" lon="-0.67528">
        <ele>45</ele>
        <time>2022-06-29T14:42:15Z</time>
      </trkpt>
      <trkpt lat="44.80076" lon="-0.67523">
        <ele>45.2</ele>
        <time>2022-06-29T14:42:16Z</time>
      </trkpt>
      <trkpt lat="44.80074" lon="-0.67507">
        <ele>45.4</ele>
        <time>2022-06-29T14:42:19Z</time>
      </trkpt>
      <trkpt lat="44.80073" lon="-0.67495">
        <ele>45</ele>
        <time>2022-06-29T14:42:21Z</time>
      </trkpt>
      <trkpt lat="44.80071" lon="-0.67483">
        <ele>45.4</ele>
        <time>2022-06-29T14:42:23Z</time>
      </trkpt>
      <trkpt lat="44.80068" lon="-0.67471">
        <ele>46.2</ele>
        <time>2022-06-29T14:42:25Z</time>
      </trkpt>
      <trkpt lat="44.80066" lon="-0.67464">
        <ele>46.2</ele>
        <time>2022-06-29T14:42:26Z</time>
      </trkpt>
      <trkpt lat="44.80061" lon="-0.67439">
        <ele>46.8</ele>
        <time>2022-06-29T14:42:31Z</time>
      </trkpt>
      <trkpt lat="44.80063" lon="-0.67435">
        <ele>47.2</ele>
        <time>2022-06-29T14:42:32Z</time>
      </trkpt>
      <trkpt lat="44.80066" lon="-0.67433">
        <ele>47.4</ele>
        <time>2022-06-29T14:42:33Z</time>
      </trkpt>
      <trkpt lat="44.80072" lon="-0.67434">
        <ele>48</ele>
        <time>2022-06-29T14:42:35Z</time>
      </trkpt>
      <trkpt lat="44.8008" lon="-0.67438">
        <ele>48.4</ele>
        <time>2022-06-29T14:42:37Z</time>
      </trkpt>
      <trkpt lat="44.80091" lon="-0.67442">
        <ele>48.6</ele>
        <time>2022-06-29T14:42:39Z</time>
      </trkpt>
      <trkpt lat="44.80096" lon="-0.67444">
        <ele>48.4</ele>
        <time>2022-06-29T14:42:40Z</time>
      </trkpt>
      <trkpt lat="44.80112" lon="-0.67449">
        <ele>48</ele>
        <time>2022-06-29T14:42:43Z</time>
      </trkpt>
      <trkpt lat="44.80118" lon="-0.67452">
        <ele>47.6</ele>
        <time>2022-06-29T14:42:44Z</time>
      </trkpt>
      <trkpt lat="44.80129" lon="-0.67458">
        <ele>47.4</ele>
        <time>2022-06-29T14:42:46Z</time>
      </trkpt>
      <trkpt lat="44.80135" lon="-0.67459">
        <ele>47.4</ele>
        <time>2022-06-29T14:42:47Z</time>
      </trkpt>
      <trkpt lat="44.80153" lon="-0.67465">
        <ele>46.8</ele>
        <time>2022-06-29T14:42:50Z</time>
      </trkpt>
      <trkpt lat="44.80164" lon="-0.67471">
        <ele>46.4</ele>
        <time>2022-06-29T14:42:52Z</time>
      </trkpt>
      <trkpt lat="44.80192" lon="-0.67485">
        <ele>45.4</ele>
        <time>2022-06-29T14:42:57Z</time>
      </trkpt>
      <trkpt lat="44.80197" lon="-0.67487">
        <ele>45.4</ele>
        <time>2022-06-29T14:42:58Z</time>
      </trkpt>
      <trkpt lat="44.80249" lon="-0.67514">
        <ele>44.4</ele>
        <time>2022-06-29T14:43:08Z</time>
      </trkpt>
      <trkpt lat="44.803" lon="-0.67541">
        <ele>43.6</ele>
        <time>2022-06-29T14:43:17Z</time>
      </trkpt>
      <trkpt lat="44.80305" lon="-0.67543">
        <ele>43.4</ele>
        <time>2022-06-29T14:43:18Z</time>
      </trkpt>
      <trkpt lat="44.80349" lon="-0.67566">
        <ele>42.4</ele>
        <time>2022-06-29T14:43:26Z</time>
      </trkpt>
      <trkpt lat="44.80354" lon="-0.67569">
        <ele>42.2</ele>
        <time>2022-06-29T14:43:27Z</time>
      </trkpt>
      <trkpt lat="44.8038" lon="-0.67584">
        <ele>41.6</ele>
        <time>2022-06-29T14:43:32Z</time>
      </trkpt>
      <trkpt lat="44.80391" lon="-0.67592">
        <ele>41.2</ele>
        <time>2022-06-29T14:43:34Z</time>
      </trkpt>
      <trkpt lat="44.80406" lon="-0.676">
        <ele>41</ele>
        <time>2022-06-29T14:43:37Z</time>
      </trkpt>
      <trkpt lat="44.80416" lon="-0.67603">
        <ele>40.6</ele>
        <time>2022-06-29T14:43:39Z</time>
      </trkpt>
      <trkpt lat="44.80431" lon="-0.67609">
        <ele>40</ele>
        <time>2022-06-29T14:43:42Z</time>
      </trkpt>
      <trkpt lat="44.80454" lon="-0.67619">
        <ele>39.4</ele>
        <time>2022-06-29T14:43:47Z</time>
      </trkpt>
      <trkpt lat="44.80477" lon="-0.67632">
        <ele>39.4</ele>
        <time>2022-06-29T14:43:52Z</time>
      </trkpt>
      <trkpt lat="44.80485" lon="-0.67636">
        <ele>39.8</ele>
        <time>2022-06-29T14:43:54Z</time>
      </trkpt>
      <trkpt lat="44.80496" lon="-0.67652">
        <ele>40.2</ele>
        <time>2022-06-29T14:43:58Z</time>
      </trkpt>
      <trkpt lat="44.80505" lon="-0.67664">
        <ele>40.4</ele>
        <time>2022-06-29T14:44:01Z</time>
      </trkpt>
      <trkpt lat="44.80528" lon="-0.67678">
        <ele>40.2</ele>
        <time>2022-06-29T14:44:06Z</time>
      </trkpt>
      <trkpt lat="44.80532" lon="-0.67681">
        <ele>40.2</ele>
        <time>2022-06-29T14:44:07Z</time>
      </trkpt>
      <trkpt lat="44.80542" lon="-0.67684">
        <ele>40.2</ele>
        <time>2022-06-29T14:44:10Z</time>
      </trkpt>
      <trkpt lat="44.80549" lon="-0.67673">
        <ele>40.2</ele>
        <time>2022-06-29T14:44:14Z</time>
      </trkpt>
      <trkpt lat="44.80554" lon="-0.67655">
        <ele>40.6</ele>
        <time>2022-06-29T14:44:18Z</time>
      </trkpt>
      <trkpt lat="44.80554" lon="-0.67644">
        <ele>41</ele>
        <time>2022-06-29T14:44:20Z</time>
      </trkpt>
      <trkpt lat="44.80554" lon="-0.67638">
        <ele>41.2</ele>
        <time>2022-06-29T14:44:21Z</time>
      </trkpt>
      <trkpt lat="44.80553" lon="-0.67631">
        <ele>41.4</ele>
        <time>2022-06-29T14:44:22Z</time>
      </trkpt>
      <trkpt lat="44.80551" lon="-0.67588">
        <ele>42</ele>
        <time>2022-06-29T14:44:27Z</time>
      </trkpt>
      <trkpt lat="44.80551" lon="-0.67571">
        <ele>42.4</ele>
        <time>2022-06-29T14:44:29Z</time>
      </trkpt>
      <trkpt lat="44.8055" lon="-0.67554">
        <ele>42.8</ele>
        <time>2022-06-29T14:44:31Z</time>
      </trkpt>
      <trkpt lat="44.80548" lon="-0.67521">
        <ele>43.6</ele>
        <time>2022-06-29T14:44:35Z</time>
      </trkpt>
      <trkpt lat="44.80546" lon="-0.67495">
        <ele>44</ele>
        <time>2022-06-29T14:44:38Z</time>
      </trkpt>
      <trkpt lat="44.80538" lon="-0.67434">
        <ele>43.8</ele>
        <time>2022-06-29T14:44:45Z</time>
      </trkpt>
      <trkpt lat="44.80538" lon="-0.67425">
        <ele>44</ele>
        <time>2022-06-29T14:44:46Z</time>
      </trkpt>
      <trkpt lat="44.80538" lon="-0.67408">
        <ele>43.8</ele>
        <time>2022-06-29T14:44:48Z</time>
      </trkpt>
      <trkpt lat="44.80541" lon="-0.67394">
        <ele>43.4</ele>
        <time>2022-06-29T14:44:50Z</time>
      </trkpt>
      <trkpt lat="44.80549" lon="-0.67378">
        <ele>42.6</ele>
        <time>2022-06-29T14:44:52Z</time>
      </trkpt>
      <trkpt lat="44.80553" lon="-0.6737">
        <ele>42</ele>
        <time>2022-06-29T14:44:53Z</time>
      </trkpt>
      <trkpt lat="44.80556" lon="-0.67361">
        <ele>41.6</ele>
        <time>2022-06-29T14:44:54Z</time>
      </trkpt>
      <trkpt lat="44.80559" lon="-0.67352">
        <ele>41.2</ele>
        <time>2022-06-29T14:44:55Z</time>
      </trkpt>
      <trkpt lat="44.80562" lon="-0.67344">
        <ele>40.8</ele>
        <time>2022-06-29T14:44:56Z</time>
      </trkpt>
      <trkpt lat="44.80571" lon="-0.6732">
        <ele>40.2</ele>
        <time>2022-06-29T14:44:59Z</time>
      </trkpt>
      <trkpt lat="44.80581" lon="-0.67298">
        <ele>39.8</ele>
        <time>2022-06-29T14:45:02Z</time>
      </trkpt>
      <trkpt lat="44.80582" lon="-0.6729">
        <ele>39.6</ele>
        <time>2022-06-29T14:45:03Z</time>
      </trkpt>
      <trkpt lat="44.80585" lon="-0.67252">
        <ele>39.6</ele>
        <time>2022-06-29T14:45:07Z</time>
      </trkpt>
      <trkpt lat="44.80587" lon="-0.67243">
        <ele>39.8</ele>
        <time>2022-06-29T14:45:08Z</time>
      </trkpt>
      <trkpt lat="44.80595" lon="-0.67221">
        <ele>40.4</ele>
        <time>2022-06-29T14:45:11Z</time>
      </trkpt>
      <trkpt lat="44.80608" lon="-0.67198">
        <ele>38.4</ele>
        <time>2022-06-29T14:45:15Z</time>
      </trkpt>
      <trkpt lat="44.80613" lon="-0.67193">
        <ele>38</ele>
        <time>2022-06-29T14:45:16Z</time>
      </trkpt>
      <trkpt lat="44.80618" lon="-0.67186">
        <ele>37.4</ele>
        <time>2022-06-29T14:45:17Z</time>
      </trkpt>
      <trkpt lat="44.80623" lon="-0.6718">
        <ele>37.2</ele>
        <time>2022-06-29T14:45:18Z</time>
      </trkpt>
      <trkpt lat="44.80627" lon="-0.67173">
        <ele>37</ele>
        <time>2022-06-29T14:45:19Z</time>
      </trkpt>
      <trkpt lat="44.80658" lon="-0.67115">
        <ele>36.2</ele>
        <time>2022-06-29T14:45:27Z</time>
      </trkpt>
      <trkpt lat="44.80662" lon="-0.67108">
        <ele>36</ele>
        <time>2022-06-29T14:45:28Z</time>
      </trkpt>
      <trkpt lat="44.80687" lon="-0.67056">
        <ele>36.6</ele>
        <time>2022-06-29T14:45:35Z</time>
      </trkpt>
      <trkpt lat="44.80684" lon="-0.6703">
        <ele>36.6</ele>
        <time>2022-06-29T14:45:38Z</time>
      </trkpt>
      <trkpt lat="44.80678" lon="-0.67014">
        <ele>36.8</ele>
        <time>2022-06-29T14:45:40Z</time>
      </trkpt>
      <trkpt lat="44.80673" lon="-0.66998">
        <ele>37</ele>
        <time>2022-06-29T14:45:42Z</time>
      </trkpt>
      <trkpt lat="44.80673" lon="-0.66989">
        <ele>37</ele>
        <time>2022-06-29T14:45:43Z</time>
      </trkpt>
      <trkpt lat="44.80677" lon="-0.66963">
        <ele>36.8</ele>
        <time>2022-06-29T14:45:46Z</time>
      </trkpt>
      <trkpt lat="44.80683" lon="-0.66946">
        <ele>36.6</ele>
        <time>2022-06-29T14:45:48Z</time>
      </trkpt>
      <trkpt lat="44.80696" lon="-0.66916">
        <ele>36.8</ele>
        <time>2022-06-29T14:45:52Z</time>
      </trkpt>
      <trkpt lat="44.80708" lon="-0.66888">
        <ele>37.2</ele>
        <time>2022-06-29T14:45:57Z</time>
      </trkpt>
      <trkpt lat="44.80723" lon="-0.66856">
        <ele>37.4</ele>
        <time>2022-06-29T14:46:02Z</time>
      </trkpt>
      <trkpt lat="44.80729" lon="-0.66845">
        <ele>37.8</ele>
        <time>2022-06-29T14:46:05Z</time>
      </trkpt>
      <trkpt lat="44.80729" lon="-0.66839">
        <ele>37.4</ele>
        <time>2022-06-29T14:46:06Z</time>
      </trkpt>
      <trkpt lat="44.8072" lon="-0.66817">
        <ele>37.2</ele>
        <time>2022-06-29T14:46:10Z</time>
      </trkpt>
      <trkpt lat="44.80713" lon="-0.66809">
        <ele>37.2</ele>
        <time>2022-06-29T14:46:12Z</time>
      </trkpt>
      <trkpt lat="44.8071" lon="-0.66805">
        <ele>37.2</ele>
        <time>2022-06-29T14:46:13Z</time>
      </trkpt>
      <trkpt lat="44.80706" lon="-0.66796">
        <ele>37.6</ele>
        <time>2022-06-29T14:46:15Z</time>
      </trkpt>
      <trkpt lat="44.80694" lon="-0.66782">
        <ele>37.8</ele>
        <time>2022-06-29T14:46:20Z</time>
      </trkpt>
      <trkpt lat="44.80684" lon="-0.66782">
        <ele>38</ele>
        <time>2022-06-29T14:46:25Z</time>
      </trkpt>
      <trkpt lat="44.80671" lon="-0.66792">
        <ele>37</ele>
        <time>2022-06-29T14:46:31Z</time>
      </trkpt>
      <trkpt lat="44.80666" lon="-0.66796">
        <ele>36.8</ele>
        <time>2022-06-29T14:46:32Z</time>
      </trkpt>
      <trkpt lat="44.80653" lon="-0.66812">
        <ele>36.6</ele>
        <time>2022-06-29T14:46:35Z</time>
      </trkpt>
      <trkpt lat="44.80643" lon="-0.66823">
        <ele>36.6</ele>
        <time>2022-06-29T14:46:37Z</time>
      </trkpt>
      <trkpt lat="44.80633" lon="-0.66832">
        <ele>36.6</ele>
        <time>2022-06-29T14:46:39Z</time>
      </trkpt>
      <trkpt lat="44.80612" lon="-0.66854">
        <ele>36</ele>
        <time>2022-06-29T14:46:43Z</time>
      </trkpt>
      <trkpt lat="44.80607" lon="-0.66861">
        <ele>35.8</ele>
        <time>2022-06-29T14:46:44Z</time>
      </trkpt>
      <trkpt lat="44.80599" lon="-0.66875">
        <ele>35.8</ele>
        <time>2022-06-29T14:46:46Z</time>
      </trkpt>
      <trkpt lat="44.8059" lon="-0.66909">
        <ele>35.8</ele>
        <time>2022-06-29T14:46:50Z</time>
      </trkpt>
      <trkpt lat="44.80577" lon="-0.66968">
        <ele>35.6</ele>
        <time>2022-06-29T14:46:57Z</time>
      </trkpt>
      <trkpt lat="44.80571" lon="-0.67002">
        <ele>36.4</ele>
        <time>2022-06-29T14:47:02Z</time>
      </trkpt>
      <trkpt lat="44.80568" lon="-0.67006">
        <ele>36.4</ele>
        <time>2022-06-29T14:47:03Z</time>
      </trkpt>
      <trkpt lat="44.80561" lon="-0.67011">
        <ele>37.2</ele>
        <time>2022-06-29T14:47:05Z</time>
      </trkpt>
      <trkpt lat="44.80559" lon="-0.67015">
        <ele>37.6</ele>
        <time>2022-06-29T14:47:06Z</time>
      </trkpt>
      <trkpt lat="44.80557" lon="-0.67027">
        <ele>38.4</ele>
        <time>2022-06-29T14:47:08Z</time>
      </trkpt>
      <trkpt lat="44.80557" lon="-0.67033">
        <ele>38.6</ele>
        <time>2022-06-29T14:47:09Z</time>
      </trkpt>
      <trkpt lat="44.80552" lon="-0.67053">
        <ele>39</ele>
        <time>2022-06-29T14:47:12Z</time>
      </trkpt>
      <trkpt lat="44.80551" lon="-0.6706">
        <ele>39</ele>
        <time>2022-06-29T14:47:13Z</time>
      </trkpt>
      <trkpt lat="44.80549" lon="-0.67075">
        <ele>39</ele>
        <time>2022-06-29T14:47:15Z</time>
      </trkpt>
      <trkpt lat="44.80549" lon="-0.67096">
        <ele>39.2</ele>
        <time>2022-06-29T14:47:18Z</time>
      </trkpt>
      <trkpt lat="44.8055" lon="-0.67103">
        <ele>39.4</ele>
        <time>2022-06-29T14:47:19Z</time>
      </trkpt>
      <trkpt lat="44.8055" lon="-0.6711">
        <ele>39.4</ele>
        <time>2022-06-29T14:47:20Z</time>
      </trkpt>
      <trkpt lat="44.80554" lon="-0.67128">
        <ele>39.2</ele>
        <time>2022-06-29T14:47:23Z</time>
      </trkpt>
      <trkpt lat="44.80555" lon="-0.67135">
        <ele>39</ele>
        <time>2022-06-29T14:47:24Z</time>
      </trkpt>
      <trkpt lat="44.80561" lon="-0.67169">
        <ele>38.2</ele>
        <time>2022-06-29T14:47:29Z</time>
      </trkpt>
      <trkpt lat="44.80563" lon="-0.67183">
        <ele>38.2</ele>
        <time>2022-06-29T14:47:31Z</time>
      </trkpt>
      <trkpt lat="44.80564" lon="-0.67189">
        <ele>38</ele>
        <time>2022-06-29T14:47:32Z</time>
      </trkpt>
      <trkpt lat="44.8057" lon="-0.67216">
        <ele>37.6</ele>
        <time>2022-06-29T14:47:36Z</time>
      </trkpt>
      <trkpt lat="44.80574" lon="-0.6726">
        <ele>37.4</ele>
        <time>2022-06-29T14:47:42Z</time>
      </trkpt>
      <trkpt lat="44.80573" lon="-0.67268">
        <ele>37.4</ele>
        <time>2022-06-29T14:47:43Z</time>
      </trkpt>
      <trkpt lat="44.80564" lon="-0.67295">
        <ele>37</ele>
        <time>2022-06-29T14:47:47Z</time>
      </trkpt>
      <trkpt lat="44.80562" lon="-0.67301">
        <ele>36.8</ele>
        <time>2022-06-29T14:47:48Z</time>
      </trkpt>
      <trkpt lat="44.80544" lon="-0.67348">
        <ele>36.8</ele>
        <time>2022-06-29T14:47:55Z</time>
      </trkpt>
      <trkpt lat="44.80531" lon="-0.67378">
        <ele>36.6</ele>
        <time>2022-06-29T14:48:02Z</time>
      </trkpt>
      <trkpt lat="44.80535" lon="-0.67389">
        <ele>36.6</ele>
        <time>2022-06-29T14:48:05Z</time>
      </trkpt>
      <trkpt lat="44.80546" lon="-0.67406">
        <ele>36</ele>
        <time>2022-06-29T14:48:09Z</time>
      </trkpt>
      <trkpt lat="44.80545" lon="-0.67425">
        <ele>35</ele>
        <time>2022-06-29T14:48:12Z</time>
      </trkpt>
      <trkpt lat="44.80544" lon="-0.67431">
        <ele>34.6</ele>
        <time>2022-06-29T14:48:13Z</time>
      </trkpt>
      <trkpt lat="44.80544" lon="-0.67445">
        <ele>34.2</ele>
        <time>2022-06-29T14:48:15Z</time>
      </trkpt>
      <trkpt lat="44.80544" lon="-0.67451">
        <ele>33.8</ele>
        <time>2022-06-29T14:48:16Z</time>
      </trkpt>
      <trkpt lat="44.80545" lon="-0.67464">
        <ele>33.4</ele>
        <time>2022-06-29T14:48:18Z</time>
      </trkpt>
      <trkpt lat="44.80546" lon="-0.67485">
        <ele>32.6</ele>
        <time>2022-06-29T14:48:21Z</time>
      </trkpt>
      <trkpt lat="44.80547" lon="-0.67498">
        <ele>32.2</ele>
        <time>2022-06-29T14:48:23Z</time>
      </trkpt>
      <trkpt lat="44.80547" lon="-0.67505">
        <ele>32.2</ele>
        <time>2022-06-29T14:48:24Z</time>
      </trkpt>
      <trkpt lat="44.8055" lon="-0.67533">
        <ele>32.4</ele>
        <time>2022-06-29T14:48:28Z</time>
      </trkpt>
      <trkpt lat="44.80551" lon="-0.6754">
        <ele>32.6</ele>
        <time>2022-06-29T14:48:29Z</time>
      </trkpt>
      <trkpt lat="44.80553" lon="-0.67573">
        <ele>33.6</ele>
        <time>2022-06-29T14:48:33Z</time>
      </trkpt>
      <trkpt lat="44.80555" lon="-0.6758">
        <ele>33.8</ele>
        <time>2022-06-29T14:48:34Z</time>
      </trkpt>
      <trkpt lat="44.80556" lon="-0.67599">
        <ele>34.2</ele>
        <time>2022-06-29T14:48:36Z</time>
      </trkpt>
      <trkpt lat="44.80556" lon="-0.67606">
        <ele>34.8</ele>
        <time>2022-06-29T14:48:37Z</time>
      </trkpt>
      <trkpt lat="44.80556" lon="-0.67612">
        <ele>35</ele>
        <time>2022-06-29T14:48:38Z</time>
      </trkpt>
      <trkpt lat="44.80557" lon="-0.67628">
        <ele>35.2</ele>
        <time>2022-06-29T14:48:40Z</time>
      </trkpt>
      <trkpt lat="44.80559" lon="-0.67664">
        <ele>36.2</ele>
        <time>2022-06-29T14:48:45Z</time>
      </trkpt>
      <trkpt lat="44.8056" lon="-0.67672">
        <ele>36.4</ele>
        <time>2022-06-29T14:48:46Z</time>
      </trkpt>
      <trkpt lat="44.80562" lon="-0.67698">
        <ele>37.2</ele>
        <time>2022-06-29T14:48:49Z</time>
      </trkpt>
      <trkpt lat="44.80563" lon="-0.67725">
        <ele>37.4</ele>
        <time>2022-06-29T14:48:52Z</time>
      </trkpt>
      <trkpt lat="44.80565" lon="-0.67742">
        <ele>37.4</ele>
        <time>2022-06-29T14:48:54Z</time>
      </trkpt>
      <trkpt lat="44.80567" lon="-0.67759">
        <ele>37.2</ele>
        <time>2022-06-29T14:48:56Z</time>
      </trkpt>
      <trkpt lat="44.8057" lon="-0.67799">
        <ele>36.8</ele>
        <time>2022-06-29T14:49:01Z</time>
      </trkpt>
      <trkpt lat="44.80569" lon="-0.67808">
        <ele>36.6</ele>
        <time>2022-06-29T14:49:02Z</time>
      </trkpt>
      <trkpt lat="44.8056" lon="-0.67832">
        <ele>37</ele>
        <time>2022-06-29T14:49:05Z</time>
      </trkpt>
      <trkpt lat="44.80544" lon="-0.67869">
        <ele>37.8</ele>
        <time>2022-06-29T14:49:10Z</time>
      </trkpt>
      <trkpt lat="44.80542" lon="-0.67877">
        <ele>38.2</ele>
        <time>2022-06-29T14:49:11Z</time>
      </trkpt>
      <trkpt lat="44.8054" lon="-0.67886">
        <ele>38.4</ele>
        <time>2022-06-29T14:49:12Z</time>
      </trkpt>
      <trkpt lat="44.80533" lon="-0.67921">
        <ele>39.8</ele>
        <time>2022-06-29T14:49:16Z</time>
      </trkpt>
      <trkpt lat="44.80532" lon="-0.67929">
        <ele>40.2</ele>
        <time>2022-06-29T14:49:17Z</time>
      </trkpt>
      <trkpt lat="44.80532" lon="-0.67937">
        <ele>40.2</ele>
        <time>2022-06-29T14:49:18Z</time>
      </trkpt>
      <trkpt lat="44.80536" lon="-0.67961">
        <ele>40.6</ele>
        <time>2022-06-29T14:49:21Z</time>
      </trkpt>
      <trkpt lat="44.80537" lon="-0.67968">
        <ele>40.8</ele>
        <time>2022-06-29T14:49:22Z</time>
      </trkpt>
      <trkpt lat="44.8054" lon="-0.67983">
        <ele>40.8</ele>
        <time>2022-06-29T14:49:24Z</time>
      </trkpt>
      <trkpt lat="44.80548" lon="-0.68001">
        <ele>40.6</ele>
        <time>2022-06-29T14:49:27Z</time>
      </trkpt>
      <trkpt lat="44.80552" lon="-0.68006">
        <ele>40.6</ele>
        <time>2022-06-29T14:49:28Z</time>
      </trkpt>
      <trkpt lat="44.80555" lon="-0.68011">
        <ele>40.4</ele>
        <time>2022-06-29T14:49:29Z</time>
      </trkpt>
      <trkpt lat="44.8056" lon="-0.68028">
        <ele>40.4</ele>
        <time>2022-06-29T14:49:32Z</time>
      </trkpt>
      <trkpt lat="44.80557" lon="-0.68041">
        <ele>40.4</ele>
        <time>2022-06-29T14:49:34Z</time>
      </trkpt>
      <trkpt lat="44.80555" lon="-0.68054">
        <ele>40.4</ele>
        <time>2022-06-29T14:49:36Z</time>
      </trkpt>
      <trkpt lat="44.80549" lon="-0.68086">
        <ele>39.8</ele>
        <time>2022-06-29T14:49:41Z</time>
      </trkpt>
      <trkpt lat="44.80547" lon="-0.68093">
        <ele>39.8</ele>
        <time>2022-06-29T14:49:42Z</time>
      </trkpt>
      <trkpt lat="44.80542" lon="-0.68125">
        <ele>39.4</ele>
        <time>2022-06-29T14:49:46Z</time>
      </trkpt>
      <trkpt lat="44.80543" lon="-0.68132">
        <ele>39.2</ele>
        <time>2022-06-29T14:49:47Z</time>
      </trkpt>
      <trkpt lat="44.80553" lon="-0.68149">
        <ele>38.8</ele>
        <time>2022-06-29T14:49:50Z</time>
      </trkpt>
      <trkpt lat="44.80556" lon="-0.68156">
        <ele>38.6</ele>
        <time>2022-06-29T14:49:51Z</time>
      </trkpt>
      <trkpt lat="44.80558" lon="-0.68162">
        <ele>38.4</ele>
        <time>2022-06-29T14:49:52Z</time>
      </trkpt>
      <trkpt lat="44.80567" lon="-0.68182">
        <ele>38</ele>
        <time>2022-06-29T14:49:55Z</time>
      </trkpt>
      <trkpt lat="44.80568" lon="-0.68188">
        <ele>38.6</ele>
        <time>2022-06-29T14:49:57Z</time>
      </trkpt>
      <trkpt lat="44.80566" lon="-0.68204">
        <ele>39</ele>
        <time>2022-06-29T14:50:02Z</time>
      </trkpt>
      <trkpt lat="44.80564" lon="-0.6821">
        <ele>39</ele>
        <time>2022-06-29T14:50:03Z</time>
      </trkpt>
      <trkpt lat="44.80561" lon="-0.68224">
        <ele>38.8</ele>
        <time>2022-06-29T14:50:05Z</time>
      </trkpt>
      <trkpt lat="44.80557" lon="-0.68247">
        <ele>37.4</ele>
        <time>2022-06-29T14:50:08Z</time>
      </trkpt>
      <trkpt lat="44.80557" lon="-0.68264">
        <ele>37.8</ele>
        <time>2022-06-29T14:50:11Z</time>
      </trkpt>
      <trkpt lat="44.80562" lon="-0.68284">
        <ele>38.4</ele>
        <time>2022-06-29T14:50:15Z</time>
      </trkpt>
      <trkpt lat="44.80564" lon="-0.68289">
        <ele>38.8</ele>
        <time>2022-06-29T14:50:16Z</time>
      </trkpt>
      <trkpt lat="44.8057" lon="-0.68303">
        <ele>39.8</ele>
        <time>2022-06-29T14:50:19Z</time>
      </trkpt>
      <trkpt lat="44.80569" lon="-0.68307">
        <ele>40</ele>
        <time>2022-06-29T14:50:20Z</time>
      </trkpt>
      <trkpt lat="44.80565" lon="-0.68312">
        <ele>41</ele>
        <time>2022-06-29T14:50:22Z</time>
      </trkpt>
      <trkpt lat="44.80563" lon="-0.68314">
        <ele>41.2</ele>
        <time>2022-06-29T14:50:23Z</time>
      </trkpt>
      <trkpt lat="44.80556" lon="-0.68321">
        <ele>41.6</ele>
        <time>2022-06-29T14:50:27Z</time>
      </trkpt>
      <trkpt lat="44.80555" lon="-0.68323">
        <ele>41.8</ele>
        <time>2022-06-29T14:50:28Z</time>
      </trkpt>
      <trkpt lat="44.80553" lon="-0.68325">
        <ele>42</ele>
        <time>2022-06-29T14:50:29Z</time>
      </trkpt>
      <trkpt lat="44.80549" lon="-0.68332">
        <ele>43</ele>
        <time>2022-06-29T14:50:32Z</time>
      </trkpt>
      <trkpt lat="44.80547" lon="-0.68334">
        <ele>43.4</ele>
        <time>2022-06-29T14:50:33Z</time>
      </trkpt>
      <trkpt lat="44.80542" lon="-0.68348">
        <ele>43.4</ele>
        <time>2022-06-29T14:50:37Z</time>
      </trkpt>
      <trkpt lat="44.80541" lon="-0.68352">
        <ele>43.4</ele>
        <time>2022-06-29T14:50:38Z</time>
      </trkpt>
      <trkpt lat="44.80535" lon="-0.68373">
        <ele>44</ele>
        <time>2022-06-29T14:50:42Z</time>
      </trkpt>
      <trkpt lat="44.80524" lon="-0.68409">
        <ele>44.6</ele>
        <time>2022-06-29T14:50:48Z</time>
      </trkpt>
      <trkpt lat="44.80504" lon="-0.68452">
        <ele>44.6</ele>
        <time>2022-06-29T14:50:55Z</time>
      </trkpt>
      <trkpt lat="44.80496" lon="-0.68471">
        <ele>45.2</ele>
        <time>2022-06-29T14:50:58Z</time>
      </trkpt>
      <trkpt lat="44.80492" lon="-0.68476">
        <ele>45.4</ele>
        <time>2022-06-29T14:50:59Z</time>
      </trkpt>
      <trkpt lat="44.80484" lon="-0.68485">
        <ele>46</ele>
        <time>2022-06-29T14:51:01Z</time>
      </trkpt>
      <trkpt lat="44.80467" lon="-0.68502">
        <ele>46</ele>
        <time>2022-06-29T14:51:05Z</time>
      </trkpt>
      <trkpt lat="44.8046" lon="-0.6853">
        <ele>46.4</ele>
        <time>2022-06-29T14:51:09Z</time>
      </trkpt>
      <trkpt lat="44.80449" lon="-0.68568">
        <ele>46.6</ele>
        <time>2022-06-29T14:51:15Z</time>
      </trkpt>
      <trkpt lat="44.80438" lon="-0.68583">
        <ele>46.6</ele>
        <time>2022-06-29T14:51:19Z</time>
      </trkpt>
      <trkpt lat="44.8044" lon="-0.68596">
        <ele>45.6</ele>
        <time>2022-06-29T14:51:22Z</time>
      </trkpt>
      <trkpt lat="44.80443" lon="-0.68599">
        <ele>45.2</ele>
        <time>2022-06-29T14:51:23Z</time>
      </trkpt>
      <trkpt lat="44.80446" lon="-0.68607">
        <ele>45.2</ele>
        <time>2022-06-29T14:51:25Z</time>
      </trkpt>
      <trkpt lat="44.80442" lon="-0.68616">
        <ele>45.6</ele>
        <time>2022-06-29T14:51:28Z</time>
      </trkpt>
      <trkpt lat="44.80436" lon="-0.68629">
        <ele>46.6</ele>
        <time>2022-06-29T14:51:31Z</time>
      </trkpt>
      <trkpt lat="44.80431" lon="-0.68638">
        <ele>46.4</ele>
        <time>2022-06-29T14:51:33Z</time>
      </trkpt>
      <trkpt lat="44.80414" lon="-0.68672">
        <ele>46</ele>
        <time>2022-06-29T14:51:39Z</time>
      </trkpt>
      <trkpt lat="44.80412" lon="-0.68679">
        <ele>46</ele>
        <time>2022-06-29T14:51:40Z</time>
      </trkpt>
      <trkpt lat="44.80409" lon="-0.68701">
        <ele>46</ele>
        <time>2022-06-29T14:51:43Z</time>
      </trkpt>
      <trkpt lat="44.80406" lon="-0.68715">
        <ele>45.2</ele>
        <time>2022-06-29T14:51:45Z</time>
      </trkpt>
      <trkpt lat="44.804" lon="-0.68726">
        <ele>45</ele>
        <time>2022-06-29T14:51:47Z</time>
      </trkpt>
      <trkpt lat="44.80392" lon="-0.68734">
        <ele>44.8</ele>
        <time>2022-06-29T14:51:49Z</time>
      </trkpt>
      <trkpt lat="44.80381" lon="-0.68745">
        <ele>45</ele>
        <time>2022-06-29T14:51:52Z</time>
      </trkpt>
      <trkpt lat="44.8037" lon="-0.68755">
        <ele>45</ele>
        <time>2022-06-29T14:51:55Z</time>
      </trkpt>
      <trkpt lat="44.80362" lon="-0.68758">
        <ele>44.4</ele>
        <time>2022-06-29T14:51:57Z</time>
      </trkpt>
      <trkpt lat="44.80354" lon="-0.68757">
        <ele>44.4</ele>
        <time>2022-06-29T14:51:59Z</time>
      </trkpt>
      <trkpt lat="44.8035" lon="-0.68758">
        <ele>44.4</ele>
        <time>2022-06-29T14:52:00Z</time>
      </trkpt>
      <trkpt lat="44.80346" lon="-0.6876">
        <ele>44.4</ele>
        <time>2022-06-29T14:52:01Z</time>
      </trkpt>
      <trkpt lat="44.8032" lon="-0.68779">
        <ele>45</ele>
        <time>2022-06-29T14:52:07Z</time>
      </trkpt>
      <trkpt lat="44.80294" lon="-0.68809">
        <ele>45</ele>
        <time>2022-06-29T14:52:13Z</time>
      </trkpt>
      <trkpt lat="44.80266" lon="-0.68838">
        <ele>44.6</ele>
        <time>2022-06-29T14:52:20Z</time>
      </trkpt>
      <trkpt lat="44.80242" lon="-0.68864">
        <ele>45.4</ele>
        <time>2022-06-29T14:52:27Z</time>
      </trkpt>
      <trkpt lat="44.80229" lon="-0.68876">
        <ele>45.2</ele>
        <time>2022-06-29T14:52:30Z</time>
      </trkpt>
      <trkpt lat="44.80225" lon="-0.68881">
        <ele>45</ele>
        <time>2022-06-29T14:52:31Z</time>
      </trkpt>
      <trkpt lat="44.80221" lon="-0.68886">
        <ele>44.8</ele>
        <time>2022-06-29T14:52:32Z</time>
      </trkpt>
      <trkpt lat="44.80206" lon="-0.689">
        <ele>44.2</ele>
        <time>2022-06-29T14:52:35Z</time>
      </trkpt>
      <trkpt lat="44.80201" lon="-0.68906">
        <ele>44.2</ele>
        <time>2022-06-29T14:52:36Z</time>
      </trkpt>
      <trkpt lat="44.80195" lon="-0.6891">
        <ele>44</ele>
        <time>2022-06-29T14:52:37Z</time>
      </trkpt>
      <trkpt lat="44.80183" lon="-0.68917">
        <ele>43.6</ele>
        <time>2022-06-29T14:52:39Z</time>
      </trkpt>
      <trkpt lat="44.80172" lon="-0.68928">
        <ele>42.8</ele>
        <time>2022-06-29T14:52:41Z</time>
      </trkpt>
      <trkpt lat="44.80167" lon="-0.68933">
        <ele>42.6</ele>
        <time>2022-06-29T14:52:42Z</time>
      </trkpt>
      <trkpt lat="44.80162" lon="-0.68937">
        <ele>42.4</ele>
        <time>2022-06-29T14:52:43Z</time>
      </trkpt>
      <trkpt lat="44.80144" lon="-0.68946">
        <ele>41.8</ele>
        <time>2022-06-29T14:52:46Z</time>
      </trkpt>
      <trkpt lat="44.80139" lon="-0.6895">
        <ele>41.4</ele>
        <time>2022-06-29T14:52:47Z</time>
      </trkpt>
      <trkpt lat="44.80121" lon="-0.6897">
        <ele>40.6</ele>
        <time>2022-06-29T14:52:51Z</time>
      </trkpt>
      <trkpt lat="44.80111" lon="-0.68979">
        <ele>40.2</ele>
        <time>2022-06-29T14:52:53Z</time>
      </trkpt>
      <trkpt lat="44.80102" lon="-0.68992">
        <ele>39.6</ele>
        <time>2022-06-29T14:52:55Z</time>
      </trkpt>
      <trkpt lat="44.80099" lon="-0.69">
        <ele>39.4</ele>
        <time>2022-06-29T14:52:56Z</time>
      </trkpt>
      <trkpt lat="44.80096" lon="-0.69008">
        <ele>39</ele>
        <time>2022-06-29T14:52:57Z</time>
      </trkpt>
      <trkpt lat="44.80087" lon="-0.69032">
        <ele>38.2</ele>
        <time>2022-06-29T14:53:00Z</time>
      </trkpt>
      <trkpt lat="44.80081" lon="-0.69045">
        <ele>37.6</ele>
        <time>2022-06-29T14:53:02Z</time>
      </trkpt>
      <trkpt lat="44.80077" lon="-0.6905">
        <ele>37.2</ele>
        <time>2022-06-29T14:53:03Z</time>
      </trkpt>
      <trkpt lat="44.80073" lon="-0.69054">
        <ele>37</ele>
        <time>2022-06-29T14:53:04Z</time>
      </trkpt>
      <trkpt lat="44.80056" lon="-0.69063">
        <ele>36.4</ele>
        <time>2022-06-29T14:53:07Z</time>
      </trkpt>
      <trkpt lat="44.80044" lon="-0.69073">
        <ele>36</ele>
        <time>2022-06-29T14:53:09Z</time>
      </trkpt>
      <trkpt lat="44.80039" lon="-0.69075">
        <ele>36</ele>
        <time>2022-06-29T14:53:10Z</time>
      </trkpt>
      <trkpt lat="44.80031" lon="-0.69076">
        <ele>35.6</ele>
        <time>2022-06-29T14:53:11Z</time>
      </trkpt>
      <trkpt lat="44.80016" lon="-0.69074">
        <ele>35</ele>
        <time>2022-06-29T14:53:13Z</time>
      </trkpt>
      <trkpt lat="44.80001" lon="-0.6907">
        <ele>34.2</ele>
        <time>2022-06-29T14:53:15Z</time>
      </trkpt>
      <trkpt lat="44.79964" lon="-0.6907">
        <ele>35.2</ele>
        <time>2022-06-29T14:53:20Z</time>
      </trkpt>
      <trkpt lat="44.79944" lon="-0.69074">
        <ele>36</ele>
        <time>2022-06-29T14:53:23Z</time>
      </trkpt>
      <trkpt lat="44.79938" lon="-0.69077">
        <ele>36</ele>
        <time>2022-06-29T14:53:24Z</time>
      </trkpt>
      <trkpt lat="44.79933" lon="-0.69079">
        <ele>36.2</ele>
        <time>2022-06-29T14:53:25Z</time>
      </trkpt>
      <trkpt lat="44.79923" lon="-0.69086">
        <ele>36.4</ele>
        <time>2022-06-29T14:53:27Z</time>
      </trkpt>
      <trkpt lat="44.79913" lon="-0.69093">
        <ele>36.4</ele>
        <time>2022-06-29T14:53:29Z</time>
      </trkpt>
      <trkpt lat="44.79888" lon="-0.69117">
        <ele>36.2</ele>
        <time>2022-06-29T14:53:35Z</time>
      </trkpt>
      <trkpt lat="44.79876" lon="-0.69128">
        <ele>35.8</ele>
        <time>2022-06-29T14:53:38Z</time>
      </trkpt>
      <trkpt lat="44.79868" lon="-0.69136">
        <ele>35.6</ele>
        <time>2022-06-29T14:53:40Z</time>
      </trkpt>
      <trkpt lat="44.79854" lon="-0.69138">
        <ele>35</ele>
        <time>2022-06-29T14:53:43Z</time>
      </trkpt>
      <trkpt lat="44.79849" lon="-0.69134">
        <ele>34.8</ele>
        <time>2022-06-29T14:53:44Z</time>
      </trkpt>
      <trkpt lat="44.79841" lon="-0.69123">
        <ele>34</ele>
        <time>2022-06-29T14:53:46Z</time>
      </trkpt>
      <trkpt lat="44.79837" lon="-0.69118">
        <ele>33.8</ele>
        <time>2022-06-29T14:53:47Z</time>
      </trkpt>
      <trkpt lat="44.79832" lon="-0.69112">
        <ele>33.6</ele>
        <time>2022-06-29T14:53:48Z</time>
      </trkpt>
      <trkpt lat="44.79825" lon="-0.69101">
        <ele>33.2</ele>
        <time>2022-06-29T14:53:50Z</time>
      </trkpt>
      <trkpt lat="44.79822" lon="-0.69095">
        <ele>33.4</ele>
        <time>2022-06-29T14:53:51Z</time>
      </trkpt>
      <trkpt lat="44.79818" lon="-0.6909">
        <ele>33.6</ele>
        <time>2022-06-29T14:53:52Z</time>
      </trkpt>
      <trkpt lat="44.79808" lon="-0.69085">
        <ele>33.2</ele>
        <time>2022-06-29T14:53:54Z</time>
      </trkpt>
      <trkpt lat="44.79798" lon="-0.69083">
        <ele>32.2</ele>
        <time>2022-06-29T14:53:56Z</time>
      </trkpt>
      <trkpt lat="44.79789" lon="-0.69084">
        <ele>31.2</ele>
        <time>2022-06-29T14:53:58Z</time>
      </trkpt>
      <trkpt lat="44.79783" lon="-0.69084">
        <ele>31</ele>
        <time>2022-06-29T14:53:59Z</time>
      </trkpt>
      <trkpt lat="44.79768" lon="-0.69082">
        <ele>31.2</ele>
        <time>2022-06-29T14:54:02Z</time>
      </trkpt>
      <trkpt lat="44.79759" lon="-0.69079">
        <ele>31.6</ele>
        <time>2022-06-29T14:54:04Z</time>
      </trkpt>
      <trkpt lat="44.79752" lon="-0.69074">
        <ele>32.4</ele>
        <time>2022-06-29T14:54:06Z</time>
      </trkpt>
      <trkpt lat="44.79746" lon="-0.6907">
        <ele>33.4</ele>
        <time>2022-06-29T14:54:08Z</time>
      </trkpt>
      <trkpt lat="44.79732" lon="-0.69054">
        <ele>34.2</ele>
        <time>2022-06-29T14:54:12Z</time>
      </trkpt>
      <trkpt lat="44.79714" lon="-0.69032">
        <ele>33.6</ele>
        <time>2022-06-29T14:54:16Z</time>
      </trkpt>
      <trkpt lat="44.79705" lon="-0.6902">
        <ele>33</ele>
        <time>2022-06-29T14:54:18Z</time>
      </trkpt>
      <trkpt lat="44.79697" lon="-0.6901">
        <ele>32.4</ele>
        <time>2022-06-29T14:54:20Z</time>
      </trkpt>
      <trkpt lat="44.79693" lon="-0.69006">
        <ele>32.2</ele>
        <time>2022-06-29T14:54:21Z</time>
      </trkpt>
      <trkpt lat="44.79688" lon="-0.69003">
        <ele>32.4</ele>
        <time>2022-06-29T14:54:22Z</time>
      </trkpt>
      <trkpt lat="44.79682" lon="-0.69001">
        <ele>33.6</ele>
        <time>2022-06-29T14:54:24Z</time>
      </trkpt>
      <trkpt lat="44.7968" lon="-0.69">
        <ele>34.4</ele>
        <time>2022-06-29T14:54:25Z</time>
      </trkpt>
      <trkpt lat="44.79678" lon="-0.68999">
        <ele>34.8</ele>
        <time>2022-06-29T14:54:26Z</time>
      </trkpt>
      <trkpt lat="44.79672" lon="-0.68997">
        <ele>36</ele>
        <time>2022-06-29T14:54:28Z</time>
      </trkpt>
      <trkpt lat="44.79665" lon="-0.68993">
        <ele>37.2</ele>
        <time>2022-06-29T14:54:30Z</time>
      </trkpt>
      <trkpt lat="44.79662" lon="-0.6899">
        <ele>37.2</ele>
        <time>2022-06-29T14:54:31Z</time>
      </trkpt>
      <trkpt lat="44.79649" lon="-0.68978">
        <ele>37.4</ele>
        <time>2022-06-29T14:54:34Z</time>
      </trkpt>
      <trkpt lat="44.79632" lon="-0.68969">
        <ele>37.4</ele>
        <time>2022-06-29T14:54:38Z</time>
      </trkpt>
      <trkpt lat="44.79628" lon="-0.68966">
        <ele>37.6</ele>
        <time>2022-06-29T14:54:39Z</time>
      </trkpt>
      <trkpt lat="44.79612" lon="-0.68953">
        <ele>37.6</ele>
        <time>2022-06-29T14:54:43Z</time>
      </trkpt>
      <trkpt lat="44.79603" lon="-0.68941">
        <ele>37.4</ele>
        <time>2022-06-29T14:54:46Z</time>
      </trkpt>
      <trkpt lat="44.79601" lon="-0.68933">
        <ele>37.6</ele>
        <time>2022-06-29T14:54:47Z</time>
      </trkpt>
      <trkpt lat="44.79597" lon="-0.68913">
        <ele>38.2</ele>
        <time>2022-06-29T14:54:50Z</time>
      </trkpt>
      <trkpt lat="44.79598" lon="-0.68905">
        <ele>38.4</ele>
        <time>2022-06-29T14:54:51Z</time>
      </trkpt>
      <trkpt lat="44.79608" lon="-0.68883">
        <ele>39.2</ele>
        <time>2022-06-29T14:54:54Z</time>
      </trkpt>
      <trkpt lat="44.79611" lon="-0.68876">
        <ele>39.4</ele>
        <time>2022-06-29T14:54:55Z</time>
      </trkpt>
      <trkpt lat="44.7963" lon="-0.68838">
        <ele>40</ele>
        <time>2022-06-29T14:55:00Z</time>
      </trkpt>
      <trkpt lat="44.79657" lon="-0.68783">
        <ele>39.4</ele>
        <time>2022-06-29T14:55:06Z</time>
      </trkpt>
      <trkpt lat="44.79675" lon="-0.68749">
        <ele>39</ele>
        <time>2022-06-29T14:55:10Z</time>
      </trkpt>
      <trkpt lat="44.79681" lon="-0.68743">
        <ele>38.8</ele>
        <time>2022-06-29T14:55:11Z</time>
      </trkpt>
      <trkpt lat="44.79696" lon="-0.68726">
        <ele>38.2</ele>
        <time>2022-06-29T14:55:14Z</time>
      </trkpt>
      <trkpt lat="44.797" lon="-0.68718">
        <ele>38.2</ele>
        <time>2022-06-29T14:55:15Z</time>
      </trkpt>
      <trkpt lat="44.79704" lon="-0.6871">
        <ele>38</ele>
        <time>2022-06-29T14:55:16Z</time>
      </trkpt>
      <trkpt lat="44.79707" lon="-0.68682">
        <ele>37.8</ele>
        <time>2022-06-29T14:55:19Z</time>
      </trkpt>
      <trkpt lat="44.79698" lon="-0.68658">
        <ele>37.6</ele>
        <time>2022-06-29T14:55:22Z</time>
      </trkpt>
      <trkpt lat="44.79687" lon="-0.68637">
        <ele>37.4</ele>
        <time>2022-06-29T14:55:25Z</time>
      </trkpt>
      <trkpt lat="44.79676" lon="-0.6863">
        <ele>37.6</ele>
        <time>2022-06-29T14:55:27Z</time>
      </trkpt>
      <trkpt lat="44.79657" lon="-0.68628">
        <ele>38.4</ele>
        <time>2022-06-29T14:55:30Z</time>
      </trkpt>
      <trkpt lat="44.79639" lon="-0.6864">
        <ele>39</ele>
        <time>2022-06-29T14:55:33Z</time>
      </trkpt>
      <trkpt lat="44.79623" lon="-0.68651">
        <ele>39.2</ele>
        <time>2022-06-29T14:55:36Z</time>
      </trkpt>
      <trkpt lat="44.7961" lon="-0.68655">
        <ele>39.6</ele>
        <time>2022-06-29T14:55:38Z</time>
      </trkpt>
      <trkpt lat="44.79596" lon="-0.68655">
        <ele>40</ele>
        <time>2022-06-29T14:55:40Z</time>
      </trkpt>
      <trkpt lat="44.79583" lon="-0.68653">
        <ele>40.4</ele>
        <time>2022-06-29T14:55:42Z</time>
      </trkpt>
      <trkpt lat="44.79576" lon="-0.6865">
        <ele>40.6</ele>
        <time>2022-06-29T14:55:43Z</time>
      </trkpt>
      <trkpt lat="44.79551" lon="-0.68631">
        <ele>41.4</ele>
        <time>2022-06-29T14:55:47Z</time>
      </trkpt>
      <trkpt lat="44.79544" lon="-0.68626">
        <ele>41.6</ele>
        <time>2022-06-29T14:55:48Z</time>
      </trkpt>
      <trkpt lat="44.79529" lon="-0.6862">
        <ele>41.6</ele>
        <time>2022-06-29T14:55:50Z</time>
      </trkpt>
      <trkpt lat="44.79522" lon="-0.68619">
        <ele>41.8</ele>
        <time>2022-06-29T14:55:51Z</time>
      </trkpt>
      <trkpt lat="44.795" lon="-0.68633">
        <ele>42.4</ele>
        <time>2022-06-29T14:55:54Z</time>
      </trkpt>
      <trkpt lat="44.79485" lon="-0.68656">
        <ele>42.8</ele>
        <time>2022-06-29T14:55:57Z</time>
      </trkpt>
      <trkpt lat="44.79481" lon="-0.68664">
        <ele>43</ele>
        <time>2022-06-29T14:55:58Z</time>
      </trkpt>
      <trkpt lat="44.79474" lon="-0.68679">
        <ele>43.4</ele>
        <time>2022-06-29T14:56:00Z</time>
      </trkpt>
      <trkpt lat="44.79466" lon="-0.68704">
        <ele>43.4</ele>
        <time>2022-06-29T14:56:03Z</time>
      </trkpt>
      <trkpt lat="44.79465" lon="-0.68712">
        <ele>43.6</ele>
        <time>2022-06-29T14:56:04Z</time>
      </trkpt>
      <trkpt lat="44.79463" lon="-0.68744">
        <ele>43.6</ele>
        <time>2022-06-29T14:56:08Z</time>
      </trkpt>
      <trkpt lat="44.79459" lon="-0.68775">
        <ele>43.6</ele>
        <time>2022-06-29T14:56:12Z</time>
      </trkpt>
      <trkpt lat="44.79453" lon="-0.68815">
        <ele>43</ele>
        <time>2022-06-29T14:56:17Z</time>
      </trkpt>
      <trkpt lat="44.7945" lon="-0.68836">
        <ele>42.6</ele>
        <time>2022-06-29T14:56:20Z</time>
      </trkpt>
      <trkpt lat="44.79445" lon="-0.68848">
        <ele>42.6</ele>
        <time>2022-06-29T14:56:22Z</time>
      </trkpt>
      <trkpt lat="44.79438" lon="-0.68874">
        <ele>42.2</ele>
        <time>2022-06-29T14:56:26Z</time>
      </trkpt>
      <trkpt lat="44.79438" lon="-0.68882">
        <ele>42</ele>
        <time>2022-06-29T14:56:27Z</time>
      </trkpt>
      <trkpt lat="44.79437" lon="-0.68889">
        <ele>41.8</ele>
        <time>2022-06-29T14:56:28Z</time>
      </trkpt>
      <trkpt lat="44.79435" lon="-0.68913">
        <ele>41.4</ele>
        <time>2022-06-29T14:56:31Z</time>
      </trkpt>
      <trkpt lat="44.7944" lon="-0.68929">
        <ele>41.6</ele>
        <time>2022-06-29T14:56:33Z</time>
      </trkpt>
      <trkpt lat="44.79453" lon="-0.68943">
        <ele>41.4</ele>
        <time>2022-06-29T14:56:36Z</time>
      </trkpt>
      <trkpt lat="44.79475" lon="-0.6895">
        <ele>41.4</ele>
        <time>2022-06-29T14:56:40Z</time>
      </trkpt>
      <trkpt lat="44.79482" lon="-0.6895">
        <ele>41.4</ele>
        <time>2022-06-29T14:56:41Z</time>
      </trkpt>
      <trkpt lat="44.79501" lon="-0.6895">
        <ele>42</ele>
        <time>2022-06-29T14:56:44Z</time>
      </trkpt>
      <trkpt lat="44.79507" lon="-0.68953">
        <ele>42.2</ele>
        <time>2022-06-29T14:56:45Z</time>
      </trkpt>
      <trkpt lat="44.79522" lon="-0.68957">
        <ele>42.8</ele>
        <time>2022-06-29T14:56:48Z</time>
      </trkpt>
      <trkpt lat="44.79528" lon="-0.68957">
        <ele>42.8</ele>
        <time>2022-06-29T14:56:49Z</time>
      </trkpt>
      <trkpt lat="44.79534" lon="-0.68958">
        <ele>42.8</ele>
        <time>2022-06-29T14:56:50Z</time>
      </trkpt>
      <trkpt lat="44.79539" lon="-0.68957">
        <ele>42.8</ele>
        <time>2022-06-29T14:56:51Z</time>
      </trkpt>
      <trkpt lat="44.79553" lon="-0.68957">
        <ele>42.6</ele>
        <time>2022-06-29T14:56:54Z</time>
      </trkpt>
      <trkpt lat="44.79561" lon="-0.68955">
        <ele>42.2</ele>
        <time>2022-06-29T14:56:56Z</time>
      </trkpt>
      <trkpt lat="44.79568" lon="-0.68948">
        <ele>42</ele>
        <time>2022-06-29T14:56:58Z</time>
      </trkpt>
      <trkpt lat="44.79575" lon="-0.68941">
        <ele>42</ele>
        <time>2022-06-29T14:57:00Z</time>
      </trkpt>
      <trkpt lat="44.79583" lon="-0.68939">
        <ele>41.8</ele>
        <time>2022-06-29T14:57:02Z</time>
      </trkpt>
      <trkpt lat="44.79587" lon="-0.68939">
        <ele>41.8</ele>
        <time>2022-06-29T14:57:03Z</time>
      </trkpt>
      <trkpt lat="44.79599" lon="-0.68947">
        <ele>41.2</ele>
        <time>2022-06-29T14:57:06Z</time>
      </trkpt>
      <trkpt lat="44.79616" lon="-0.68963">
        <ele>41</ele>
        <time>2022-06-29T14:57:11Z</time>
      </trkpt>
      <trkpt lat="44.79614" lon="-0.6898">
        <ele>41.8</ele>
        <time>2022-06-29T14:57:14Z</time>
      </trkpt>
      <trkpt lat="44.79605" lon="-0.69012">
        <ele>42.4</ele>
        <time>2022-06-29T14:57:18Z</time>
      </trkpt>
      <trkpt lat="44.79598" lon="-0.69027">
        <ele>42.2</ele>
        <time>2022-06-29T14:57:20Z</time>
      </trkpt>
      <trkpt lat="44.79586" lon="-0.69036">
        <ele>41.8</ele>
        <time>2022-06-29T14:57:22Z</time>
      </trkpt>
      <trkpt lat="44.79549" lon="-0.69057">
        <ele>42</ele>
        <time>2022-06-29T14:57:28Z</time>
      </trkpt>
      <trkpt lat="44.79542" lon="-0.69058">
        <ele>42</ele>
        <time>2022-06-29T14:57:29Z</time>
      </trkpt>
      <trkpt lat="44.79513" lon="-0.69066">
        <ele>42</ele>
        <time>2022-06-29T14:57:34Z</time>
      </trkpt>
      <trkpt lat="44.79507" lon="-0.69067">
        <ele>42</ele>
        <time>2022-06-29T14:57:35Z</time>
      </trkpt>
      <trkpt lat="44.79476" lon="-0.69073">
        <ele>42.6</ele>
        <time>2022-06-29T14:57:40Z</time>
      </trkpt>
      <trkpt lat="44.79441" lon="-0.69079">
        <ele>41.8</ele>
        <time>2022-06-29T14:57:46Z</time>
      </trkpt>
      <trkpt lat="44.79429" lon="-0.69078">
        <ele>41.8</ele>
        <time>2022-06-29T14:57:48Z</time>
      </trkpt>
      <trkpt lat="44.79393" lon="-0.69076">
        <ele>41</ele>
        <time>2022-06-29T14:57:54Z</time>
      </trkpt>
      <trkpt lat="44.7937" lon="-0.69092">
        <ele>41</ele>
        <time>2022-06-29T14:57:58Z</time>
      </trkpt>
      <trkpt lat="44.79359" lon="-0.69114">
        <ele>41.4</ele>
        <time>2022-06-29T14:58:01Z</time>
      </trkpt>
      <trkpt lat="44.79356" lon="-0.69121">
        <ele>41.8</ele>
        <time>2022-06-29T14:58:02Z</time>
      </trkpt>
      <trkpt lat="44.79342" lon="-0.69152">
        <ele>42.6</ele>
        <time>2022-06-29T14:58:06Z</time>
      </trkpt>
      <trkpt lat="44.79339" lon="-0.69159">
        <ele>42.8</ele>
        <time>2022-06-29T14:58:07Z</time>
      </trkpt>
      <trkpt lat="44.79335" lon="-0.69166">
        <ele>43</ele>
        <time>2022-06-29T14:58:08Z</time>
      </trkpt>
      <trkpt lat="44.79321" lon="-0.69186">
        <ele>43.6</ele>
        <time>2022-06-29T14:58:11Z</time>
      </trkpt>
      <trkpt lat="44.79311" lon="-0.69198">
        <ele>44</ele>
        <time>2022-06-29T14:58:13Z</time>
      </trkpt>
      <trkpt lat="44.79295" lon="-0.69218">
        <ele>43.8</ele>
        <time>2022-06-29T14:58:16Z</time>
      </trkpt>
      <trkpt lat="44.79265" lon="-0.69258">
        <ele>43.4</ele>
        <time>2022-06-29T14:58:22Z</time>
      </trkpt>
      <trkpt lat="44.79259" lon="-0.69264">
        <ele>43.4</ele>
        <time>2022-06-29T14:58:23Z</time>
      </trkpt>
      <trkpt lat="44.79239" lon="-0.69275">
        <ele>43.4</ele>
        <time>2022-06-29T14:58:26Z</time>
      </trkpt>
      <trkpt lat="44.79215" lon="-0.69295">
        <ele>43.4</ele>
        <time>2022-06-29T14:58:30Z</time>
      </trkpt>
      <trkpt lat="44.792" lon="-0.69324">
        <ele>43.8</ele>
        <time>2022-06-29T14:58:34Z</time>
      </trkpt>
      <trkpt lat="44.79187" lon="-0.69342">
        <ele>44.2</ele>
        <time>2022-06-29T14:58:37Z</time>
      </trkpt>
      <trkpt lat="44.79177" lon="-0.69352">
        <ele>43.8</ele>
        <time>2022-06-29T14:58:39Z</time>
      </trkpt>
      <trkpt lat="44.7914" lon="-0.69375">
        <ele>43.8</ele>
        <time>2022-06-29T14:58:46Z</time>
      </trkpt>
      <trkpt lat="44.79135" lon="-0.6938">
        <ele>44</ele>
        <time>2022-06-29T14:58:47Z</time>
      </trkpt>
      <trkpt lat="44.79125" lon="-0.69398">
        <ele>44.2</ele>
        <time>2022-06-29T14:58:50Z</time>
      </trkpt>
      <trkpt lat="44.79118" lon="-0.69432">
        <ele>44.8</ele>
        <time>2022-06-29T14:58:55Z</time>
      </trkpt>
      <trkpt lat="44.79112" lon="-0.69462">
        <ele>44.6</ele>
        <time>2022-06-29T14:58:59Z</time>
      </trkpt>
      <trkpt lat="44.7911" lon="-0.6947">
        <ele>44.2</ele>
        <time>2022-06-29T14:59:00Z</time>
      </trkpt>
      <trkpt lat="44.79101" lon="-0.69498">
        <ele>43.8</ele>
        <time>2022-06-29T14:59:04Z</time>
      </trkpt>
      <trkpt lat="44.79097" lon="-0.69504">
        <ele>43.8</ele>
        <time>2022-06-29T14:59:05Z</time>
      </trkpt>
      <trkpt lat="44.79092" lon="-0.69518">
        <ele>43.6</ele>
        <time>2022-06-29T14:59:07Z</time>
      </trkpt>
      <trkpt lat="44.79087" lon="-0.69529">
        <ele>43.8</ele>
        <time>2022-06-29T14:59:09Z</time>
      </trkpt>
      <trkpt lat="44.79065" lon="-0.69563">
        <ele>43.2</ele>
        <time>2022-06-29T14:59:15Z</time>
      </trkpt>
      <trkpt lat="44.79056" lon="-0.69574">
        <ele>43</ele>
        <time>2022-06-29T14:59:17Z</time>
      </trkpt>
      <trkpt lat="44.79044" lon="-0.69593">
        <ele>42.8</ele>
        <time>2022-06-29T14:59:20Z</time>
      </trkpt>
      <trkpt lat="44.79031" lon="-0.69612">
        <ele>41.8</ele>
        <time>2022-06-29T14:59:24Z</time>
      </trkpt>
      <trkpt lat="44.79029" lon="-0.69615">
        <ele>41.6</ele>
        <time>2022-06-29T14:59:25Z</time>
      </trkpt>
      <trkpt lat="44.79026" lon="-0.69615">
        <ele>41.6</ele>
        <time>2022-06-29T14:59:26Z</time>
      </trkpt>
      <trkpt lat="44.7902" lon="-0.69615">
        <ele>41.4</ele>
        <time>2022-06-29T14:59:28Z</time>
      </trkpt>
      <trkpt lat="44.79011" lon="-0.69629">
        <ele>40.6</ele>
        <time>2022-06-29T14:59:31Z</time>
      </trkpt>
      <trkpt lat="44.79006" lon="-0.69642">
        <ele>39.8</ele>
        <time>2022-06-29T14:59:33Z</time>
      </trkpt>
      <trkpt lat="44.79003" lon="-0.69647">
        <ele>39.2</ele>
        <time>2022-06-29T14:59:34Z</time>
      </trkpt>
      <trkpt lat="44.78995" lon="-0.69658">
        <ele>38.6</ele>
        <time>2022-06-29T14:59:36Z</time>
      </trkpt>
      <trkpt lat="44.78992" lon="-0.69664">
        <ele>38.2</ele>
        <time>2022-06-29T14:59:37Z</time>
      </trkpt>
      <trkpt lat="44.78971" lon="-0.69693">
        <ele>38.4</ele>
        <time>2022-06-29T14:59:43Z</time>
      </trkpt>
      <trkpt lat="44.7895" lon="-0.69721">
        <ele>39.2</ele>
        <time>2022-06-29T14:59:49Z</time>
      </trkpt>
      <trkpt lat="44.78947" lon="-0.69726">
        <ele>39.4</ele>
        <time>2022-06-29T14:59:50Z</time>
      </trkpt>
      <trkpt lat="44.78932" lon="-0.69744">
        <ele>40.6</ele>
        <time>2022-06-29T14:59:54Z</time>
      </trkpt>
      <trkpt lat="44.78922" lon="-0.69757">
        <ele>41.2</ele>
        <time>2022-06-29T14:59:57Z</time>
      </trkpt>
      <trkpt lat="44.7892" lon="-0.69763">
        <ele>41.6</ele>
        <time>2022-06-29T14:59:58Z</time>
      </trkpt>
      <trkpt lat="44.7892" lon="-0.69769">
        <ele>41.6</ele>
        <time>2022-06-29T14:59:59Z</time>
      </trkpt>
      <trkpt lat="44.7892" lon="-0.69773">
        <ele>42</ele>
        <time>2022-06-29T15:00:00Z</time>
      </trkpt>
      <trkpt lat="44.78918" lon="-0.69776">
        <ele>42.8</ele>
        <time>2022-06-29T15:00:02Z</time>
      </trkpt>
      <trkpt lat="44.78917" lon="-0.69778">
        <ele>43</ele>
        <time>2022-06-29T15:00:03Z</time>
      </trkpt>
      <trkpt lat="44.78915" lon="-0.69781">
        <ele>43.2</ele>
        <time>2022-06-29T15:00:04Z</time>
      </trkpt>
      <trkpt lat="44.78911" lon="-0.6979">
        <ele>43.8</ele>
        <time>2022-06-29T15:00:06Z</time>
      </trkpt>
      <trkpt lat="44.78906" lon="-0.69801">
        <ele>43.8</ele>
        <time>2022-06-29T15:00:08Z</time>
      </trkpt>
      <trkpt lat="44.78898" lon="-0.69812">
        <ele>43.4</ele>
        <time>2022-06-29T15:00:10Z</time>
      </trkpt>
      <trkpt lat="44.78885" lon="-0.69829">
        <ele>43.6</ele>
        <time>2022-06-29T15:00:13Z</time>
      </trkpt>
      <trkpt lat="44.78854" lon="-0.69873">
        <ele>44</ele>
        <time>2022-06-29T15:00:20Z</time>
      </trkpt>
      <trkpt lat="44.78825" lon="-0.69904">
        <ele>44.4</ele>
        <time>2022-06-29T15:00:26Z</time>
      </trkpt>
      <trkpt lat="44.7882" lon="-0.69908">
        <ele>44.4</ele>
        <time>2022-06-29T15:00:27Z</time>
      </trkpt>
      <trkpt lat="44.78803" lon="-0.6992">
        <ele>44.4</ele>
        <time>2022-06-29T15:00:30Z</time>
      </trkpt>
      <trkpt lat="44.78768" lon="-0.69945">
        <ele>45</ele>
        <time>2022-06-29T15:00:36Z</time>
      </trkpt>
      <trkpt lat="44.78739" lon="-0.69969">
        <ele>45.4</ele>
        <time>2022-06-29T15:00:42Z</time>
      </trkpt>
      <trkpt lat="44.78731" lon="-0.69975">
        <ele>45.6</ele>
        <time>2022-06-29T15:00:45Z</time>
      </trkpt>
      <trkpt lat="44.78727" lon="-0.69984">
        <ele>46.2</ele>
        <time>2022-06-29T15:00:48Z</time>
      </trkpt>
      <trkpt lat="44.78718" lon="-0.69998">
        <ele>46</ele>
        <time>2022-06-29T15:00:51Z</time>
      </trkpt>
      <trkpt lat="44.78695" lon="-0.7003">
        <ele>45.6</ele>
        <time>2022-06-29T15:00:56Z</time>
      </trkpt>
      <trkpt lat="44.78664" lon="-0.70074">
        <ele>45.4</ele>
        <time>2022-06-29T15:01:02Z</time>
      </trkpt>
      <trkpt lat="44.7865" lon="-0.70097">
        <ele>45.2</ele>
        <time>2022-06-29T15:01:05Z</time>
      </trkpt>
      <trkpt lat="44.78637" lon="-0.70119">
        <ele>45</ele>
        <time>2022-06-29T15:01:08Z</time>
      </trkpt>
      <trkpt lat="44.78632" lon="-0.70125">
        <ele>45</ele>
        <time>2022-06-29T15:01:09Z</time>
      </trkpt>
      <trkpt lat="44.7862" lon="-0.7014">
        <ele>45</ele>
        <time>2022-06-29T15:01:12Z</time>
      </trkpt>
      <trkpt lat="44.78616" lon="-0.70143">
        <ele>45</ele>
        <time>2022-06-29T15:01:13Z</time>
      </trkpt>
      <trkpt lat="44.78606" lon="-0.70148">
        <ele>45</ele>
        <time>2022-06-29T15:01:16Z</time>
      </trkpt>
      <trkpt lat="44.78603" lon="-0.70151">
        <ele>45.2</ele>
        <time>2022-06-29T15:01:17Z</time>
      </trkpt>
      <trkpt lat="44.78594" lon="-0.70168">
        <ele>45.4</ele>
        <time>2022-06-29T15:01:21Z</time>
      </trkpt>
      <trkpt lat="44.78582" lon="-0.70189">
        <ele>45.6</ele>
        <time>2022-06-29T15:01:25Z</time>
      </trkpt>
      <trkpt lat="44.78583" lon="-0.70196">
        <ele>45.4</ele>
        <time>2022-06-29T15:01:26Z</time>
      </trkpt>
      <trkpt lat="44.78594" lon="-0.70209">
        <ele>45.2</ele>
        <time>2022-06-29T15:01:29Z</time>
      </trkpt>
      <trkpt lat="44.78598" lon="-0.70214">
        <ele>45</ele>
        <time>2022-06-29T15:01:30Z</time>
      </trkpt>
      <trkpt lat="44.78618" lon="-0.70236">
        <ele>44.4</ele>
        <time>2022-06-29T15:01:34Z</time>
      </trkpt>
      <trkpt lat="44.78628" lon="-0.70247">
        <ele>44</ele>
        <time>2022-06-29T15:01:36Z</time>
      </trkpt>
      <trkpt lat="44.78655" lon="-0.70273">
        <ele>44</ele>
        <time>2022-06-29T15:01:41Z</time>
      </trkpt>
      <trkpt lat="44.78682" lon="-0.703">
        <ele>44</ele>
        <time>2022-06-29T15:01:46Z</time>
      </trkpt>
      <trkpt lat="44.78705" lon="-0.70321">
        <ele>44.2</ele>
        <time>2022-06-29T15:01:50Z</time>
      </trkpt>
      <trkpt lat="44.78716" lon="-0.70331">
        <ele>44.2</ele>
        <time>2022-06-29T15:01:52Z</time>
      </trkpt>
      <trkpt lat="44.7874" lon="-0.70359">
        <ele>45</ele>
        <time>2022-06-29T15:01:57Z</time>
      </trkpt>
      <trkpt lat="44.7875" lon="-0.70369">
        <ele>45.2</ele>
        <time>2022-06-29T15:01:59Z</time>
      </trkpt>
      <trkpt lat="44.78769" lon="-0.70391">
        <ele>45</ele>
        <time>2022-06-29T15:02:03Z</time>
      </trkpt>
      <trkpt lat="44.78809" lon="-0.70435">
        <ele>45</ele>
        <time>2022-06-29T15:02:11Z</time>
      </trkpt>
      <trkpt lat="44.78835" lon="-0.70465">
        <ele>45.2</ele>
        <time>2022-06-29T15:02:17Z</time>
      </trkpt>
      <trkpt lat="44.78839" lon="-0.70468">
        <ele>45.2</ele>
        <time>2022-06-29T15:02:18Z</time>
      </trkpt>
      <trkpt lat="44.7885" lon="-0.70481">
        <ele>45.4</ele>
        <time>2022-06-29T15:02:21Z</time>
      </trkpt>
      <trkpt lat="44.78864" lon="-0.70499">
        <ele>45.4</ele>
        <time>2022-06-29T15:02:25Z</time>
      </trkpt>
      <trkpt lat="44.78865" lon="-0.70505">
        <ele>45.6</ele>
        <time>2022-06-29T15:02:26Z</time>
      </trkpt>
      <trkpt lat="44.78861" lon="-0.70515">
        <ele>46.2</ele>
        <time>2022-06-29T15:02:28Z</time>
      </trkpt>
      <trkpt lat="44.78856" lon="-0.7052">
        <ele>46.4</ele>
        <time>2022-06-29T15:02:29Z</time>
      </trkpt>
      <trkpt lat="44.78841" lon="-0.70525">
        <ele>46.8</ele>
        <time>2022-06-29T15:02:32Z</time>
      </trkpt>
      <trkpt lat="44.78836" lon="-0.70526">
        <ele>47</ele>
        <time>2022-06-29T15:02:33Z</time>
      </trkpt>
      <trkpt lat="44.78807" lon="-0.70532">
        <ele>47</ele>
        <time>2022-06-29T15:02:38Z</time>
      </trkpt>
      <trkpt lat="44.78795" lon="-0.70533">
        <ele>47.2</ele>
        <time>2022-06-29T15:02:40Z</time>
      </trkpt>
      <trkpt lat="44.78788" lon="-0.70535">
        <ele>47.4</ele>
        <time>2022-06-29T15:02:41Z</time>
      </trkpt>
      <trkpt lat="44.78776" lon="-0.70538">
        <ele>47.6</ele>
        <time>2022-06-29T15:02:43Z</time>
      </trkpt>
      <trkpt lat="44.78739" lon="-0.70545">
        <ele>47.8</ele>
        <time>2022-06-29T15:02:50Z</time>
      </trkpt>
      <trkpt lat="44.78733" lon="-0.70545">
        <ele>48.2</ele>
        <time>2022-06-29T15:02:52Z</time>
      </trkpt>
      <trkpt lat="44.78729" lon="-0.70546">
        <ele>48.4</ele>
        <time>2022-06-29T15:02:54Z</time>
      </trkpt>
      <trkpt lat="44.78722" lon="-0.70548">
        <ele>48.4</ele>
        <time>2022-06-29T15:02:59Z</time>
      </trkpt>
      <trkpt lat="44.78721" lon="-0.7055">
        <ele>48.2</ele>
        <time>2022-06-29T15:03:00Z</time>
      </trkpt>
      <trkpt lat="44.78722" lon="-0.70556">
        <ele>48.2</ele>
        <time>2022-06-29T15:03:03Z</time>
      </trkpt>
      <trkpt lat="44.78722" lon="-0.70557">
        <ele>48.2</ele>
        <time>2022-06-29T15:03:04Z</time>
      </trkpt>
      <trkpt lat="44.78723" lon="-0.70564">
        <ele>48</ele>
        <time>2022-06-29T15:03:06Z</time>
      </trkpt>
      <trkpt lat="44.78722" lon="-0.70571">
        <ele>48</ele>
        <time>2022-06-29T15:03:08Z</time>
      </trkpt>
      <trkpt lat="44.78716" lon="-0.70581">
        <ele>48.4</ele>
        <time>2022-06-29T15:03:11Z</time>
      </trkpt>
      <trkpt lat="44.78707" lon="-0.70599">
        <ele>48.4</ele>
        <time>2022-06-29T15:03:14Z</time>
      </trkpt>
      <trkpt lat="44.78694" lon="-0.70622">
        <ele>48.2</ele>
        <time>2022-06-29T15:03:18Z</time>
      </trkpt>
      <trkpt lat="44.78682" lon="-0.70637">
        <ele>48.2</ele>
        <time>2022-06-29T15:03:21Z</time>
      </trkpt>
      <trkpt lat="44.78651" lon="-0.70677">
        <ele>48.6</ele>
        <time>2022-06-29T15:03:29Z</time>
      </trkpt>
      <trkpt lat="44.78628" lon="-0.70713">
        <ele>48</ele>
        <time>2022-06-29T15:03:34Z</time>
      </trkpt>
      <trkpt lat="44.786" lon="-0.70752">
        <ele>47.6</ele>
        <time>2022-06-29T15:03:40Z</time>
      </trkpt>
      <trkpt lat="44.78586" lon="-0.70767">
        <ele>47.2</ele>
        <time>2022-06-29T15:03:43Z</time>
      </trkpt>
      <trkpt lat="44.78581" lon="-0.70771">
        <ele>47.2</ele>
        <time>2022-06-29T15:03:44Z</time>
      </trkpt>
      <trkpt lat="44.78571" lon="-0.70779">
        <ele>47.6</ele>
        <time>2022-06-29T15:03:46Z</time>
      </trkpt>
      <trkpt lat="44.78558" lon="-0.70796">
        <ele>47.8</ele>
        <time>2022-06-29T15:03:49Z</time>
      </trkpt>
      <trkpt lat="44.78551" lon="-0.70809">
        <ele>48</ele>
        <time>2022-06-29T15:03:51Z</time>
      </trkpt>
      <trkpt lat="44.78551" lon="-0.70831">
        <ele>48</ele>
        <time>2022-06-29T15:03:54Z</time>
      </trkpt>
      <trkpt lat="44.78548" lon="-0.70853">
        <ele>47.8</ele>
        <time>2022-06-29T15:03:58Z</time>
      </trkpt>
      <trkpt lat="44.78536" lon="-0.70874">
        <ele>47.6</ele>
        <time>2022-06-29T15:04:02Z</time>
      </trkpt>
      <trkpt lat="44.78517" lon="-0.70914">
        <ele>46.6</ele>
        <time>2022-06-29T15:04:08Z</time>
      </trkpt>
      <trkpt lat="44.78508" lon="-0.70934">
        <ele>46.2</ele>
        <time>2022-06-29T15:04:11Z</time>
      </trkpt>
      <trkpt lat="44.78502" lon="-0.70945">
        <ele>45.8</ele>
        <time>2022-06-29T15:04:13Z</time>
      </trkpt>
      <trkpt lat="44.78498" lon="-0.70951">
        <ele>45.8</ele>
        <time>2022-06-29T15:04:14Z</time>
      </trkpt>
      <trkpt lat="44.7847" lon="-0.70993">
        <ele>45.4</ele>
        <time>2022-06-29T15:04:21Z</time>
      </trkpt>
      <trkpt lat="44.78466" lon="-0.70999">
        <ele>45.2</ele>
        <time>2022-06-29T15:04:22Z</time>
      </trkpt>
      <trkpt lat="44.78438" lon="-0.71045">
        <ele>45.2</ele>
        <time>2022-06-29T15:04:29Z</time>
      </trkpt>
      <trkpt lat="44.78418" lon="-0.71081">
        <ele>45</ele>
        <time>2022-06-29T15:04:34Z</time>
      </trkpt>
      <trkpt lat="44.78414" lon="-0.71088">
        <ele>45.2</ele>
        <time>2022-06-29T15:04:35Z</time>
      </trkpt>
      <trkpt lat="44.78399" lon="-0.71116">
        <ele>45.4</ele>
        <time>2022-06-29T15:04:39Z</time>
      </trkpt>
      <trkpt lat="44.78388" lon="-0.71119">
        <ele>45.4</ele>
        <time>2022-06-29T15:04:41Z</time>
      </trkpt>
      <trkpt lat="44.78375" lon="-0.71107">
        <ele>45.6</ele>
        <time>2022-06-29T15:04:44Z</time>
      </trkpt>
      <trkpt lat="44.7837" lon="-0.71102">
        <ele>45.6</ele>
        <time>2022-06-29T15:04:45Z</time>
      </trkpt>
      <trkpt lat="44.78341" lon="-0.71068">
        <ele>44.4</ele>
        <time>2022-06-29T15:04:51Z</time>
      </trkpt>
      <trkpt lat="44.78326" lon="-0.7105">
        <ele>44</ele>
        <time>2022-06-29T15:04:54Z</time>
      </trkpt>
      <trkpt lat="44.783" lon="-0.71021">
        <ele>43.4</ele>
        <time>2022-06-29T15:04:59Z</time>
      </trkpt>
      <trkpt lat="44.78258" lon="-0.70975">
        <ele>44</ele>
        <time>2022-06-29T15:05:07Z</time>
      </trkpt>
      <trkpt lat="44.78227" lon="-0.70941">
        <ele>44</ele>
        <time>2022-06-29T15:05:13Z</time>
      </trkpt>
      <trkpt lat="44.78199" lon="-0.70909">
        <ele>43.4</ele>
        <time>2022-06-29T15:05:19Z</time>
      </trkpt>
      <trkpt lat="44.78195" lon="-0.70905">
        <ele>43.4</ele>
        <time>2022-06-29T15:05:20Z</time>
      </trkpt>
      <trkpt lat="44.78188" lon="-0.70892">
        <ele>43.2</ele>
        <time>2022-06-29T15:05:22Z</time>
      </trkpt>
      <trkpt lat="44.78186" lon="-0.70884">
        <ele>43</ele>
        <time>2022-06-29T15:05:23Z</time>
      </trkpt>
      <trkpt lat="44.78183" lon="-0.70877">
        <ele>43</ele>
        <time>2022-06-29T15:05:24Z</time>
      </trkpt>
      <trkpt lat="44.7818" lon="-0.70871">
        <ele>43</ele>
        <time>2022-06-29T15:05:25Z</time>
      </trkpt>
      <trkpt lat="44.78174" lon="-0.70861">
        <ele>43</ele>
        <time>2022-06-29T15:05:27Z</time>
      </trkpt>
      <trkpt lat="44.7817" lon="-0.70856">
        <ele>43</ele>
        <time>2022-06-29T15:05:28Z</time>
      </trkpt>
      <trkpt lat="44.78144" lon="-0.70828">
        <ele>42.2</ele>
        <time>2022-06-29T15:05:34Z</time>
      </trkpt>
      <trkpt lat="44.78136" lon="-0.70819">
        <ele>42</ele>
        <time>2022-06-29T15:05:36Z</time>
      </trkpt>
      <trkpt lat="44.78113" lon="-0.70794">
        <ele>41</ele>
        <time>2022-06-29T15:05:41Z</time>
      </trkpt>
      <trkpt lat="44.78108" lon="-0.7079">
        <ele>40.8</ele>
        <time>2022-06-29T15:05:42Z</time>
      </trkpt>
      <trkpt lat="44.78083" lon="-0.70764">
        <ele>40.4</ele>
        <time>2022-06-29T15:05:47Z</time>
      </trkpt>
      <trkpt lat="44.78079" lon="-0.70757">
        <ele>40.4</ele>
        <time>2022-06-29T15:05:48Z</time>
      </trkpt>
      <trkpt lat="44.78065" lon="-0.70742">
        <ele>39.8</ele>
        <time>2022-06-29T15:05:51Z</time>
      </trkpt>
      <trkpt lat="44.78061" lon="-0.70737">
        <ele>39.6</ele>
        <time>2022-06-29T15:05:52Z</time>
      </trkpt>
      <trkpt lat="44.78056" lon="-0.70732">
        <ele>39.4</ele>
        <time>2022-06-29T15:05:53Z</time>
      </trkpt>
      <trkpt lat="44.78042" lon="-0.70718">
        <ele>38.4</ele>
        <time>2022-06-29T15:05:56Z</time>
      </trkpt>
      <trkpt lat="44.78037" lon="-0.70713">
        <ele>38.4</ele>
        <time>2022-06-29T15:05:57Z</time>
      </trkpt>
      <trkpt lat="44.78018" lon="-0.70688">
        <ele>37.8</ele>
        <time>2022-06-29T15:06:02Z</time>
      </trkpt>
      <trkpt lat="44.78014" lon="-0.70683">
        <ele>37.6</ele>
        <time>2022-06-29T15:06:03Z</time>
      </trkpt>
      <trkpt lat="44.78006" lon="-0.70673">
        <ele>37.4</ele>
        <time>2022-06-29T15:06:05Z</time>
      </trkpt>
      <trkpt lat="44.7799" lon="-0.70655">
        <ele>36.8</ele>
        <time>2022-06-29T15:06:09Z</time>
      </trkpt>
      <trkpt lat="44.77969" lon="-0.70628">
        <ele>36.4</ele>
        <time>2022-06-29T15:06:14Z</time>
      </trkpt>
      <trkpt lat="44.77961" lon="-0.70617">
        <ele>36.2</ele>
        <time>2022-06-29T15:06:16Z</time>
      </trkpt>
      <trkpt lat="44.77939" lon="-0.7058">
        <ele>35.8</ele>
        <time>2022-06-29T15:06:22Z</time>
      </trkpt>
      <trkpt lat="44.77924" lon="-0.70576">
        <ele>35</ele>
        <time>2022-06-29T15:06:25Z</time>
      </trkpt>
      <trkpt lat="44.77911" lon="-0.70588">
        <ele>35</ele>
        <time>2022-06-29T15:06:28Z</time>
      </trkpt>
      <trkpt lat="44.77898" lon="-0.70608">
        <ele>35</ele>
        <time>2022-06-29T15:06:32Z</time>
      </trkpt>
      <trkpt lat="44.77888" lon="-0.70629">
        <ele>34.6</ele>
        <time>2022-06-29T15:06:36Z</time>
      </trkpt>
      <trkpt lat="44.77885" lon="-0.70634">
        <ele>34.6</ele>
        <time>2022-06-29T15:06:37Z</time>
      </trkpt>
      <trkpt lat="44.77868" lon="-0.70665">
        <ele>34.6</ele>
        <time>2022-06-29T15:06:43Z</time>
      </trkpt>
      <trkpt lat="44.77849" lon="-0.70701">
        <ele>35.4</ele>
        <time>2022-06-29T15:06:50Z</time>
      </trkpt>
      <trkpt lat="44.77847" lon="-0.70707">
        <ele>35.4</ele>
        <time>2022-06-29T15:06:51Z</time>
      </trkpt>
      <trkpt lat="44.77839" lon="-0.70726">
        <ele>35.8</ele>
        <time>2022-06-29T15:06:55Z</time>
      </trkpt>
      <trkpt lat="44.77837" lon="-0.70728">
        <ele>36.4</ele>
        <time>2022-06-29T15:06:56Z</time>
      </trkpt>
      <trkpt lat="44.77835" lon="-0.7073">
        <ele>36.8</ele>
        <time>2022-06-29T15:06:57Z</time>
      </trkpt>
      <trkpt lat="44.77831" lon="-0.70736">
        <ele>37.6</ele>
        <time>2022-06-29T15:06:59Z</time>
      </trkpt>
      <trkpt lat="44.77829" lon="-0.70739">
        <ele>38</ele>
        <time>2022-06-29T15:07:00Z</time>
      </trkpt>
      <trkpt lat="44.77816" lon="-0.70753">
        <ele>38.6</ele>
        <time>2022-06-29T15:07:04Z</time>
      </trkpt>
      <trkpt lat="44.77811" lon="-0.70759">
        <ele>38.8</ele>
        <time>2022-06-29T15:07:05Z</time>
      </trkpt>
      <trkpt lat="44.778" lon="-0.70776">
        <ele>40</ele>
        <time>2022-06-29T15:07:08Z</time>
      </trkpt>
      <trkpt lat="44.77798" lon="-0.70782">
        <ele>40</ele>
        <time>2022-06-29T15:07:09Z</time>
      </trkpt>
      <trkpt lat="44.77795" lon="-0.70788">
        <ele>39.8</ele>
        <time>2022-06-29T15:07:10Z</time>
      </trkpt>
      <trkpt lat="44.7779" lon="-0.70799">
        <ele>39.8</ele>
        <time>2022-06-29T15:07:12Z</time>
      </trkpt>
      <trkpt lat="44.77783" lon="-0.70807">
        <ele>40</ele>
        <time>2022-06-29T15:07:14Z</time>
      </trkpt>
      <trkpt lat="44.77766" lon="-0.70833">
        <ele>39.4</ele>
        <time>2022-06-29T15:07:19Z</time>
      </trkpt>
      <trkpt lat="44.7776" lon="-0.70847">
        <ele>39.6</ele>
        <time>2022-06-29T15:07:21Z</time>
      </trkpt>
      <trkpt lat="44.77752" lon="-0.70868">
        <ele>39.4</ele>
        <time>2022-06-29T15:07:24Z</time>
      </trkpt>
      <trkpt lat="44.77749" lon="-0.70874">
        <ele>39.2</ele>
        <time>2022-06-29T15:07:25Z</time>
      </trkpt>
      <trkpt lat="44.77737" lon="-0.70887">
        <ele>39</ele>
        <time>2022-06-29T15:07:28Z</time>
      </trkpt>
      <trkpt lat="44.77734" lon="-0.70893">
        <ele>38.8</ele>
        <time>2022-06-29T15:07:29Z</time>
      </trkpt>
      <trkpt lat="44.77727" lon="-0.70905">
        <ele>38.8</ele>
        <time>2022-06-29T15:07:31Z</time>
      </trkpt>
      <trkpt lat="44.77721" lon="-0.70917">
        <ele>38.4</ele>
        <time>2022-06-29T15:07:33Z</time>
      </trkpt>
      <trkpt lat="44.77715" lon="-0.70928">
        <ele>38</ele>
        <time>2022-06-29T15:07:35Z</time>
      </trkpt>
      <trkpt lat="44.77698" lon="-0.70953">
        <ele>37.8</ele>
        <time>2022-06-29T15:07:39Z</time>
      </trkpt>
      <trkpt lat="44.77681" lon="-0.70962">
        <ele>38.8</ele>
        <time>2022-06-29T15:07:42Z</time>
      </trkpt>
      <trkpt lat="44.77657" lon="-0.70962">
        <ele>38.8</ele>
        <time>2022-06-29T15:07:46Z</time>
      </trkpt>
      <trkpt lat="44.77653" lon="-0.70968">
        <ele>39.2</ele>
        <time>2022-06-29T15:07:47Z</time>
      </trkpt>
      <trkpt lat="44.77646" lon="-0.70978">
        <ele>39</ele>
        <time>2022-06-29T15:07:49Z</time>
      </trkpt>
      <trkpt lat="44.77643" lon="-0.70985">
        <ele>39</ele>
        <time>2022-06-29T15:07:52Z</time>
      </trkpt>
      <trkpt lat="44.7764" lon="-0.70989">
        <ele>39.8</ele>
        <time>2022-06-29T15:07:58Z</time>
      </trkpt>
      <trkpt lat="44.77636" lon="-0.70994">
        <ele>39.8</ele>
        <time>2022-06-29T15:08:00Z</time>
      </trkpt>
      <trkpt lat="44.77627" lon="-0.71011">
        <ele>40</ele>
        <time>2022-06-29T15:08:04Z</time>
      </trkpt>
      <trkpt lat="44.77611" lon="-0.71046">
        <ele>40</ele>
        <time>2022-06-29T15:08:10Z</time>
      </trkpt>
      <trkpt lat="44.77607" lon="-0.71051">
        <ele>40.2</ele>
        <time>2022-06-29T15:08:11Z</time>
      </trkpt>
      <trkpt lat="44.77592" lon="-0.71081">
        <ele>41.2</ele>
        <time>2022-06-29T15:08:16Z</time>
      </trkpt>
      <trkpt lat="44.77588" lon="-0.71087">
        <ele>41.2</ele>
        <time>2022-06-29T15:08:17Z</time>
      </trkpt>
      <trkpt lat="44.77571" lon="-0.71121">
        <ele>41.8</ele>
        <time>2022-06-29T15:08:22Z</time>
      </trkpt>
      <trkpt lat="44.77563" lon="-0.71134">
        <ele>42.4</ele>
        <time>2022-06-29T15:08:24Z</time>
      </trkpt>
      <trkpt lat="44.77541" lon="-0.71176">
        <ele>43.4</ele>
        <time>2022-06-29T15:08:30Z</time>
      </trkpt>
      <trkpt lat="44.77537" lon="-0.71183">
        <ele>43.4</ele>
        <time>2022-06-29T15:08:31Z</time>
      </trkpt>
      <trkpt lat="44.77516" lon="-0.71223">
        <ele>44.4</ele>
        <time>2022-06-29T15:08:37Z</time>
      </trkpt>
      <trkpt lat="44.7751" lon="-0.71236">
        <ele>44.4</ele>
        <time>2022-06-29T15:08:39Z</time>
      </trkpt>
      <trkpt lat="44.77492" lon="-0.71273">
        <ele>44.6</ele>
        <time>2022-06-29T15:08:45Z</time>
      </trkpt>
      <trkpt lat="44.77488" lon="-0.71279">
        <ele>44.8</ele>
        <time>2022-06-29T15:08:46Z</time>
      </trkpt>
      <trkpt lat="44.77468" lon="-0.71311">
        <ele>45.2</ele>
        <time>2022-06-29T15:08:51Z</time>
      </trkpt>
      <trkpt lat="44.77443" lon="-0.71353">
        <ele>45.6</ele>
        <time>2022-06-29T15:08:57Z</time>
      </trkpt>
      <trkpt lat="44.77426" lon="-0.71381">
        <ele>45.4</ele>
        <time>2022-06-29T15:09:01Z</time>
      </trkpt>
      <trkpt lat="44.77399" lon="-0.71425">
        <ele>45.6</ele>
        <time>2022-06-29T15:09:08Z</time>
      </trkpt>
      <trkpt lat="44.77383" lon="-0.71455">
        <ele>45.4</ele>
        <time>2022-06-29T15:09:14Z</time>
      </trkpt>
      <trkpt lat="44.7738" lon="-0.7146">
        <ele>45.6</ele>
        <time>2022-06-29T15:09:17Z</time>
      </trkpt>
      <trkpt lat="44.7737" lon="-0.71476">
        <ele>46.4</ele>
        <time>2022-06-29T15:09:21Z</time>
      </trkpt>
      <trkpt lat="44.77349" lon="-0.71513">
        <ele>45.4</ele>
        <time>2022-06-29T15:09:27Z</time>
      </trkpt>
      <trkpt lat="44.7732" lon="-0.71563">
        <ele>45</ele>
        <time>2022-06-29T15:09:34Z</time>
      </trkpt>
      <trkpt lat="44.77292" lon="-0.71616">
        <ele>44.8</ele>
        <time>2022-06-29T15:09:41Z</time>
      </trkpt>
      <trkpt lat="44.77287" lon="-0.71622">
        <ele>44.8</ele>
        <time>2022-06-29T15:09:42Z</time>
      </trkpt>
      <trkpt lat="44.77275" lon="-0.7163">
        <ele>44.6</ele>
        <time>2022-06-29T15:09:44Z</time>
      </trkpt>
      <trkpt lat="44.77262" lon="-0.71632">
        <ele>44.4</ele>
        <time>2022-06-29T15:09:46Z</time>
      </trkpt>
      <trkpt lat="44.77243" lon="-0.71629">
        <ele>44.4</ele>
        <time>2022-06-29T15:09:49Z</time>
      </trkpt>
      <trkpt lat="44.77216" lon="-0.71626">
        <ele>45.8</ele>
        <time>2022-06-29T15:09:53Z</time>
      </trkpt>
      <trkpt lat="44.77204" lon="-0.71626">
        <ele>45.8</ele>
        <time>2022-06-29T15:09:55Z</time>
      </trkpt>
      <trkpt lat="44.77188" lon="-0.71623">
        <ele>46</ele>
        <time>2022-06-29T15:09:59Z</time>
      </trkpt>
      <trkpt lat="44.77182" lon="-0.71621">
        <ele>46.6</ele>
        <time>2022-06-29T15:10:02Z</time>
      </trkpt>
      <trkpt lat="44.77182" lon="-0.71626">
        <ele>46.8</ele>
        <time>2022-06-29T15:10:04Z</time>
      </trkpt>
      <trkpt lat="44.77187" lon="-0.71625">
        <ele>46.2</ele>
        <time>2022-06-29T15:10:07Z</time>
      </trkpt>
      <trkpt lat="44.7719" lon="-0.71625">
        <ele>45.8</ele>
        <time>2022-06-29T15:10:08Z</time>
      </trkpt>
      <trkpt lat="44.77204" lon="-0.71627">
        <ele>45.8</ele>
        <time>2022-06-29T15:10:12Z</time>
      </trkpt>
      <trkpt lat="44.77232" lon="-0.71629">
        <ele>45.6</ele>
        <time>2022-06-29T15:10:19Z</time>
      </trkpt>
      <trkpt lat="44.7724" lon="-0.71631">
        <ele>46</ele>
        <time>2022-06-29T15:10:23Z</time>
      </trkpt>
      <trkpt lat="44.77241" lon="-0.7163">
        <ele>46.2</ele>
        <time>2022-06-29T15:10:24Z</time>
      </trkpt>
      <trkpt lat="44.77239" lon="-0.71628">
        <ele>46.8</ele>
        <time>2022-06-29T15:10:26Z</time>
      </trkpt>
      <trkpt lat="44.77239" lon="-0.7163">
        <ele>47</ele>
        <time>2022-06-29T15:10:27Z</time>
      </trkpt>
      <trkpt lat="44.77238" lon="-0.71632">
        <ele>47</ele>
        <time>2022-06-29T15:10:28Z</time>
      </trkpt>
      <trkpt lat="44.77238" lon="-0.71639">
        <ele>47</ele>
        <time>2022-06-29T15:10:31Z</time>
      </trkpt>
      <trkpt lat="44.77233" lon="-0.71658">
        <ele>46.6</ele>
        <time>2022-06-29T15:10:37Z</time>
      </trkpt>
      <trkpt lat="44.77229" lon="-0.71666">
        <ele>45.8</ele>
        <time>2022-06-29T15:10:40Z</time>
      </trkpt>
      <trkpt lat="44.77226" lon="-0.7167">
        <ele>45.6</ele>
        <time>2022-06-29T15:10:42Z</time>
      </trkpt>
      <trkpt lat="44.77223" lon="-0.7168">
        <ele>45</ele>
        <time>2022-06-29T15:10:45Z</time>
      </trkpt>
      <trkpt lat="44.77223" lon="-0.71685">
        <ele>44.2</ele>
        <time>2022-06-29T15:10:46Z</time>
      </trkpt>
      <trkpt lat="44.77222" lon="-0.7169">
        <ele>44.2</ele>
        <time>2022-06-29T15:10:47Z</time>
      </trkpt>
      <trkpt lat="44.77222" lon="-0.717">
        <ele>43</ele>
        <time>2022-06-29T15:10:49Z</time>
      </trkpt>
      <trkpt lat="44.7722" lon="-0.71713">
        <ele>42</ele>
        <time>2022-06-29T15:10:52Z</time>
      </trkpt>
      <trkpt lat="44.77215" lon="-0.71726">
        <ele>40.8</ele>
        <time>2022-06-29T15:10:56Z</time>
      </trkpt>
      <trkpt lat="44.77211" lon="-0.71735">
        <ele>41.4</ele>
        <time>2022-06-29T15:10:58Z</time>
      </trkpt>
      <trkpt lat="44.77209" lon="-0.71741">
        <ele>42</ele>
        <time>2022-06-29T15:11:00Z</time>
      </trkpt>
      <trkpt lat="44.77207" lon="-0.71742">
        <ele>47.2</ele>
        <time>2022-06-29T15:11:32Z</time>
      </trkpt>
      <trkpt lat="44.77209" lon="-0.71738">
        <ele>48.2</ele>
        <time>2022-06-29T15:11:34Z</time>
      </trkpt>
      <trkpt lat="44.7721" lon="-0.71735">
        <ele>48.4</ele>
        <time>2022-06-29T15:11:35Z</time>
      </trkpt>
      <trkpt lat="44.77213" lon="-0.71721">
        <ele>49.4</ele>
        <time>2022-06-29T15:11:39Z</time>
      </trkpt>
      <trkpt lat="44.77212" lon="-0.71718">
        <ele>49.6</ele>
        <time>2022-06-29T15:11:40Z</time>
      </trkpt>
      <trkpt lat="44.77211" lon="-0.71708">
        <ele>50.6</ele>
        <time>2022-06-29T15:11:43Z</time>
      </trkpt>
      <trkpt lat="44.77211" lon="-0.71696">
        <ele>51.6</ele>
        <time>2022-06-29T15:11:46Z</time>
      </trkpt>
      <trkpt lat="44.77213" lon="-0.71688">
        <ele>51.8</ele>
        <time>2022-06-29T15:11:48Z</time>
      </trkpt>
      <trkpt lat="44.77217" lon="-0.71682">
        <ele>51.8</ele>
        <time>2022-06-29T15:11:50Z</time>
      </trkpt>
      <trkpt lat="44.77225" lon="-0.71671">
        <ele>52.4</ele>
        <time>2022-06-29T15:11:53Z</time>
      </trkpt>
      <trkpt lat="44.77226" lon="-0.71668">
        <ele>52.6</ele>
        <time>2022-06-29T15:11:54Z</time>
      </trkpt>
      <trkpt lat="44.77234" lon="-0.71648">
        <ele>52.8</ele>
        <time>2022-06-29T15:11:59Z</time>
      </trkpt>
      <trkpt lat="44.77237" lon="-0.71634">
        <ele>52.8</ele>
        <time>2022-06-29T15:12:03Z</time>
      </trkpt>
      <trkpt lat="44.7723" lon="-0.71631">
        <ele>51.2</ele>
        <time>2022-06-29T15:12:06Z</time>
      </trkpt>
      <trkpt lat="44.77223" lon="-0.71629">
        <ele>50.4</ele>
        <time>2022-06-29T15:12:08Z</time>
      </trkpt>
      <trkpt lat="44.7722" lon="-0.71628">
        <ele>49.8</ele>
        <time>2022-06-29T15:12:09Z</time>
      </trkpt>
      <trkpt lat="44.77212" lon="-0.71627">
        <ele>49.4</ele>
        <time>2022-06-29T15:12:11Z</time>
      </trkpt>
      <trkpt lat="44.77183" lon="-0.71625">
        <ele>49</ele>
        <time>2022-06-29T15:12:17Z</time>
      </trkpt>
      <trkpt lat="44.77132" lon="-0.71619">
        <ele>48.8</ele>
        <time>2022-06-29T15:12:26Z</time>
      </trkpt>
      <trkpt lat="44.77126" lon="-0.71619">
        <ele>48.8</ele>
        <time>2022-06-29T15:12:27Z</time>
      </trkpt>
      <trkpt lat="44.77084" lon="-0.71615">
        <ele>48</ele>
        <time>2022-06-29T15:12:35Z</time>
      </trkpt>
      <trkpt lat="44.77062" lon="-0.71615">
        <ele>48</ele>
        <time>2022-06-29T15:12:40Z</time>
      </trkpt>
      <trkpt lat="44.77058" lon="-0.71616">
        <ele>48</ele>
        <time>2022-06-29T15:12:41Z</time>
      </trkpt>
      <trkpt lat="44.77048" lon="-0.71626">
        <ele>48.2</ele>
        <time>2022-06-29T15:12:44Z</time>
      </trkpt>
      <trkpt lat="44.77044" lon="-0.71631">
        <ele>48.4</ele>
        <time>2022-06-29T15:12:45Z</time>
      </trkpt>
      <trkpt lat="44.77034" lon="-0.71646">
        <ele>48.8</ele>
        <time>2022-06-29T15:12:48Z</time>
      </trkpt>
      <trkpt lat="44.77026" lon="-0.71656">
        <ele>49.4</ele>
        <time>2022-06-29T15:12:50Z</time>
      </trkpt>
      <trkpt lat="44.77022" lon="-0.7166">
        <ele>49.4</ele>
        <time>2022-06-29T15:12:51Z</time>
      </trkpt>
      <trkpt lat="44.77013" lon="-0.71663">
        <ele>49.4</ele>
        <time>2022-06-29T15:12:53Z</time>
      </trkpt>
      <trkpt lat="44.76997" lon="-0.71656">
        <ele>49.4</ele>
        <time>2022-06-29T15:12:56Z</time>
      </trkpt>
      <trkpt lat="44.76987" lon="-0.71646">
        <ele>49.2</ele>
        <time>2022-06-29T15:12:58Z</time>
      </trkpt>
      <trkpt lat="44.76973" lon="-0.71629">
        <ele>49.2</ele>
        <time>2022-06-29T15:13:01Z</time>
      </trkpt>
      <trkpt lat="44.7693" lon="-0.7158">
        <ele>49.2</ele>
        <time>2022-06-29T15:13:10Z</time>
      </trkpt>
      <trkpt lat="44.76926" lon="-0.71574">
        <ele>49.4</ele>
        <time>2022-06-29T15:13:11Z</time>
      </trkpt>
      <trkpt lat="44.76896" lon="-0.71542">
        <ele>49.8</ele>
        <time>2022-06-29T15:13:17Z</time>
      </trkpt>
      <trkpt lat="44.76887" lon="-0.71531">
        <ele>49.8</ele>
        <time>2022-06-29T15:13:19Z</time>
      </trkpt>
      <trkpt lat="44.76853" lon="-0.71492">
        <ele>49.6</ele>
        <time>2022-06-29T15:13:26Z</time>
      </trkpt>
      <trkpt lat="44.76819" lon="-0.71452">
        <ele>48.6</ele>
        <time>2022-06-29T15:13:33Z</time>
      </trkpt>
      <trkpt lat="44.7681" lon="-0.71441">
        <ele>48.8</ele>
        <time>2022-06-29T15:13:35Z</time>
      </trkpt>
      <trkpt lat="44.76772" lon="-0.71395">
        <ele>47.8</ele>
        <time>2022-06-29T15:13:43Z</time>
      </trkpt>
      <trkpt lat="44.76741" lon="-0.71356">
        <ele>47.6</ele>
        <time>2022-06-29T15:13:50Z</time>
      </trkpt>
      <trkpt lat="44.76704" lon="-0.71312">
        <ele>46.6</ele>
        <time>2022-06-29T15:13:58Z</time>
      </trkpt>
      <trkpt lat="44.7669" lon="-0.71296">
        <ele>46.4</ele>
        <time>2022-06-29T15:14:01Z</time>
      </trkpt>
      <trkpt lat="44.7668" lon="-0.71284">
        <ele>45.6</ele>
        <time>2022-06-29T15:14:03Z</time>
      </trkpt>
      <trkpt lat="44.76655" lon="-0.71256">
        <ele>45.2</ele>
        <time>2022-06-29T15:14:08Z</time>
      </trkpt>
      <trkpt lat="44.76641" lon="-0.71241">
        <ele>45.4</ele>
        <time>2022-06-29T15:14:11Z</time>
      </trkpt>
      <trkpt lat="44.76627" lon="-0.7123">
        <ele>45</ele>
        <time>2022-06-29T15:14:14Z</time>
      </trkpt>
      <trkpt lat="44.76621" lon="-0.71229">
        <ele>45</ele>
        <time>2022-06-29T15:14:15Z</time>
      </trkpt>
      <trkpt lat="44.76609" lon="-0.71244">
        <ele>45</ele>
        <time>2022-06-29T15:14:18Z</time>
      </trkpt>
      <trkpt lat="44.76607" lon="-0.71268">
        <ele>44.8</ele>
        <time>2022-06-29T15:14:21Z</time>
      </trkpt>
      <trkpt lat="44.76615" lon="-0.71299">
        <ele>44.4</ele>
        <time>2022-06-29T15:14:25Z</time>
      </trkpt>
      <trkpt lat="44.76617" lon="-0.71307">
        <ele>44.4</ele>
        <time>2022-06-29T15:14:26Z</time>
      </trkpt>
      <trkpt lat="44.76622" lon="-0.71339">
        <ele>45</ele>
        <time>2022-06-29T15:14:30Z</time>
      </trkpt>
      <trkpt lat="44.76617" lon="-0.71368">
        <ele>45</ele>
        <time>2022-06-29T15:14:34Z</time>
      </trkpt>
      <trkpt lat="44.76608" lon="-0.71374">
        <ele>45.6</ele>
        <time>2022-06-29T15:14:37Z</time>
      </trkpt>
      <trkpt lat="44.76607" lon="-0.71373">
        <ele>46</ele>
        <time>2022-06-29T15:14:45Z</time>
      </trkpt>
      <trkpt lat="44.76605" lon="-0.71372">
        <ele>46.2</ele>
        <time>2022-06-29T15:14:46Z</time>
      </trkpt>
      <trkpt lat="44.76602" lon="-0.71371">
        <ele>46.4</ele>
        <time>2022-06-29T15:14:47Z</time>
      </trkpt>
      <trkpt lat="44.76595" lon="-0.71367">
        <ele>46.4</ele>
        <time>2022-06-29T15:14:49Z</time>
      </trkpt>
      <trkpt lat="44.76591" lon="-0.71363">
        <ele>46.2</ele>
        <time>2022-06-29T15:14:50Z</time>
      </trkpt>
      <trkpt lat="44.76563" lon="-0.71333">
        <ele>46.2</ele>
        <time>2022-06-29T15:14:56Z</time>
      </trkpt>
      <trkpt lat="44.76545" lon="-0.71312">
        <ele>47.6</ele>
        <time>2022-06-29T15:15:00Z</time>
      </trkpt>
      <trkpt lat="44.76536" lon="-0.71302">
        <ele>48.6</ele>
        <time>2022-06-29T15:15:02Z</time>
      </trkpt>
      <trkpt lat="44.76532" lon="-0.71297">
        <ele>49.2</ele>
        <time>2022-06-29T15:15:03Z</time>
      </trkpt>
      <trkpt lat="44.76528" lon="-0.71293">
        <ele>49.8</ele>
        <time>2022-06-29T15:15:04Z</time>
      </trkpt>
      <trkpt lat="44.76514" lon="-0.71278">
        <ele>51</ele>
        <time>2022-06-29T15:15:07Z</time>
      </trkpt>
      <trkpt lat="44.765" lon="-0.71264">
        <ele>52.2</ele>
        <time>2022-06-29T15:15:10Z</time>
      </trkpt>
      <trkpt lat="44.76465" lon="-0.71225">
        <ele>52.2</ele>
        <time>2022-06-29T15:15:17Z</time>
      </trkpt>
      <trkpt lat="44.76448" lon="-0.71201">
        <ele>51</ele>
        <time>2022-06-29T15:15:20Z</time>
      </trkpt>
      <trkpt lat="44.76438" lon="-0.71182">
        <ele>50.2</ele>
        <time>2022-06-29T15:15:22Z</time>
      </trkpt>
      <trkpt lat="44.76433" lon="-0.71172">
        <ele>49.8</ele>
        <time>2022-06-29T15:15:23Z</time>
      </trkpt>
      <trkpt lat="44.76415" lon="-0.71124">
        <ele>48.4</ele>
        <time>2022-06-29T15:15:27Z</time>
      </trkpt>
      <trkpt lat="44.76412" lon="-0.71111">
        <ele>47.8</ele>
        <time>2022-06-29T15:15:28Z</time>
      </trkpt>
      <trkpt lat="44.76408" lon="-0.71088">
        <ele>47.4</ele>
        <time>2022-06-29T15:15:30Z</time>
      </trkpt>
      <trkpt lat="44.76407" lon="-0.7108">
        <ele>47.2</ele>
        <time>2022-06-29T15:15:31Z</time>
      </trkpt>
      <trkpt lat="44.76404" lon="-0.71044">
        <ele>46.6</ele>
        <time>2022-06-29T15:15:36Z</time>
      </trkpt>
      <trkpt lat="44.76401" lon="-0.71004">
        <ele>46.8</ele>
        <time>2022-06-29T15:15:42Z</time>
      </trkpt>
      <trkpt lat="44.76397" lon="-0.7098">
        <ele>47.6</ele>
        <time>2022-06-29T15:15:45Z</time>
      </trkpt>
      <trkpt lat="44.76391" lon="-0.70964">
        <ele>48</ele>
        <time>2022-06-29T15:15:47Z</time>
      </trkpt>
      <trkpt lat="44.76381" lon="-0.70943">
        <ele>48.2</ele>
        <time>2022-06-29T15:15:50Z</time>
      </trkpt>
      <trkpt lat="44.76372" lon="-0.7093">
        <ele>48.2</ele>
        <time>2022-06-29T15:15:52Z</time>
      </trkpt>
      <trkpt lat="44.7635" lon="-0.70902">
        <ele>48.4</ele>
        <time>2022-06-29T15:15:57Z</time>
      </trkpt>
      <trkpt lat="44.76346" lon="-0.70896">
        <ele>48.4</ele>
        <time>2022-06-29T15:15:58Z</time>
      </trkpt>
      <trkpt lat="44.76312" lon="-0.70856">
        <ele>47.8</ele>
        <time>2022-06-29T15:16:05Z</time>
      </trkpt>
      <trkpt lat="44.76283" lon="-0.70821">
        <ele>47.8</ele>
        <time>2022-06-29T15:16:12Z</time>
      </trkpt>
      <trkpt lat="44.76271" lon="-0.70808">
        <ele>47.4</ele>
        <time>2022-06-29T15:16:15Z</time>
      </trkpt>
      <trkpt lat="44.7626" lon="-0.70796">
        <ele>47</ele>
        <time>2022-06-29T15:16:18Z</time>
      </trkpt>
      <trkpt lat="44.76253" lon="-0.70792">
        <ele>46.8</ele>
        <time>2022-06-29T15:16:20Z</time>
      </trkpt>
      <trkpt lat="44.7625" lon="-0.70792">
        <ele>46.8</ele>
        <time>2022-06-29T15:16:21Z</time>
      </trkpt>
      <trkpt lat="44.76248" lon="-0.70794">
        <ele>46.2</ele>
        <time>2022-06-29T15:16:22Z</time>
      </trkpt>
      <trkpt lat="44.76244" lon="-0.70803">
        <ele>45.6</ele>
        <time>2022-06-29T15:16:24Z</time>
      </trkpt>
      <trkpt lat="44.76242" lon="-0.70808">
        <ele>45.2</ele>
        <time>2022-06-29T15:16:25Z</time>
      </trkpt>
      <trkpt lat="44.76234" lon="-0.70824">
        <ele>43.8</ele>
        <time>2022-06-29T15:16:28Z</time>
      </trkpt>
      <trkpt lat="44.76227" lon="-0.70838">
        <ele>43.2</ele>
        <time>2022-06-29T15:16:30Z</time>
      </trkpt>
      <trkpt lat="44.7622" lon="-0.70852">
        <ele>42.6</ele>
        <time>2022-06-29T15:16:32Z</time>
      </trkpt>
      <trkpt lat="44.7621" lon="-0.7087">
        <ele>41.2</ele>
        <time>2022-06-29T15:16:35Z</time>
      </trkpt>
      <trkpt lat="44.76198" lon="-0.70894">
        <ele>40</ele>
        <time>2022-06-29T15:16:38Z</time>
      </trkpt>
      <trkpt lat="44.76194" lon="-0.70903">
        <ele>39.6</ele>
        <time>2022-06-29T15:16:39Z</time>
      </trkpt>
      <trkpt lat="44.76186" lon="-0.7092">
        <ele>38.8</ele>
        <time>2022-06-29T15:16:41Z</time>
      </trkpt>
      <trkpt lat="44.76173" lon="-0.70946">
        <ele>37.4</ele>
        <time>2022-06-29T15:16:44Z</time>
      </trkpt>
      <trkpt lat="44.76169" lon="-0.70954">
        <ele>36.8</ele>
        <time>2022-06-29T15:16:45Z</time>
      </trkpt>
      <trkpt lat="44.7616" lon="-0.70972">
        <ele>36</ele>
        <time>2022-06-29T15:16:47Z</time>
      </trkpt>
      <trkpt lat="44.76151" lon="-0.70988">
        <ele>35.4</ele>
        <time>2022-06-29T15:16:49Z</time>
      </trkpt>
      <trkpt lat="44.76146" lon="-0.70996">
        <ele>35</ele>
        <time>2022-06-29T15:16:50Z</time>
      </trkpt>
      <trkpt lat="44.76133" lon="-0.71021">
        <ele>34</ele>
        <time>2022-06-29T15:16:53Z</time>
      </trkpt>
      <trkpt lat="44.76125" lon="-0.71037">
        <ele>33.2</ele>
        <time>2022-06-29T15:16:55Z</time>
      </trkpt>
      <trkpt lat="44.76121" lon="-0.71045">
        <ele>33</ele>
        <time>2022-06-29T15:16:56Z</time>
      </trkpt>
      <trkpt lat="44.76106" lon="-0.71072">
        <ele>31.8</ele>
        <time>2022-06-29T15:17:00Z</time>
      </trkpt>
      <trkpt lat="44.76103" lon="-0.71079">
        <ele>31.2</ele>
        <time>2022-06-29T15:17:01Z</time>
      </trkpt>
      <trkpt lat="44.76097" lon="-0.71093">
        <ele>30.6</ele>
        <time>2022-06-29T15:17:03Z</time>
      </trkpt>
      <trkpt lat="44.76091" lon="-0.71106">
        <ele>30.2</ele>
        <time>2022-06-29T15:17:05Z</time>
      </trkpt>
      <trkpt lat="44.7608" lon="-0.71123">
        <ele>29.4</ele>
        <time>2022-06-29T15:17:08Z</time>
      </trkpt>
      <trkpt lat="44.76077" lon="-0.71129">
        <ele>29</ele>
        <time>2022-06-29T15:17:09Z</time>
      </trkpt>
      <trkpt lat="44.76073" lon="-0.7114">
        <ele>28</ele>
        <time>2022-06-29T15:17:11Z</time>
      </trkpt>
      <trkpt lat="44.76067" lon="-0.71157">
        <ele>26.6</ele>
        <time>2022-06-29T15:17:14Z</time>
      </trkpt>
      <trkpt lat="44.76067" lon="-0.71174">
        <ele>25.6</ele>
        <time>2022-06-29T15:17:16Z</time>
      </trkpt>
      <trkpt lat="44.76069" lon="-0.71191">
        <ele>24.4</ele>
        <time>2022-06-29T15:17:18Z</time>
      </trkpt>
      <trkpt lat="44.76074" lon="-0.71215">
        <ele>23.6</ele>
        <time>2022-06-29T15:17:21Z</time>
      </trkpt>
      <trkpt lat="44.76076" lon="-0.71224">
        <ele>23.4</ele>
        <time>2022-06-29T15:17:22Z</time>
      </trkpt>
      <trkpt lat="44.76078" lon="-0.7123">
        <ele>23.2</ele>
        <time>2022-06-29T15:17:23Z</time>
      </trkpt>
      <trkpt lat="44.76081" lon="-0.71234">
        <ele>23.2</ele>
        <time>2022-06-29T15:17:24Z</time>
      </trkpt>
      <trkpt lat="44.76093" lon="-0.71242">
        <ele>22.2</ele>
        <time>2022-06-29T15:17:28Z</time>
      </trkpt>
      <trkpt lat="44.76102" lon="-0.71238">
        <ele>20.8</ele>
        <time>2022-06-29T15:17:31Z</time>
      </trkpt>
      <trkpt lat="44.76109" lon="-0.71236">
        <ele>19.6</ele>
        <time>2022-06-29T15:17:33Z</time>
      </trkpt>
      <trkpt lat="44.76115" lon="-0.71238">
        <ele>18.2</ele>
        <time>2022-06-29T15:17:35Z</time>
      </trkpt>
      <trkpt lat="44.76119" lon="-0.7124">
        <ele>17.4</ele>
        <time>2022-06-29T15:17:36Z</time>
      </trkpt>
      <trkpt lat="44.76124" lon="-0.71242">
        <ele>16.8</ele>
        <time>2022-06-29T15:17:37Z</time>
      </trkpt>
      <trkpt lat="44.76131" lon="-0.71245">
        <ele>15</ele>
        <time>2022-06-29T15:17:39Z</time>
      </trkpt>
      <trkpt lat="44.76135" lon="-0.71248">
        <ele>14.2</ele>
        <time>2022-06-29T15:17:40Z</time>
      </trkpt>
      <trkpt lat="44.76139" lon="-0.71252">
        <ele>13.4</ele>
        <time>2022-06-29T15:17:41Z</time>
      </trkpt>
      <trkpt lat="44.76146" lon="-0.7126">
        <ele>12</ele>
        <time>2022-06-29T15:17:43Z</time>
      </trkpt>
      <trkpt lat="44.76149" lon="-0.71266">
        <ele>11.4</ele>
        <time>2022-06-29T15:17:44Z</time>
      </trkpt>
      <trkpt lat="44.76152" lon="-0.7127">
        <ele>10.8</ele>
        <time>2022-06-29T15:17:45Z</time>
      </trkpt>
      <trkpt lat="44.76158" lon="-0.71282">
        <ele>9.4</ele>
        <time>2022-06-29T15:17:48Z</time>
      </trkpt>
      <trkpt lat="44.76159" lon="-0.71285">
        <ele>9</ele>
        <time>2022-06-29T15:17:49Z</time>
      </trkpt>
      <trkpt lat="44.76162" lon="-0.71292">
        <ele>8</ele>
        <time>2022-06-29T15:17:51Z</time>
      </trkpt>
      <trkpt lat="44.76167" lon="-0.71307">
        <ele>7.2</ele>
        <time>2022-06-29T15:17:54Z</time>
      </trkpt>
      <trkpt lat="44.76169" lon="-0.71312">
        <ele>6.8</ele>
        <time>2022-06-29T15:17:55Z</time>
      </trkpt>
      <trkpt lat="44.76173" lon="-0.71324">
        <ele>6.4</ele>
        <time>2022-06-29T15:17:57Z</time>
      </trkpt>
      <trkpt lat="44.76178" lon="-0.71343">
        <ele>6</ele>
        <time>2022-06-29T15:18:00Z</time>
      </trkpt>
      <trkpt lat="44.7618" lon="-0.71361">
        <ele>6.2</ele>
        <time>2022-06-29T15:18:04Z</time>
      </trkpt>
      <trkpt lat="44.76185" lon="-0.71392">
        <ele>6.8</ele>
        <time>2022-06-29T15:18:10Z</time>
      </trkpt>
      <trkpt lat="44.76185" lon="-0.71417">
        <ele>6.6</ele>
        <time>2022-06-29T15:18:13Z</time>
      </trkpt>
      <trkpt lat="44.76188" lon="-0.71429">
        <ele>6.6</ele>
        <time>2022-06-29T15:18:15Z</time>
      </trkpt>
      <trkpt lat="44.76201" lon="-0.7146">
        <ele>7.6</ele>
        <time>2022-06-29T15:18:22Z</time>
      </trkpt>
      <trkpt lat="44.76211" lon="-0.7149">
        <ele>7.2</ele>
        <time>2022-06-29T15:18:27Z</time>
      </trkpt>
      <trkpt lat="44.76213" lon="-0.71499">
        <ele>6.6</ele>
        <time>2022-06-29T15:18:28Z</time>
      </trkpt>
      <trkpt lat="44.76216" lon="-0.71516">
        <ele>5.2</ele>
        <time>2022-06-29T15:18:30Z</time>
      </trkpt>
      <trkpt lat="44.76219" lon="-0.71528">
        <ele>3.8</ele>
        <time>2022-06-29T15:18:32Z</time>
      </trkpt>
      <trkpt lat="44.76228" lon="-0.71538">
        <ele>3</ele>
        <time>2022-06-29T15:18:36Z</time>
      </trkpt>
      <trkpt lat="44.76229" lon="-0.71542">
        <ele>2.6</ele>
        <time>2022-06-29T15:18:37Z</time>
      </trkpt>
      <trkpt lat="44.76236" lon="-0.71557">
        <ele>1.8</ele>
        <time>2022-06-29T15:18:40Z</time>
      </trkpt>
      <trkpt lat="44.7624" lon="-0.7157">
        <ele>2.4</ele>
        <time>2022-06-29T15:18:49Z</time>
      </trkpt>
      <trkpt lat="44.76239" lon="-0.71581">
        <ele>3.6</ele>
        <time>2022-06-29T15:18:52Z</time>
      </trkpt>
      <trkpt lat="44.76236" lon="-0.71591">
        <ele>4.6</ele>
        <time>2022-06-29T15:18:55Z</time>
      </trkpt>
      <trkpt lat="44.76232" lon="-0.71605">
        <ele>5.6</ele>
        <time>2022-06-29T15:18:58Z</time>
      </trkpt>
      <trkpt lat="44.7623" lon="-0.71609">
        <ele>5.8</ele>
        <time>2022-06-29T15:18:59Z</time>
      </trkpt>
      <trkpt lat="44.76219" lon="-0.71628">
        <ele>6.2</ele>
        <time>2022-06-29T15:19:04Z</time>
      </trkpt>
      <trkpt lat="44.76211" lon="-0.71652">
        <ele>5.6</ele>
        <time>2022-06-29T15:19:09Z</time>
      </trkpt>
      <trkpt lat="44.76204" lon="-0.71677">
        <ele>6.2</ele>
        <time>2022-06-29T15:19:14Z</time>
      </trkpt>
      <trkpt lat="44.76196" lon="-0.71696">
        <ele>6.2</ele>
        <time>2022-06-29T15:19:19Z</time>
      </trkpt>
      <trkpt lat="44.76193" lon="-0.71704">
        <ele>6.6</ele>
        <time>2022-06-29T15:19:21Z</time>
      </trkpt>
      <trkpt lat="44.7619" lon="-0.7171">
        <ele>8</ele>
        <time>2022-06-29T15:19:22Z</time>
      </trkpt>
      <trkpt lat="44.76188" lon="-0.71715">
        <ele>10.2</ele>
        <time>2022-06-29T15:19:23Z</time>
      </trkpt>
      <trkpt lat="44.76184" lon="-0.71725">
        <ele>11.6</ele>
        <time>2022-06-29T15:19:25Z</time>
      </trkpt>
      <trkpt lat="44.76183" lon="-0.71731">
        <ele>13.8</ele>
        <time>2022-06-29T15:19:26Z</time>
      </trkpt>
      <trkpt lat="44.7618" lon="-0.71736">
        <ele>17.4</ele>
        <time>2022-06-29T15:19:27Z</time>
      </trkpt>
      <trkpt lat="44.76175" lon="-0.71741">
        <ele>21.2</ele>
        <time>2022-06-29T15:19:29Z</time>
      </trkpt>
      <trkpt lat="44.76173" lon="-0.71742">
        <ele>22.8</ele>
        <time>2022-06-29T15:19:30Z</time>
      </trkpt>
      <trkpt lat="44.7617" lon="-0.71743">
        <ele>24.6</ele>
        <time>2022-06-29T15:19:31Z</time>
      </trkpt>
      <trkpt lat="44.76167" lon="-0.71747">
        <ele>26.2</ele>
        <time>2022-06-29T15:19:32Z</time>
      </trkpt>
      <trkpt lat="44.76165" lon="-0.71752">
        <ele>27.4</ele>
        <time>2022-06-29T15:19:33Z</time>
      </trkpt>
      <trkpt lat="44.76164" lon="-0.71757">
        <ele>28.8</ele>
        <time>2022-06-29T15:19:34Z</time>
      </trkpt>
      <trkpt lat="44.76162" lon="-0.71763">
        <ele>30</ele>
        <time>2022-06-29T15:19:35Z</time>
      </trkpt>
      <trkpt lat="44.76159" lon="-0.71775">
        <ele>31.4</ele>
        <time>2022-06-29T15:19:37Z</time>
      </trkpt>
      <trkpt lat="44.76156" lon="-0.71789">
        <ele>32.4</ele>
        <time>2022-06-29T15:19:39Z</time>
      </trkpt>
      <trkpt lat="44.76154" lon="-0.71795">
        <ele>32.6</ele>
        <time>2022-06-29T15:19:40Z</time>
      </trkpt>
      <trkpt lat="44.76148" lon="-0.71822">
        <ele>32.6</ele>
        <time>2022-06-29T15:19:44Z</time>
      </trkpt>
      <trkpt lat="44.76144" lon="-0.71836">
        <ele>32.8</ele>
        <time>2022-06-29T15:19:46Z</time>
      </trkpt>
      <trkpt lat="44.76137" lon="-0.71855">
        <ele>33.8</ele>
        <time>2022-06-29T15:19:49Z</time>
      </trkpt>
      <trkpt lat="44.76129" lon="-0.71874">
        <ele>34.4</ele>
        <time>2022-06-29T15:19:52Z</time>
      </trkpt>
      <trkpt lat="44.7612" lon="-0.71894">
        <ele>34.8</ele>
        <time>2022-06-29T15:19:55Z</time>
      </trkpt>
      <trkpt lat="44.76101" lon="-0.71929">
        <ele>35.8</ele>
        <time>2022-06-29T15:20:00Z</time>
      </trkpt>
      <trkpt lat="44.76092" lon="-0.71941">
        <ele>36.2</ele>
        <time>2022-06-29T15:20:02Z</time>
      </trkpt>
      <trkpt lat="44.76075" lon="-0.71945">
        <ele>35.6</ele>
        <time>2022-06-29T15:20:05Z</time>
      </trkpt>
      <trkpt lat="44.76061" lon="-0.71947">
        <ele>36.2</ele>
        <time>2022-06-29T15:20:07Z</time>
      </trkpt>
      <trkpt lat="44.76036" lon="-0.71951">
        <ele>36.2</ele>
        <time>2022-06-29T15:20:11Z</time>
      </trkpt>
      <trkpt lat="44.76019" lon="-0.71966">
        <ele>36.4</ele>
        <time>2022-06-29T15:20:14Z</time>
      </trkpt>
      <trkpt lat="44.76" lon="-0.71989">
        <ele>36.4</ele>
        <time>2022-06-29T15:20:18Z</time>
      </trkpt>
      <trkpt lat="44.75997" lon="-0.71995">
        <ele>36.4</ele>
        <time>2022-06-29T15:20:19Z</time>
      </trkpt>
      <trkpt lat="44.75993" lon="-0.72003">
        <ele>36.4</ele>
        <time>2022-06-29T15:20:20Z</time>
      </trkpt>
      <trkpt lat="44.7599" lon="-0.72017">
        <ele>36.4</ele>
        <time>2022-06-29T15:20:22Z</time>
      </trkpt>
      <trkpt lat="44.75991" lon="-0.72032">
        <ele>36.6</ele>
        <time>2022-06-29T15:20:24Z</time>
      </trkpt>
      <trkpt lat="44.75991" lon="-0.72054">
        <ele>36.4</ele>
        <time>2022-06-29T15:20:27Z</time>
      </trkpt>
      <trkpt lat="44.75992" lon="-0.72061">
        <ele>36.4</ele>
        <time>2022-06-29T15:20:28Z</time>
      </trkpt>
      <trkpt lat="44.75991" lon="-0.72078">
        <ele>36.2</ele>
        <time>2022-06-29T15:20:31Z</time>
      </trkpt>
      <trkpt lat="44.75989" lon="-0.72081">
        <ele>36.2</ele>
        <time>2022-06-29T15:20:32Z</time>
      </trkpt>
      <trkpt lat="44.75983" lon="-0.72084">
        <ele>36</ele>
        <time>2022-06-29T15:20:34Z</time>
      </trkpt>
      <trkpt lat="44.75974" lon="-0.72084">
        <ele>35.4</ele>
        <time>2022-06-29T15:20:37Z</time>
      </trkpt>
      <trkpt lat="44.7597" lon="-0.72083">
        <ele>35</ele>
        <time>2022-06-29T15:20:38Z</time>
      </trkpt>
      <trkpt lat="44.75967" lon="-0.72083">
        <ele>34.2</ele>
        <time>2022-06-29T15:20:39Z</time>
      </trkpt>
      <trkpt lat="44.75958" lon="-0.72081">
        <ele>33</ele>
        <time>2022-06-29T15:20:41Z</time>
      </trkpt>
      <trkpt lat="44.75947" lon="-0.7208">
        <ele>32</ele>
        <time>2022-06-29T15:20:43Z</time>
      </trkpt>
      <trkpt lat="44.75943" lon="-0.72079">
        <ele>31.6</ele>
        <time>2022-06-29T15:20:44Z</time>
      </trkpt>
      <trkpt lat="44.75938" lon="-0.72079">
        <ele>31.2</ele>
        <time>2022-06-29T15:20:45Z</time>
      </trkpt>
      <trkpt lat="44.75929" lon="-0.72078">
        <ele>30.2</ele>
        <time>2022-06-29T15:20:47Z</time>
      </trkpt>
      <trkpt lat="44.75918" lon="-0.72077">
        <ele>29</ele>
        <time>2022-06-29T15:20:49Z</time>
      </trkpt>
      <trkpt lat="44.75906" lon="-0.72076">
        <ele>27.8</ele>
        <time>2022-06-29T15:20:51Z</time>
      </trkpt>
      <trkpt lat="44.75894" lon="-0.72072">
        <ele>28.4</ele>
        <time>2022-06-29T15:20:53Z</time>
      </trkpt>
      <trkpt lat="44.75889" lon="-0.72067">
        <ele>28.6</ele>
        <time>2022-06-29T15:20:54Z</time>
      </trkpt>
      <trkpt lat="44.75885" lon="-0.72061">
        <ele>29</ele>
        <time>2022-06-29T15:20:55Z</time>
      </trkpt>
      <trkpt lat="44.7588" lon="-0.72055">
        <ele>30.8</ele>
        <time>2022-06-29T15:20:56Z</time>
      </trkpt>
      <trkpt lat="44.75872" lon="-0.72043">
        <ele>32.8</ele>
        <time>2022-06-29T15:20:58Z</time>
      </trkpt>
      <trkpt lat="44.75869" lon="-0.72036">
        <ele>33.4</ele>
        <time>2022-06-29T15:20:59Z</time>
      </trkpt>
      <trkpt lat="44.75866" lon="-0.72028">
        <ele>33.8</ele>
        <time>2022-06-29T15:21:00Z</time>
      </trkpt>
      <trkpt lat="44.75858" lon="-0.72006">
        <ele>34.8</ele>
        <time>2022-06-29T15:21:03Z</time>
      </trkpt>
      <trkpt lat="44.75854" lon="-0.72001">
        <ele>35.4</ele>
        <time>2022-06-29T15:21:04Z</time>
      </trkpt>
      <trkpt lat="44.75844" lon="-0.71984">
        <ele>36.6</ele>
        <time>2022-06-29T15:21:07Z</time>
      </trkpt>
      <trkpt lat="44.75839" lon="-0.71973">
        <ele>37.4</ele>
        <time>2022-06-29T15:21:09Z</time>
      </trkpt>
      <trkpt lat="44.75836" lon="-0.71968">
        <ele>38</ele>
        <time>2022-06-29T15:21:10Z</time>
      </trkpt>
      <trkpt lat="44.75831" lon="-0.71959">
        <ele>39</ele>
        <time>2022-06-29T15:21:12Z</time>
      </trkpt>
      <trkpt lat="44.75826" lon="-0.71949">
        <ele>40</ele>
        <time>2022-06-29T15:21:14Z</time>
      </trkpt>
      <trkpt lat="44.75822" lon="-0.71946">
        <ele>40</ele>
        <time>2022-06-29T15:21:15Z</time>
      </trkpt>
      <trkpt lat="44.75812" lon="-0.71949">
        <ele>40.4</ele>
        <time>2022-06-29T15:21:18Z</time>
      </trkpt>
      <trkpt lat="44.75808" lon="-0.71958">
        <ele>40.6</ele>
        <time>2022-06-29T15:21:20Z</time>
      </trkpt>
      <trkpt lat="44.75803" lon="-0.71968">
        <ele>40.2</ele>
        <time>2022-06-29T15:21:22Z</time>
      </trkpt>
      <trkpt lat="44.75783" lon="-0.72004">
        <ele>40</ele>
        <time>2022-06-29T15:21:28Z</time>
      </trkpt>
      <trkpt lat="44.75773" lon="-0.7202">
        <ele>39.8</ele>
        <time>2022-06-29T15:21:31Z</time>
      </trkpt>
      <trkpt lat="44.75771" lon="-0.72025">
        <ele>39.6</ele>
        <time>2022-06-29T15:21:32Z</time>
      </trkpt>
      <trkpt lat="44.75764" lon="-0.72042">
        <ele>40</ele>
        <time>2022-06-29T15:21:36Z</time>
      </trkpt>
      <trkpt lat="44.75762" lon="-0.72043">
        <ele>40.2</ele>
        <time>2022-06-29T15:21:37Z</time>
      </trkpt>
      <trkpt lat="44.75754" lon="-0.72044">
        <ele>40.6</ele>
        <time>2022-06-29T15:21:39Z</time>
      </trkpt>
      <trkpt lat="44.75746" lon="-0.72046">
        <ele>41.2</ele>
        <time>2022-06-29T15:21:41Z</time>
      </trkpt>
      <trkpt lat="44.75738" lon="-0.72051">
        <ele>41.6</ele>
        <time>2022-06-29T15:21:43Z</time>
      </trkpt>
      <trkpt lat="44.75734" lon="-0.72054">
        <ele>41.6</ele>
        <time>2022-06-29T15:21:44Z</time>
      </trkpt>
      <trkpt lat="44.75719" lon="-0.72061">
        <ele>42.2</ele>
        <time>2022-06-29T15:21:47Z</time>
      </trkpt>
      <trkpt lat="44.75714" lon="-0.72063">
        <ele>42.2</ele>
        <time>2022-06-29T15:21:48Z</time>
      </trkpt>
      <trkpt lat="44.75703" lon="-0.72068">
        <ele>42.8</ele>
        <time>2022-06-29T15:21:50Z</time>
      </trkpt>
      <trkpt lat="44.75668" lon="-0.72082">
        <ele>43</ele>
        <time>2022-06-29T15:21:56Z</time>
      </trkpt>
      <trkpt lat="44.75656" lon="-0.72087">
        <ele>43.4</ele>
        <time>2022-06-29T15:21:58Z</time>
      </trkpt>
      <trkpt lat="44.7563" lon="-0.72097">
        <ele>44.4</ele>
        <time>2022-06-29T15:22:02Z</time>
      </trkpt>
      <trkpt lat="44.75605" lon="-0.72107">
        <ele>44.2</ele>
        <time>2022-06-29T15:22:06Z</time>
      </trkpt>
      <trkpt lat="44.75561" lon="-0.72124">
        <ele>45.2</ele>
        <time>2022-06-29T15:22:13Z</time>
      </trkpt>
      <trkpt lat="44.7551" lon="-0.72144">
        <ele>45.6</ele>
        <time>2022-06-29T15:22:21Z</time>
      </trkpt>
      <trkpt lat="44.75453" lon="-0.72167">
        <ele>45.8</ele>
        <time>2022-06-29T15:22:30Z</time>
      </trkpt>
      <trkpt lat="44.75429" lon="-0.72174">
        <ele>46</ele>
        <time>2022-06-29T15:22:34Z</time>
      </trkpt>
      <trkpt lat="44.75419" lon="-0.72178">
        <ele>45.8</ele>
        <time>2022-06-29T15:22:36Z</time>
      </trkpt>
      <trkpt lat="44.75405" lon="-0.72186">
        <ele>45.8</ele>
        <time>2022-06-29T15:22:39Z</time>
      </trkpt>
      <trkpt lat="44.754" lon="-0.72188">
        <ele>45.8</ele>
        <time>2022-06-29T15:22:40Z</time>
      </trkpt>
      <trkpt lat="44.75362" lon="-0.72204">
        <ele>46.2</ele>
        <time>2022-06-29T15:22:47Z</time>
      </trkpt>
      <trkpt lat="44.75331" lon="-0.72216">
        <ele>46.8</ele>
        <time>2022-06-29T15:22:52Z</time>
      </trkpt>
      <trkpt lat="44.75307" lon="-0.72226">
        <ele>47</ele>
        <time>2022-06-29T15:22:56Z</time>
      </trkpt>
      <trkpt lat="44.75264" lon="-0.72242">
        <ele>47.4</ele>
        <time>2022-06-29T15:23:03Z</time>
      </trkpt>
      <trkpt lat="44.75252" lon="-0.72247">
        <ele>47.8</ele>
        <time>2022-06-29T15:23:05Z</time>
      </trkpt>
      <trkpt lat="44.75203" lon="-0.72267">
        <ele>47.6</ele>
        <time>2022-06-29T15:23:13Z</time>
      </trkpt>
      <trkpt lat="44.75154" lon="-0.72287">
        <ele>47.8</ele>
        <time>2022-06-29T15:23:21Z</time>
      </trkpt>
      <trkpt lat="44.75124" lon="-0.72299">
        <ele>48</ele>
        <time>2022-06-29T15:23:26Z</time>
      </trkpt>
      <trkpt lat="44.75113" lon="-0.72304">
        <ele>47.8</ele>
        <time>2022-06-29T15:23:28Z</time>
      </trkpt>
      <trkpt lat="44.75077" lon="-0.72317">
        <ele>47.4</ele>
        <time>2022-06-29T15:23:34Z</time>
      </trkpt>
      <trkpt lat="44.75041" lon="-0.72332">
        <ele>47.6</ele>
        <time>2022-06-29T15:23:41Z</time>
      </trkpt>
      <trkpt lat="44.75025" lon="-0.72337">
        <ele>47.6</ele>
        <time>2022-06-29T15:23:44Z</time>
      </trkpt>
      <trkpt lat="44.75011" lon="-0.72343">
        <ele>47.6</ele>
        <time>2022-06-29T15:23:47Z</time>
      </trkpt>
      <trkpt lat="44.74968" lon="-0.7236">
        <ele>47.6</ele>
        <time>2022-06-29T15:23:55Z</time>
      </trkpt>
      <trkpt lat="44.74918" lon="-0.7238">
        <ele>48</ele>
        <time>2022-06-29T15:24:04Z</time>
      </trkpt>
      <trkpt lat="44.7487" lon="-0.724">
        <ele>48.6</ele>
        <time>2022-06-29T15:24:12Z</time>
      </trkpt>
      <trkpt lat="44.74858" lon="-0.72405">
        <ele>48.8</ele>
        <time>2022-06-29T15:24:14Z</time>
      </trkpt>
      <trkpt lat="44.74846" lon="-0.72409">
        <ele>48.8</ele>
        <time>2022-06-29T15:24:16Z</time>
      </trkpt>
      <trkpt lat="44.74829" lon="-0.72417">
        <ele>48.8</ele>
        <time>2022-06-29T15:24:19Z</time>
      </trkpt>
      <trkpt lat="44.74789" lon="-0.72431">
        <ele>49</ele>
        <time>2022-06-29T15:24:26Z</time>
      </trkpt>
      <trkpt lat="44.74741" lon="-0.72449">
        <ele>49</ele>
        <time>2022-06-29T15:24:34Z</time>
      </trkpt>
      <trkpt lat="44.74692" lon="-0.72469">
        <ele>48.6</ele>
        <time>2022-06-29T15:24:42Z</time>
      </trkpt>
      <trkpt lat="44.74643" lon="-0.72488">
        <ele>48.6</ele>
        <time>2022-06-29T15:24:50Z</time>
      </trkpt>
      <trkpt lat="44.74625" lon="-0.72495">
        <ele>48.6</ele>
        <time>2022-06-29T15:24:53Z</time>
      </trkpt>
      <trkpt lat="44.74613" lon="-0.725">
        <ele>48.4</ele>
        <time>2022-06-29T15:24:55Z</time>
      </trkpt>
      <trkpt lat="44.74573" lon="-0.72514">
        <ele>48.4</ele>
        <time>2022-06-29T15:25:02Z</time>
      </trkpt>
      <trkpt lat="44.74528" lon="-0.72533">
        <ele>47.8</ele>
        <time>2022-06-29T15:25:10Z</time>
      </trkpt>
      <trkpt lat="44.74516" lon="-0.72536">
        <ele>47.6</ele>
        <time>2022-06-29T15:25:12Z</time>
      </trkpt>
      <trkpt lat="44.74499" lon="-0.72542">
        <ele>46.8</ele>
        <time>2022-06-29T15:25:15Z</time>
      </trkpt>
      <trkpt lat="44.74488" lon="-0.72548">
        <ele>46.8</ele>
        <time>2022-06-29T15:25:17Z</time>
      </trkpt>
      <trkpt lat="44.74482" lon="-0.7255">
        <ele>46.8</ele>
        <time>2022-06-29T15:25:18Z</time>
      </trkpt>
      <trkpt lat="44.7447" lon="-0.72554">
        <ele>47</ele>
        <time>2022-06-29T15:25:20Z</time>
      </trkpt>
      <trkpt lat="44.74441" lon="-0.72566">
        <ele>47.4</ele>
        <time>2022-06-29T15:25:25Z</time>
      </trkpt>
      <trkpt lat="44.74435" lon="-0.72569">
        <ele>47.4</ele>
        <time>2022-06-29T15:25:26Z</time>
      </trkpt>
      <trkpt lat="44.74423" lon="-0.72588">
        <ele>47.6</ele>
        <time>2022-06-29T15:25:29Z</time>
      </trkpt>
      <trkpt lat="44.7442" lon="-0.72595">
        <ele>47.8</ele>
        <time>2022-06-29T15:25:30Z</time>
      </trkpt>
      <trkpt lat="44.74417" lon="-0.72602">
        <ele>47.8</ele>
        <time>2022-06-29T15:25:31Z</time>
      </trkpt>
      <trkpt lat="44.74403" lon="-0.72637">
        <ele>47.8</ele>
        <time>2022-06-29T15:25:36Z</time>
      </trkpt>
      <trkpt lat="44.74374" lon="-0.72702">
        <ele>47</ele>
        <time>2022-06-29T15:25:45Z</time>
      </trkpt>
      <trkpt lat="44.74348" lon="-0.72761">
        <ele>47.8</ele>
        <time>2022-06-29T15:25:53Z</time>
      </trkpt>
      <trkpt lat="44.74328" lon="-0.72805">
        <ele>48</ele>
        <time>2022-06-29T15:25:59Z</time>
      </trkpt>
      <trkpt lat="44.74301" lon="-0.72861">
        <ele>48.6</ele>
        <time>2022-06-29T15:26:07Z</time>
      </trkpt>
      <trkpt lat="44.74284" lon="-0.72895">
        <ele>48.6</ele>
        <time>2022-06-29T15:26:13Z</time>
      </trkpt>
      <trkpt lat="44.74271" lon="-0.72922">
        <ele>48</ele>
        <time>2022-06-29T15:26:19Z</time>
      </trkpt>
      <trkpt lat="44.74269" lon="-0.72926">
        <ele>48.2</ele>
        <time>2022-06-29T15:26:20Z</time>
      </trkpt>
      <trkpt lat="44.74265" lon="-0.72929">
        <ele>48.4</ele>
        <time>2022-06-29T15:26:22Z</time>
      </trkpt>
      <trkpt lat="44.74263" lon="-0.72938">
        <ele>49.6</ele>
        <time>2022-06-29T15:27:30Z</time>
      </trkpt>
      <trkpt lat="44.74261" lon="-0.7294">
        <ele>50</ele>
        <time>2022-06-29T15:27:31Z</time>
      </trkpt>
      <trkpt lat="44.74256" lon="-0.72951">
        <ele>48.6</ele>
        <time>2022-06-29T15:27:34Z</time>
      </trkpt>
      <trkpt lat="44.74254" lon="-0.72955">
        <ele>47.6</ele>
        <time>2022-06-29T15:27:35Z</time>
      </trkpt>
      <trkpt lat="44.74252" lon="-0.72959">
        <ele>46.2</ele>
        <time>2022-06-29T15:27:36Z</time>
      </trkpt>
      <trkpt lat="44.7425" lon="-0.72963">
        <ele>44.8</ele>
        <time>2022-06-29T15:27:37Z</time>
      </trkpt>
      <trkpt lat="44.74248" lon="-0.72967">
        <ele>43.2</ele>
        <time>2022-06-29T15:27:38Z</time>
      </trkpt>
      <trkpt lat="44.74246" lon="-0.72971">
        <ele>41.6</ele>
        <time>2022-06-29T15:27:39Z</time>
      </trkpt>
      <trkpt lat="44.74243" lon="-0.72976">
        <ele>40</ele>
        <time>2022-06-29T15:27:40Z</time>
      </trkpt>
      <trkpt lat="44.74241" lon="-0.72981">
        <ele>38.2</ele>
        <time>2022-06-29T15:27:41Z</time>
      </trkpt>
      <trkpt lat="44.74238" lon="-0.72986">
        <ele>36.6</ele>
        <time>2022-06-29T15:27:42Z</time>
      </trkpt>
      <trkpt lat="44.74235" lon="-0.72991">
        <ele>35</ele>
        <time>2022-06-29T15:27:43Z</time>
      </trkpt>
      <trkpt lat="44.74232" lon="-0.72997">
        <ele>33.6</ele>
        <time>2022-06-29T15:27:44Z</time>
      </trkpt>
      <trkpt lat="44.74229" lon="-0.73002">
        <ele>32.4</ele>
        <time>2022-06-29T15:27:45Z</time>
      </trkpt>
      <trkpt lat="44.74225" lon="-0.73008">
        <ele>31.4</ele>
        <time>2022-06-29T15:27:46Z</time>
      </trkpt>
      <trkpt lat="44.74222" lon="-0.73014">
        <ele>30.8</ele>
        <time>2022-06-29T15:27:47Z</time>
      </trkpt>
      <trkpt lat="44.74216" lon="-0.73025">
        <ele>29.8</ele>
        <time>2022-06-29T15:27:49Z</time>
      </trkpt>
      <trkpt lat="44.74202" lon="-0.73054">
        <ele>28.8</ele>
        <time>2022-06-29T15:27:54Z</time>
      </trkpt>
      <trkpt lat="44.74197" lon="-0.73065">
        <ele>28.6</ele>
        <time>2022-06-29T15:27:56Z</time>
      </trkpt>
      <trkpt lat="44.74194" lon="-0.7307">
        <ele>28.8</ele>
        <time>2022-06-29T15:27:57Z</time>
      </trkpt>
      <trkpt lat="44.74185" lon="-0.73087">
        <ele>29</ele>
        <time>2022-06-29T15:28:00Z</time>
      </trkpt>
      <trkpt lat="44.74176" lon="-0.73105">
        <ele>30</ele>
        <time>2022-06-29T15:28:03Z</time>
      </trkpt>
      <trkpt lat="44.74172" lon="-0.73111">
        <ele>30.4</ele>
        <time>2022-06-29T15:28:04Z</time>
      </trkpt>
      <trkpt lat="44.74163" lon="-0.7313">
        <ele>31.2</ele>
        <time>2022-06-29T15:28:07Z</time>
      </trkpt>
      <trkpt lat="44.7416" lon="-0.73136">
        <ele>31.4</ele>
        <time>2022-06-29T15:28:08Z</time>
      </trkpt>
      <trkpt lat="44.74151" lon="-0.73154">
        <ele>32.4</ele>
        <time>2022-06-29T15:28:11Z</time>
      </trkpt>
      <trkpt lat="44.74143" lon="-0.7317">
        <ele>33.4</ele>
        <time>2022-06-29T15:28:14Z</time>
      </trkpt>
      <trkpt lat="44.74134" lon="-0.73189">
        <ele>34.6</ele>
        <time>2022-06-29T15:28:17Z</time>
      </trkpt>
      <trkpt lat="44.74123" lon="-0.73209">
        <ele>35.6</ele>
        <time>2022-06-29T15:28:20Z</time>
      </trkpt>
      <trkpt lat="44.74119" lon="-0.73216">
        <ele>35.8</ele>
        <time>2022-06-29T15:28:21Z</time>
      </trkpt>
      <trkpt lat="44.74105" lon="-0.73245">
        <ele>37</ele>
        <time>2022-06-29T15:28:25Z</time>
      </trkpt>
      <trkpt lat="44.74103" lon="-0.73253">
        <ele>37.2</ele>
        <time>2022-06-29T15:28:26Z</time>
      </trkpt>
      <trkpt lat="44.74101" lon="-0.73261">
        <ele>37.2</ele>
        <time>2022-06-29T15:28:27Z</time>
      </trkpt>
      <trkpt lat="44.74097" lon="-0.73287">
        <ele>37.4</ele>
        <time>2022-06-29T15:28:30Z</time>
      </trkpt>
      <trkpt lat="44.74098" lon="-0.73304">
        <ele>37.2</ele>
        <time>2022-06-29T15:28:32Z</time>
      </trkpt>
      <trkpt lat="44.74101" lon="-0.73377">
        <ele>37.2</ele>
        <time>2022-06-29T15:28:40Z</time>
      </trkpt>
      <trkpt lat="44.74104" lon="-0.73445">
        <ele>36.8</ele>
        <time>2022-06-29T15:28:48Z</time>
      </trkpt>
      <trkpt lat="44.74106" lon="-0.73498">
        <ele>36.8</ele>
        <time>2022-06-29T15:28:55Z</time>
      </trkpt>
      <trkpt lat="44.74109" lon="-0.73557">
        <ele>36.4</ele>
        <time>2022-06-29T15:29:02Z</time>
      </trkpt>
      <trkpt lat="44.74111" lon="-0.73585">
        <ele>37</ele>
        <time>2022-06-29T15:29:07Z</time>
      </trkpt>
      <trkpt lat="44.74111" lon="-0.7359">
        <ele>37.4</ele>
        <time>2022-06-29T15:29:08Z</time>
      </trkpt>
      <trkpt lat="44.74103" lon="-0.73587">
        <ele>38.2</ele>
        <time>2022-06-29T15:29:11Z</time>
      </trkpt>
      <trkpt lat="44.7409" lon="-0.73578">
        <ele>38.4</ele>
        <time>2022-06-29T15:29:14Z</time>
      </trkpt>
      <trkpt lat="44.7408" lon="-0.73571">
        <ele>38.6</ele>
        <time>2022-06-29T15:29:16Z</time>
      </trkpt>
      <trkpt lat="44.74053" lon="-0.73554">
        <ele>39.2</ele>
        <time>2022-06-29T15:29:21Z</time>
      </trkpt>
      <trkpt lat="44.7403" lon="-0.73539">
        <ele>39.4</ele>
        <time>2022-06-29T15:29:25Z</time>
      </trkpt>
      <trkpt lat="44.73978" lon="-0.73509">
        <ele>40.4</ele>
        <time>2022-06-29T15:29:33Z</time>
      </trkpt>
      <trkpt lat="44.73926" lon="-0.73481">
        <ele>41.2</ele>
        <time>2022-06-29T15:29:41Z</time>
      </trkpt>
      <trkpt lat="44.73888" lon="-0.73458">
        <ele>40.8</ele>
        <time>2022-06-29T15:29:47Z</time>
      </trkpt>
      <trkpt lat="44.73843" lon="-0.73433">
        <ele>40.8</ele>
        <time>2022-06-29T15:29:54Z</time>
      </trkpt>
      <trkpt lat="44.73812" lon="-0.73414">
        <ele>40.6</ele>
        <time>2022-06-29T15:29:59Z</time>
      </trkpt>
      <trkpt lat="44.73765" lon="-0.73386">
        <ele>41.2</ele>
        <time>2022-06-29T15:30:06Z</time>
      </trkpt>
      <trkpt lat="44.73746" lon="-0.73373">
        <ele>41.4</ele>
        <time>2022-06-29T15:30:09Z</time>
      </trkpt>
      <trkpt lat="44.73721" lon="-0.73358">
        <ele>41.6</ele>
        <time>2022-06-29T15:30:13Z</time>
      </trkpt>
      <trkpt lat="44.73673" lon="-0.73328">
        <ele>40.6</ele>
        <time>2022-06-29T15:30:21Z</time>
      </trkpt>
      <trkpt lat="44.73668" lon="-0.73325">
        <ele>40.2</ele>
        <time>2022-06-29T15:30:22Z</time>
      </trkpt>
      <trkpt lat="44.73641" lon="-0.73308">
        <ele>39</ele>
        <time>2022-06-29T15:30:27Z</time>
      </trkpt>
      <trkpt lat="44.73624" lon="-0.73296">
        <ele>38</ele>
        <time>2022-06-29T15:30:30Z</time>
      </trkpt>
      <trkpt lat="44.73602" lon="-0.7328">
        <ele>36.6</ele>
        <time>2022-06-29T15:30:34Z</time>
      </trkpt>
      <trkpt lat="44.73579" lon="-0.73266">
        <ele>35.6</ele>
        <time>2022-06-29T15:30:38Z</time>
      </trkpt>
      <trkpt lat="44.73555" lon="-0.73251">
        <ele>34.4</ele>
        <time>2022-06-29T15:30:42Z</time>
      </trkpt>
      <trkpt lat="44.73538" lon="-0.7324">
        <ele>33.2</ele>
        <time>2022-06-29T15:30:45Z</time>
      </trkpt>
      <trkpt lat="44.73521" lon="-0.7323">
        <ele>32</ele>
        <time>2022-06-29T15:30:48Z</time>
      </trkpt>
      <trkpt lat="44.7351" lon="-0.73223">
        <ele>30.8</ele>
        <time>2022-06-29T15:30:50Z</time>
      </trkpt>
      <trkpt lat="44.73499" lon="-0.73216">
        <ele>30.2</ele>
        <time>2022-06-29T15:30:52Z</time>
      </trkpt>
      <trkpt lat="44.73493" lon="-0.73213">
        <ele>29.8</ele>
        <time>2022-06-29T15:30:53Z</time>
      </trkpt>
      <trkpt lat="44.7347" lon="-0.73198">
        <ele>28.6</ele>
        <time>2022-06-29T15:30:57Z</time>
      </trkpt>
      <trkpt lat="44.73453" lon="-0.73188">
        <ele>27.8</ele>
        <time>2022-06-29T15:31:00Z</time>
      </trkpt>
      <trkpt lat="44.73447" lon="-0.73184">
        <ele>27.2</ele>
        <time>2022-06-29T15:31:01Z</time>
      </trkpt>
      <trkpt lat="44.73434" lon="-0.73175">
        <ele>26.2</ele>
        <time>2022-06-29T15:31:04Z</time>
      </trkpt>
      <trkpt lat="44.73421" lon="-0.73168">
        <ele>25.2</ele>
        <time>2022-06-29T15:31:08Z</time>
      </trkpt>
      <trkpt lat="44.73414" lon="-0.73164">
        <ele>24.6</ele>
        <time>2022-06-29T15:31:10Z</time>
      </trkpt>
      <trkpt lat="44.73405" lon="-0.7316">
        <ele>24</ele>
        <time>2022-06-29T15:31:12Z</time>
      </trkpt>
      <trkpt lat="44.73391" lon="-0.7315">
        <ele>22.8</ele>
        <time>2022-06-29T15:31:15Z</time>
      </trkpt>
      <trkpt lat="44.73386" lon="-0.73147">
        <ele>22.6</ele>
        <time>2022-06-29T15:31:16Z</time>
      </trkpt>
      <trkpt lat="44.7337" lon="-0.73138">
        <ele>21.6</ele>
        <time>2022-06-29T15:31:19Z</time>
      </trkpt>
      <trkpt lat="44.73354" lon="-0.73129">
        <ele>20.4</ele>
        <time>2022-06-29T15:31:22Z</time>
      </trkpt>
      <trkpt lat="44.7335" lon="-0.73126">
        <ele>20</ele>
        <time>2022-06-29T15:31:23Z</time>
      </trkpt>
      <trkpt lat="44.7334" lon="-0.7312">
        <ele>19</ele>
        <time>2022-06-29T15:31:25Z</time>
      </trkpt>
      <trkpt lat="44.73326" lon="-0.73111">
        <ele>17.6</ele>
        <time>2022-06-29T15:31:28Z</time>
      </trkpt>
      <trkpt lat="44.73316" lon="-0.73105">
        <ele>16.8</ele>
        <time>2022-06-29T15:31:30Z</time>
      </trkpt>
      <trkpt lat="44.73312" lon="-0.73102">
        <ele>16.6</ele>
        <time>2022-06-29T15:31:31Z</time>
      </trkpt>
      <trkpt lat="44.73288" lon="-0.73086">
        <ele>15.2</ele>
        <time>2022-06-29T15:31:36Z</time>
      </trkpt>
      <trkpt lat="44.73279" lon="-0.73081">
        <ele>14.8</ele>
        <time>2022-06-29T15:31:38Z</time>
      </trkpt>
      <trkpt lat="44.7327" lon="-0.73075">
        <ele>13.8</ele>
        <time>2022-06-29T15:31:40Z</time>
      </trkpt>
      <trkpt lat="44.73257" lon="-0.73068">
        <ele>12.8</ele>
        <time>2022-06-29T15:31:43Z</time>
      </trkpt>
      <trkpt lat="44.73249" lon="-0.73063">
        <ele>12.4</ele>
        <time>2022-06-29T15:31:45Z</time>
      </trkpt>
      <trkpt lat="44.73231" lon="-0.73048">
        <ele>12.2</ele>
        <time>2022-06-29T15:31:50Z</time>
      </trkpt>
      <trkpt lat="44.73224" lon="-0.73039">
        <ele>15.4</ele>
        <time>2022-06-29T15:31:54Z</time>
      </trkpt>
      <trkpt lat="44.73223" lon="-0.73036">
        <ele>17.4</ele>
        <time>2022-06-29T15:31:55Z</time>
      </trkpt>
      <trkpt lat="44.73221" lon="-0.73032">
        <ele>20.4</ele>
        <time>2022-06-29T15:31:56Z</time>
      </trkpt>
      <trkpt lat="44.73221" lon="-0.73028">
        <ele>22.8</ele>
        <time>2022-06-29T15:31:57Z</time>
      </trkpt>
      <trkpt lat="44.7322" lon="-0.73023">
        <ele>24.8</ele>
        <time>2022-06-29T15:31:58Z</time>
      </trkpt>
      <trkpt lat="44.73219" lon="-0.7302">
        <ele>26.2</ele>
        <time>2022-06-29T15:31:59Z</time>
      </trkpt>
      <trkpt lat="44.73218" lon="-0.73016">
        <ele>27.4</ele>
        <time>2022-06-29T15:32:00Z</time>
      </trkpt>
      <trkpt lat="44.73217" lon="-0.73012">
        <ele>29</ele>
        <time>2022-06-29T15:32:01Z</time>
      </trkpt>
      <trkpt lat="44.73215" lon="-0.73001">
        <ele>30.8</ele>
        <time>2022-06-29T15:32:03Z</time>
      </trkpt>
      <trkpt lat="44.73215" lon="-0.72995">
        <ele>31.8</ele>
        <time>2022-06-29T15:32:04Z</time>
      </trkpt>
      <trkpt lat="44.73215" lon="-0.72988">
        <ele>32.6</ele>
        <time>2022-06-29T15:32:05Z</time>
      </trkpt>
      <trkpt lat="44.73215" lon="-0.72975">
        <ele>33.8</ele>
        <time>2022-06-29T15:32:07Z</time>
      </trkpt>
      <trkpt lat="44.73215" lon="-0.72968">
        <ele>35</ele>
        <time>2022-06-29T15:32:08Z</time>
      </trkpt>
      <trkpt lat="44.73216" lon="-0.72956">
        <ele>36</ele>
        <time>2022-06-29T15:32:10Z</time>
      </trkpt>
      <trkpt lat="44.73216" lon="-0.72949">
        <ele>36.4</ele>
        <time>2022-06-29T15:32:11Z</time>
      </trkpt>
      <trkpt lat="44.73216" lon="-0.72943">
        <ele>37.2</ele>
        <time>2022-06-29T15:32:12Z</time>
      </trkpt>
      <trkpt lat="44.73217" lon="-0.7293">
        <ele>39</ele>
        <time>2022-06-29T15:32:14Z</time>
      </trkpt>
      <trkpt lat="44.73218" lon="-0.72924">
        <ele>40.2</ele>
        <time>2022-06-29T15:32:15Z</time>
      </trkpt>
      <trkpt lat="44.73219" lon="-0.72909">
        <ele>41.6</ele>
        <time>2022-06-29T15:32:17Z</time>
      </trkpt>
      <trkpt lat="44.73219" lon="-0.72902">
        <ele>42</ele>
        <time>2022-06-29T15:32:18Z</time>
      </trkpt>
      <trkpt lat="44.7322" lon="-0.7288">
        <ele>42.6</ele>
        <time>2022-06-29T15:32:21Z</time>
      </trkpt>
      <trkpt lat="44.73222" lon="-0.72859">
        <ele>43.8</ele>
        <time>2022-06-29T15:32:24Z</time>
      </trkpt>
      <trkpt lat="44.73222" lon="-0.72851">
        <ele>44</ele>
        <time>2022-06-29T15:32:25Z</time>
      </trkpt>
      <trkpt lat="44.73223" lon="-0.72828">
        <ele>45</ele>
        <time>2022-06-29T15:32:28Z</time>
      </trkpt>
      <trkpt lat="44.73224" lon="-0.72795">
        <ele>45.4</ele>
        <time>2022-06-29T15:32:32Z</time>
      </trkpt>
      <trkpt lat="44.73225" lon="-0.72779">
        <ele>46</ele>
        <time>2022-06-29T15:32:34Z</time>
      </trkpt>
      <trkpt lat="44.73227" lon="-0.7274">
        <ele>46.8</ele>
        <time>2022-06-29T15:32:38Z</time>
      </trkpt>
      <trkpt lat="44.73227" lon="-0.7273">
        <ele>47.2</ele>
        <time>2022-06-29T15:32:39Z</time>
      </trkpt>
      <trkpt lat="44.7323" lon="-0.72671">
        <ele>48.6</ele>
        <time>2022-06-29T15:32:45Z</time>
      </trkpt>
      <trkpt lat="44.73231" lon="-0.72662">
        <ele>48.8</ele>
        <time>2022-06-29T15:32:46Z</time>
      </trkpt>
      <trkpt lat="44.73232" lon="-0.72642">
        <ele>49.6</ele>
        <time>2022-06-29T15:32:48Z</time>
      </trkpt>
      <trkpt lat="44.73236" lon="-0.72583">
        <ele>50</ele>
        <time>2022-06-29T15:32:54Z</time>
      </trkpt>
      <trkpt lat="44.73243" lon="-0.72522">
        <ele>50.6</ele>
        <time>2022-06-29T15:33:00Z</time>
      </trkpt>
      <trkpt lat="44.73248" lon="-0.725">
        <ele>50.8</ele>
        <time>2022-06-29T15:33:02Z</time>
      </trkpt>
      <trkpt lat="44.73271" lon="-0.72437">
        <ele>51</ele>
        <time>2022-06-29T15:33:08Z</time>
      </trkpt>
      <trkpt lat="44.73278" lon="-0.72416">
        <ele>51.8</ele>
        <time>2022-06-29T15:33:10Z</time>
      </trkpt>
      <trkpt lat="44.73283" lon="-0.72396">
        <ele>52.8</ele>
        <time>2022-06-29T15:33:12Z</time>
      </trkpt>
      <trkpt lat="44.73285" lon="-0.72385">
        <ele>53.2</ele>
        <time>2022-06-29T15:33:13Z</time>
      </trkpt>
      <trkpt lat="44.73287" lon="-0.72365">
        <ele>54.4</ele>
        <time>2022-06-29T15:33:15Z</time>
      </trkpt>
      <trkpt lat="44.73287" lon="-0.72336">
        <ele>55.6</ele>
        <time>2022-06-29T15:33:18Z</time>
      </trkpt>
      <trkpt lat="44.73287" lon="-0.72318">
        <ele>56.8</ele>
        <time>2022-06-29T15:33:20Z</time>
      </trkpt>
      <trkpt lat="44.73283" lon="-0.72294">
        <ele>58</ele>
        <time>2022-06-29T15:33:23Z</time>
      </trkpt>
      <trkpt lat="44.73282" lon="-0.72286">
        <ele>58.2</ele>
        <time>2022-06-29T15:33:24Z</time>
      </trkpt>
      <trkpt lat="44.73273" lon="-0.72251">
        <ele>59.2</ele>
        <time>2022-06-29T15:33:29Z</time>
      </trkpt>
      <trkpt lat="44.73269" lon="-0.7223">
        <ele>59.6</ele>
        <time>2022-06-29T15:33:32Z</time>
      </trkpt>
      <trkpt lat="44.73262" lon="-0.72181">
        <ele>59.6</ele>
        <time>2022-06-29T15:33:39Z</time>
      </trkpt>
      <trkpt lat="44.73262" lon="-0.72174">
        <ele>59.4</ele>
        <time>2022-06-29T15:33:40Z</time>
      </trkpt>
      <trkpt lat="44.73266" lon="-0.72133">
        <ele>58.8</ele>
        <time>2022-06-29T15:33:45Z</time>
      </trkpt>
      <trkpt lat="44.73268" lon="-0.72115">
        <ele>58</ele>
        <time>2022-06-29T15:33:47Z</time>
      </trkpt>
      <trkpt lat="44.73272" lon="-0.72085">
        <ele>56.6</ele>
        <time>2022-06-29T15:33:50Z</time>
      </trkpt>
      <trkpt lat="44.73273" lon="-0.72074">
        <ele>56</ele>
        <time>2022-06-29T15:33:51Z</time>
      </trkpt>
      <trkpt lat="44.73274" lon="-0.72053">
        <ele>55.2</ele>
        <time>2022-06-29T15:33:53Z</time>
      </trkpt>
      <trkpt lat="44.73276" lon="-0.72031">
        <ele>54.4</ele>
        <time>2022-06-29T15:33:56Z</time>
      </trkpt>
      <trkpt lat="44.73279" lon="-0.72024">
        <ele>54</ele>
        <time>2022-06-29T15:33:58Z</time>
      </trkpt>
      <trkpt lat="44.73281" lon="-0.72025">
        <ele>53.6</ele>
        <time>2022-06-29T15:33:59Z</time>
      </trkpt>
      <trkpt lat="44.73286" lon="-0.72029">
        <ele>52.8</ele>
        <time>2022-06-29T15:34:01Z</time>
      </trkpt>
      <trkpt lat="44.73288" lon="-0.72036">
        <ele>52.6</ele>
        <time>2022-06-29T15:34:03Z</time>
      </trkpt>
      <trkpt lat="44.73289" lon="-0.72048">
        <ele>52.8</ele>
        <time>2022-06-29T15:34:06Z</time>
      </trkpt>
      <trkpt lat="44.73288" lon="-0.72056">
        <ele>52.6</ele>
        <time>2022-06-29T15:34:08Z</time>
      </trkpt>
      <trkpt lat="44.7329" lon="-0.72082">
        <ele>52</ele>
        <time>2022-06-29T15:34:13Z</time>
      </trkpt>
      <trkpt lat="44.7329" lon="-0.72088">
        <ele>52</ele>
        <time>2022-06-29T15:34:14Z</time>
      </trkpt>
      <trkpt lat="44.7329" lon="-0.72119">
        <ele>52.2</ele>
        <time>2022-06-29T15:34:19Z</time>
      </trkpt>
      <trkpt lat="44.7329" lon="-0.72125">
        <ele>52</ele>
        <time>2022-06-29T15:34:20Z</time>
      </trkpt>
      <trkpt lat="44.73287" lon="-0.72149">
        <ele>52</ele>
        <time>2022-06-29T15:34:24Z</time>
      </trkpt>
      <trkpt lat="44.73283" lon="-0.7218">
        <ele>53.6</ele>
        <time>2022-06-29T15:34:30Z</time>
      </trkpt>
      <trkpt lat="44.73286" lon="-0.72195">
        <ele>54</ele>
        <time>2022-06-29T15:34:33Z</time>
      </trkpt>
      <trkpt lat="44.73289" lon="-0.72197">
        <ele>54.2</ele>
        <time>2022-06-29T15:34:34Z</time>
      </trkpt>
      <trkpt lat="44.73302" lon="-0.7219">
        <ele>54.8</ele>
        <time>2022-06-29T15:34:37Z</time>
      </trkpt>
      <trkpt lat="44.73309" lon="-0.72179">
        <ele>54.6</ele>
        <time>2022-06-29T15:34:39Z</time>
      </trkpt>
      <trkpt lat="44.73325" lon="-0.72157">
        <ele>54.2</ele>
        <time>2022-06-29T15:34:43Z</time>
      </trkpt>
      <trkpt lat="44.73358" lon="-0.72108">
        <ele>53.6</ele>
        <time>2022-06-29T15:34:52Z</time>
      </trkpt>
      <trkpt lat="44.7337" lon="-0.72084">
        <ele>53.2</ele>
        <time>2022-06-29T15:34:56Z</time>
      </trkpt>
      <trkpt lat="44.7337" lon="-0.72076">
        <ele>53.2</ele>
        <time>2022-06-29T15:34:57Z</time>
      </trkpt>
      <trkpt lat="44.73367" lon="-0.7203">
        <ele>53.2</ele>
        <time>2022-06-29T15:35:02Z</time>
      </trkpt>
      <trkpt lat="44.73365" lon="-0.7196">
        <ele>53.4</ele>
        <time>2022-06-29T15:35:09Z</time>
      </trkpt>
      <trkpt lat="44.73362" lon="-0.71876">
        <ele>53.6</ele>
        <time>2022-06-29T15:35:17Z</time>
      </trkpt>
      <trkpt lat="44.73358" lon="-0.71801">
        <ele>53</ele>
        <time>2022-06-29T15:35:24Z</time>
      </trkpt>
      <trkpt lat="44.73358" lon="-0.71791">
        <ele>53</ele>
        <time>2022-06-29T15:35:25Z</time>
      </trkpt>
      <trkpt lat="44.73356" lon="-0.71735">
        <ele>53.6</ele>
        <time>2022-06-29T15:35:31Z</time>
      </trkpt>
      <trkpt lat="44.73353" lon="-0.71673">
        <ele>53.2</ele>
        <time>2022-06-29T15:35:38Z</time>
      </trkpt>
      <trkpt lat="44.7335" lon="-0.71594">
        <ele>53</ele>
        <time>2022-06-29T15:35:47Z</time>
      </trkpt>
      <trkpt lat="44.7335" lon="-0.71586">
        <ele>53</ele>
        <time>2022-06-29T15:35:48Z</time>
      </trkpt>
      <trkpt lat="44.73348" lon="-0.71539">
        <ele>52.8</ele>
        <time>2022-06-29T15:35:54Z</time>
      </trkpt>
      <trkpt lat="44.73347" lon="-0.71483">
        <ele>53</ele>
        <time>2022-06-29T15:36:01Z</time>
      </trkpt>
      <trkpt lat="44.7335" lon="-0.71458">
        <ele>53.6</ele>
        <time>2022-06-29T15:36:04Z</time>
      </trkpt>
      <trkpt lat="44.7335" lon="-0.71449">
        <ele>53.8</ele>
        <time>2022-06-29T15:36:05Z</time>
      </trkpt>
      <trkpt lat="44.73349" lon="-0.71382">
        <ele>54</ele>
        <time>2022-06-29T15:36:12Z</time>
      </trkpt>
      <trkpt lat="44.73348" lon="-0.7131">
        <ele>53.8</ele>
        <time>2022-06-29T15:36:20Z</time>
      </trkpt>
      <trkpt lat="44.73349" lon="-0.71256">
        <ele>52.8</ele>
        <time>2022-06-29T15:36:26Z</time>
      </trkpt>
      <trkpt lat="44.73351" lon="-0.71247">
        <ele>52</ele>
        <time>2022-06-29T15:36:27Z</time>
      </trkpt>
      <trkpt lat="44.73355" lon="-0.71238">
        <ele>51</ele>
        <time>2022-06-29T15:36:28Z</time>
      </trkpt>
      <trkpt lat="44.73365" lon="-0.71223">
        <ele>49.8</ele>
        <time>2022-06-29T15:36:30Z</time>
      </trkpt>
      <trkpt lat="44.73377" lon="-0.71211">
        <ele>49.2</ele>
        <time>2022-06-29T15:36:32Z</time>
      </trkpt>
      <trkpt lat="44.73393" lon="-0.71193">
        <ele>48.8</ele>
        <time>2022-06-29T15:36:35Z</time>
      </trkpt>
      <trkpt lat="44.73432" lon="-0.71149">
        <ele>48.4</ele>
        <time>2022-06-29T15:36:42Z</time>
      </trkpt>
      <trkpt lat="44.73474" lon="-0.711">
        <ele>48.2</ele>
        <time>2022-06-29T15:36:50Z</time>
      </trkpt>
      <trkpt lat="44.73516" lon="-0.71051">
        <ele>47.8</ele>
        <time>2022-06-29T15:36:58Z</time>
      </trkpt>
      <trkpt lat="44.73521" lon="-0.71045">
        <ele>47.6</ele>
        <time>2022-06-29T15:36:59Z</time>
      </trkpt>
      <trkpt lat="44.73557" lon="-0.71001">
        <ele>47.2</ele>
        <time>2022-06-29T15:37:06Z</time>
      </trkpt>
      <trkpt lat="44.7358" lon="-0.70978">
        <ele>47</ele>
        <time>2022-06-29T15:37:10Z</time>
      </trkpt>
      <trkpt lat="44.7359" lon="-0.70966">
        <ele>47</ele>
        <time>2022-06-29T15:37:12Z</time>
      </trkpt>
      <trkpt lat="44.73626" lon="-0.70927">
        <ele>47</ele>
        <time>2022-06-29T15:37:19Z</time>
      </trkpt>
      <trkpt lat="44.7364" lon="-0.70916">
        <ele>46.6</ele>
        <time>2022-06-29T15:37:22Z</time>
      </trkpt>
      <trkpt lat="44.73654" lon="-0.70902">
        <ele>46.6</ele>
        <time>2022-06-29T15:37:25Z</time>
      </trkpt>
      <trkpt lat="44.73664" lon="-0.70892">
        <ele>46.4</ele>
        <time>2022-06-29T15:37:27Z</time>
      </trkpt>
      <trkpt lat="44.73685" lon="-0.70873">
        <ele>46</ele>
        <time>2022-06-29T15:37:31Z</time>
      </trkpt>
      <trkpt lat="44.737" lon="-0.70859">
        <ele>45.6</ele>
        <time>2022-06-29T15:37:34Z</time>
      </trkpt>
      <trkpt lat="44.73705" lon="-0.70855">
        <ele>45.6</ele>
        <time>2022-06-29T15:37:35Z</time>
      </trkpt>
      <trkpt lat="44.73715" lon="-0.7085">
        <ele>45.4</ele>
        <time>2022-06-29T15:37:37Z</time>
      </trkpt>
      <trkpt lat="44.73733" lon="-0.70845">
        <ele>44.6</ele>
        <time>2022-06-29T15:37:40Z</time>
      </trkpt>
      <trkpt lat="44.73739" lon="-0.70846">
        <ele>44.6</ele>
        <time>2022-06-29T15:37:41Z</time>
      </trkpt>
      <trkpt lat="44.73746" lon="-0.70846">
        <ele>44.4</ele>
        <time>2022-06-29T15:37:42Z</time>
      </trkpt>
      <trkpt lat="44.73778" lon="-0.70848">
        <ele>44.2</ele>
        <time>2022-06-29T15:37:47Z</time>
      </trkpt>
      <trkpt lat="44.73794" lon="-0.70835">
        <ele>44</ele>
        <time>2022-06-29T15:37:50Z</time>
      </trkpt>
      <trkpt lat="44.73809" lon="-0.70818">
        <ele>43.8</ele>
        <time>2022-06-29T15:37:53Z</time>
      </trkpt>
      <trkpt lat="44.73812" lon="-0.70811">
        <ele>44</ele>
        <time>2022-06-29T15:37:54Z</time>
      </trkpt>
      <trkpt lat="44.73821" lon="-0.70786">
        <ele>43.8</ele>
        <time>2022-06-29T15:37:57Z</time>
      </trkpt>
      <trkpt lat="44.73823" lon="-0.70779">
        <ele>43.6</ele>
        <time>2022-06-29T15:37:58Z</time>
      </trkpt>
      <trkpt lat="44.73827" lon="-0.70773">
        <ele>43.2</ele>
        <time>2022-06-29T15:37:59Z</time>
      </trkpt>
      <trkpt lat="44.7384" lon="-0.70753">
        <ele>42.4</ele>
        <time>2022-06-29T15:38:02Z</time>
      </trkpt>
      <trkpt lat="44.73854" lon="-0.70731">
        <ele>42.6</ele>
        <time>2022-06-29T15:38:05Z</time>
      </trkpt>
      <trkpt lat="44.7386" lon="-0.70726">
        <ele>42.6</ele>
        <time>2022-06-29T15:38:06Z</time>
      </trkpt>
      <trkpt lat="44.73881" lon="-0.70712">
        <ele>42.6</ele>
        <time>2022-06-29T15:38:10Z</time>
      </trkpt>
      <trkpt lat="44.73892" lon="-0.70705">
        <ele>42.4</ele>
        <time>2022-06-29T15:38:12Z</time>
      </trkpt>
      <trkpt lat="44.7391" lon="-0.70696">
        <ele>42.8</ele>
        <time>2022-06-29T15:38:15Z</time>
      </trkpt>
      <trkpt lat="44.73945" lon="-0.7067">
        <ele>43.2</ele>
        <time>2022-06-29T15:38:21Z</time>
      </trkpt>
      <trkpt lat="44.73977" lon="-0.70639">
        <ele>43.4</ele>
        <time>2022-06-29T15:38:26Z</time>
      </trkpt>
      <trkpt lat="44.74016" lon="-0.70596">
        <ele>43.6</ele>
        <time>2022-06-29T15:38:33Z</time>
      </trkpt>
      <trkpt lat="44.74036" lon="-0.70579">
        <ele>44.2</ele>
        <time>2022-06-29T15:38:37Z</time>
      </trkpt>
      <trkpt lat="44.74046" lon="-0.70573">
        <ele>44.4</ele>
        <time>2022-06-29T15:38:39Z</time>
      </trkpt>
      <trkpt lat="44.74056" lon="-0.70566">
        <ele>44.4</ele>
        <time>2022-06-29T15:38:41Z</time>
      </trkpt>
      <trkpt lat="44.74066" lon="-0.70556">
        <ele>44.4</ele>
        <time>2022-06-29T15:38:43Z</time>
      </trkpt>
      <trkpt lat="44.74076" lon="-0.70548">
        <ele>44.4</ele>
        <time>2022-06-29T15:38:45Z</time>
      </trkpt>
      <trkpt lat="44.74089" lon="-0.70544">
        <ele>44.8</ele>
        <time>2022-06-29T15:38:48Z</time>
      </trkpt>
      <trkpt lat="44.741" lon="-0.70542">
        <ele>44.8</ele>
        <time>2022-06-29T15:38:50Z</time>
      </trkpt>
      <trkpt lat="44.74114" lon="-0.70539">
        <ele>44.6</ele>
        <time>2022-06-29T15:38:52Z</time>
      </trkpt>
      <trkpt lat="44.7412" lon="-0.70536">
        <ele>44.4</ele>
        <time>2022-06-29T15:38:53Z</time>
      </trkpt>
      <trkpt lat="44.74138" lon="-0.70521">
        <ele>44.4</ele>
        <time>2022-06-29T15:38:56Z</time>
      </trkpt>
      <trkpt lat="44.74144" lon="-0.70515">
        <ele>44.2</ele>
        <time>2022-06-29T15:38:57Z</time>
      </trkpt>
      <trkpt lat="44.74156" lon="-0.70493">
        <ele>44.4</ele>
        <time>2022-06-29T15:39:00Z</time>
      </trkpt>
      <trkpt lat="44.74163" lon="-0.70466">
        <ele>44</ele>
        <time>2022-06-29T15:39:04Z</time>
      </trkpt>
      <trkpt lat="44.74164" lon="-0.7046">
        <ele>44</ele>
        <time>2022-06-29T15:39:05Z</time>
      </trkpt>
      <trkpt lat="44.74164" lon="-0.7045">
        <ele>43.8</ele>
        <time>2022-06-29T15:39:07Z</time>
      </trkpt>
      <trkpt lat="44.74167" lon="-0.70439">
        <ele>44</ele>
        <time>2022-06-29T15:39:10Z</time>
      </trkpt>
      <trkpt lat="44.74162" lon="-0.70429">
        <ele>43.6</ele>
        <time>2022-06-29T15:39:12Z</time>
      </trkpt>
      <trkpt lat="44.74159" lon="-0.70424">
        <ele>43.2</ele>
        <time>2022-06-29T15:39:13Z</time>
      </trkpt>
      <trkpt lat="44.74149" lon="-0.70403">
        <ele>42</ele>
        <time>2022-06-29T15:39:17Z</time>
      </trkpt>
      <trkpt lat="44.74148" lon="-0.70398">
        <ele>41.6</ele>
        <time>2022-06-29T15:39:18Z</time>
      </trkpt>
      <trkpt lat="44.74152" lon="-0.70384">
        <ele>41.4</ele>
        <time>2022-06-29T15:39:21Z</time>
      </trkpt>
      <trkpt lat="44.74158" lon="-0.70373">
        <ele>41.2</ele>
        <time>2022-06-29T15:39:23Z</time>
      </trkpt>
      <trkpt lat="44.74163" lon="-0.70366">
        <ele>40.6</ele>
        <time>2022-06-29T15:39:24Z</time>
      </trkpt>
      <trkpt lat="44.74167" lon="-0.70359">
        <ele>40.2</ele>
        <time>2022-06-29T15:39:25Z</time>
      </trkpt>
      <trkpt lat="44.7417" lon="-0.70353">
        <ele>39.6</ele>
        <time>2022-06-29T15:39:26Z</time>
      </trkpt>
      <trkpt lat="44.74174" lon="-0.70345">
        <ele>39.2</ele>
        <time>2022-06-29T15:39:27Z</time>
      </trkpt>
      <trkpt lat="44.74178" lon="-0.70339">
        <ele>38.8</ele>
        <time>2022-06-29T15:39:28Z</time>
      </trkpt>
      <trkpt lat="44.74187" lon="-0.70333">
        <ele>38.8</ele>
        <time>2022-06-29T15:39:30Z</time>
      </trkpt>
      <trkpt lat="44.74189" lon="-0.70329">
        <ele>38.8</ele>
        <time>2022-06-29T15:39:31Z</time>
      </trkpt>
      <trkpt lat="44.74193" lon="-0.70319">
        <ele>38.8</ele>
        <time>2022-06-29T15:39:33Z</time>
      </trkpt>
      <trkpt lat="44.74193" lon="-0.70306">
        <ele>38.6</ele>
        <time>2022-06-29T15:39:35Z</time>
      </trkpt>
      <trkpt lat="44.74191" lon="-0.70301">
        <ele>38.4</ele>
        <time>2022-06-29T15:39:36Z</time>
      </trkpt>
      <trkpt lat="44.74191" lon="-0.70294">
        <ele>38.2</ele>
        <time>2022-06-29T15:39:37Z</time>
      </trkpt>
      <trkpt lat="44.7419" lon="-0.70288">
        <ele>38</ele>
        <time>2022-06-29T15:39:38Z</time>
      </trkpt>
      <trkpt lat="44.7419" lon="-0.70275">
        <ele>38</ele>
        <time>2022-06-29T15:39:40Z</time>
      </trkpt>
      <trkpt lat="44.74193" lon="-0.70257">
        <ele>38.2</ele>
        <time>2022-06-29T15:39:43Z</time>
      </trkpt>
      <trkpt lat="44.74195" lon="-0.70254">
        <ele>38.4</ele>
        <time>2022-06-29T15:39:44Z</time>
      </trkpt>
      <trkpt lat="44.74205" lon="-0.70239">
        <ele>38.2</ele>
        <time>2022-06-29T15:39:48Z</time>
      </trkpt>
      <trkpt lat="44.74207" lon="-0.70232">
        <ele>38</ele>
        <time>2022-06-29T15:39:49Z</time>
      </trkpt>
      <trkpt lat="44.74213" lon="-0.70208">
        <ele>38.2</ele>
        <time>2022-06-29T15:39:52Z</time>
      </trkpt>
      <trkpt lat="44.74222" lon="-0.70191">
        <ele>38</ele>
        <time>2022-06-29T15:39:55Z</time>
      </trkpt>
      <trkpt lat="44.74224" lon="-0.70186">
        <ele>38</ele>
        <time>2022-06-29T15:39:56Z</time>
      </trkpt>
      <trkpt lat="44.74227" lon="-0.70179">
        <ele>38</ele>
        <time>2022-06-29T15:39:57Z</time>
      </trkpt>
      <trkpt lat="44.74235" lon="-0.70165">
        <ele>37.4</ele>
        <time>2022-06-29T15:39:59Z</time>
      </trkpt>
      <trkpt lat="44.74241" lon="-0.70161">
        <ele>37</ele>
        <time>2022-06-29T15:40:00Z</time>
      </trkpt>
      <trkpt lat="44.7425" lon="-0.70143">
        <ele>36</ele>
        <time>2022-06-29T15:40:03Z</time>
      </trkpt>
      <trkpt lat="44.74259" lon="-0.70137">
        <ele>35.8</ele>
        <time>2022-06-29T15:40:05Z</time>
      </trkpt>
      <trkpt lat="44.74263" lon="-0.70137">
        <ele>35.8</ele>
        <time>2022-06-29T15:40:06Z</time>
      </trkpt>
      <trkpt lat="44.74274" lon="-0.70127">
        <ele>35.6</ele>
        <time>2022-06-29T15:40:09Z</time>
      </trkpt>
      <trkpt lat="44.74277" lon="-0.70122">
        <ele>35.4</ele>
        <time>2022-06-29T15:40:10Z</time>
      </trkpt>
      <trkpt lat="44.74288" lon="-0.701">
        <ele>35.4</ele>
        <time>2022-06-29T15:40:14Z</time>
      </trkpt>
      <trkpt lat="44.74291" lon="-0.70094">
        <ele>35.4</ele>
        <time>2022-06-29T15:40:15Z</time>
      </trkpt>
      <trkpt lat="44.74299" lon="-0.70074">
        <ele>35</ele>
        <time>2022-06-29T15:40:18Z</time>
      </trkpt>
      <trkpt lat="44.74299" lon="-0.70066">
        <ele>34.8</ele>
        <time>2022-06-29T15:40:19Z</time>
      </trkpt>
      <trkpt lat="44.74298" lon="-0.70042">
        <ele>34.2</ele>
        <time>2022-06-29T15:40:22Z</time>
      </trkpt>
      <trkpt lat="44.74297" lon="-0.70017">
        <ele>33.6</ele>
        <time>2022-06-29T15:40:25Z</time>
      </trkpt>
      <trkpt lat="44.74295" lon="-0.70008">
        <ele>33.4</ele>
        <time>2022-06-29T15:40:26Z</time>
      </trkpt>
      <trkpt lat="44.74293" lon="-0.7">
        <ele>33</ele>
        <time>2022-06-29T15:40:27Z</time>
      </trkpt>
      <trkpt lat="44.74291" lon="-0.69991">
        <ele>32.6</ele>
        <time>2022-06-29T15:40:28Z</time>
      </trkpt>
      <trkpt lat="44.74287" lon="-0.69963">
        <ele>31.4</ele>
        <time>2022-06-29T15:40:31Z</time>
      </trkpt>
      <trkpt lat="44.74282" lon="-0.69946">
        <ele>30.4</ele>
        <time>2022-06-29T15:40:33Z</time>
      </trkpt>
      <trkpt lat="44.7428" lon="-0.69928">
        <ele>29.6</ele>
        <time>2022-06-29T15:40:35Z</time>
      </trkpt>
      <trkpt lat="44.74281" lon="-0.69911">
        <ele>29.8</ele>
        <time>2022-06-29T15:40:37Z</time>
      </trkpt>
      <trkpt lat="44.74283" lon="-0.69886">
        <ele>29.6</ele>
        <time>2022-06-29T15:40:40Z</time>
      </trkpt>
      <trkpt lat="44.74285" lon="-0.69879">
        <ele>29.2</ele>
        <time>2022-06-29T15:40:41Z</time>
      </trkpt>
      <trkpt lat="44.74286" lon="-0.69871">
        <ele>29</ele>
        <time>2022-06-29T15:40:42Z</time>
      </trkpt>
      <trkpt lat="44.74288" lon="-0.69854">
        <ele>28.8</ele>
        <time>2022-06-29T15:40:44Z</time>
      </trkpt>
      <trkpt lat="44.74284" lon="-0.69838">
        <ele>29.2</ele>
        <time>2022-06-29T15:40:46Z</time>
      </trkpt>
      <trkpt lat="44.74279" lon="-0.69806">
        <ele>30.4</ele>
        <time>2022-06-29T15:40:50Z</time>
      </trkpt>
      <trkpt lat="44.74278" lon="-0.69798">
        <ele>30.6</ele>
        <time>2022-06-29T15:40:51Z</time>
      </trkpt>
      <trkpt lat="44.74269" lon="-0.69781">
        <ele>30.8</ele>
        <time>2022-06-29T15:40:54Z</time>
      </trkpt>
      <trkpt lat="44.74266" lon="-0.69768">
        <ele>31.2</ele>
        <time>2022-06-29T15:40:56Z</time>
      </trkpt>
      <trkpt lat="44.74264" lon="-0.69761">
        <ele>31.4</ele>
        <time>2022-06-29T15:40:57Z</time>
      </trkpt>
      <trkpt lat="44.74262" lon="-0.69752">
        <ele>31.2</ele>
        <time>2022-06-29T15:40:58Z</time>
      </trkpt>
      <trkpt lat="44.74249" lon="-0.69702">
        <ele>30.4</ele>
        <time>2022-06-29T15:41:04Z</time>
      </trkpt>
      <trkpt lat="44.74243" lon="-0.69673">
        <ele>31</ele>
        <time>2022-06-29T15:41:08Z</time>
      </trkpt>
      <trkpt lat="44.74243" lon="-0.69667">
        <ele>31.4</ele>
        <time>2022-06-29T15:41:09Z</time>
      </trkpt>
      <trkpt lat="44.74246" lon="-0.69646">
        <ele>31.6</ele>
        <time>2022-06-29T15:41:13Z</time>
      </trkpt>
      <trkpt lat="44.7425" lon="-0.69631">
        <ele>31.8</ele>
        <time>2022-06-29T15:41:15Z</time>
      </trkpt>
      <trkpt lat="44.74253" lon="-0.69625">
        <ele>32</ele>
        <time>2022-06-29T15:41:16Z</time>
      </trkpt>
      <trkpt lat="44.74256" lon="-0.6962">
        <ele>32</ele>
        <time>2022-06-29T15:41:17Z</time>
      </trkpt>
      <trkpt lat="44.74265" lon="-0.6961">
        <ele>32.8</ele>
        <time>2022-06-29T15:41:19Z</time>
      </trkpt>
      <trkpt lat="44.7427" lon="-0.69603">
        <ele>32.6</ele>
        <time>2022-06-29T15:41:20Z</time>
      </trkpt>
      <trkpt lat="44.74275" lon="-0.69596">
        <ele>32.8</ele>
        <time>2022-06-29T15:41:21Z</time>
      </trkpt>
      <trkpt lat="44.74285" lon="-0.69587">
        <ele>33</ele>
        <time>2022-06-29T15:41:23Z</time>
      </trkpt>
      <trkpt lat="44.74291" lon="-0.69585">
        <ele>32.8</ele>
        <time>2022-06-29T15:41:24Z</time>
      </trkpt>
      <trkpt lat="44.74303" lon="-0.69577">
        <ele>33</ele>
        <time>2022-06-29T15:41:26Z</time>
      </trkpt>
      <trkpt lat="44.74314" lon="-0.69566">
        <ele>33.4</ele>
        <time>2022-06-29T15:41:28Z</time>
      </trkpt>
      <trkpt lat="44.7432" lon="-0.6956">
        <ele>34.2</ele>
        <time>2022-06-29T15:41:29Z</time>
      </trkpt>
      <trkpt lat="44.7433" lon="-0.6955">
        <ele>34.4</ele>
        <time>2022-06-29T15:41:31Z</time>
      </trkpt>
      <trkpt lat="44.74332" lon="-0.69536">
        <ele>34.4</ele>
        <time>2022-06-29T15:41:33Z</time>
      </trkpt>
      <trkpt lat="44.74337" lon="-0.69502">
        <ele>33.8</ele>
        <time>2022-06-29T15:41:37Z</time>
      </trkpt>
      <trkpt lat="44.74336" lon="-0.69465">
        <ele>35</ele>
        <time>2022-06-29T15:41:41Z</time>
      </trkpt>
      <trkpt lat="44.74335" lon="-0.69457">
        <ele>35.4</ele>
        <time>2022-06-29T15:41:42Z</time>
      </trkpt>
      <trkpt lat="44.74334" lon="-0.69448">
        <ele>35.6</ele>
        <time>2022-06-29T15:41:43Z</time>
      </trkpt>
      <trkpt lat="44.74332" lon="-0.69423">
        <ele>36.8</ele>
        <time>2022-06-29T15:41:46Z</time>
      </trkpt>
      <trkpt lat="44.74332" lon="-0.69415">
        <ele>37.2</ele>
        <time>2022-06-29T15:41:47Z</time>
      </trkpt>
      <trkpt lat="44.74334" lon="-0.69399">
        <ele>38</ele>
        <time>2022-06-29T15:41:49Z</time>
      </trkpt>
      <trkpt lat="44.74342" lon="-0.69383">
        <ele>38.6</ele>
        <time>2022-06-29T15:41:51Z</time>
      </trkpt>
      <trkpt lat="44.74354" lon="-0.69347">
        <ele>38.2</ele>
        <time>2022-06-29T15:41:55Z</time>
      </trkpt>
      <trkpt lat="44.74356" lon="-0.69336">
        <ele>38</ele>
        <time>2022-06-29T15:41:56Z</time>
      </trkpt>
      <trkpt lat="44.74364" lon="-0.69283">
        <ele>37.8</ele>
        <time>2022-06-29T15:42:01Z</time>
      </trkpt>
      <trkpt lat="44.74372" lon="-0.69262">
        <ele>37.4</ele>
        <time>2022-06-29T15:42:04Z</time>
      </trkpt>
      <trkpt lat="44.74389" lon="-0.69256">
        <ele>36.8</ele>
        <time>2022-06-29T15:42:07Z</time>
      </trkpt>
      <trkpt lat="44.74396" lon="-0.69254">
        <ele>36.4</ele>
        <time>2022-06-29T15:42:08Z</time>
      </trkpt>
      <trkpt lat="44.74404" lon="-0.69255">
        <ele>36</ele>
        <time>2022-06-29T15:42:09Z</time>
      </trkpt>
      <trkpt lat="44.74412" lon="-0.69259">
        <ele>35.8</ele>
        <time>2022-06-29T15:42:10Z</time>
      </trkpt>
      <trkpt lat="44.74427" lon="-0.69263">
        <ele>35.4</ele>
        <time>2022-06-29T15:42:12Z</time>
      </trkpt>
      <trkpt lat="44.74441" lon="-0.69266">
        <ele>35</ele>
        <time>2022-06-29T15:42:14Z</time>
      </trkpt>
      <trkpt lat="44.74459" lon="-0.69274">
        <ele>34.6</ele>
        <time>2022-06-29T15:42:17Z</time>
      </trkpt>
      <trkpt lat="44.74465" lon="-0.69277">
        <ele>34.4</ele>
        <time>2022-06-29T15:42:18Z</time>
      </trkpt>
      <trkpt lat="44.74482" lon="-0.69286">
        <ele>33.6</ele>
        <time>2022-06-29T15:42:21Z</time>
      </trkpt>
      <trkpt lat="44.74492" lon="-0.69295">
        <ele>33.2</ele>
        <time>2022-06-29T15:42:23Z</time>
      </trkpt>
      <trkpt lat="44.74497" lon="-0.69299">
        <ele>33.4</ele>
        <time>2022-06-29T15:42:24Z</time>
      </trkpt>
      <trkpt lat="44.74502" lon="-0.69303">
        <ele>33.6</ele>
        <time>2022-06-29T15:42:25Z</time>
      </trkpt>
      <trkpt lat="44.74519" lon="-0.69314">
        <ele>34.4</ele>
        <time>2022-06-29T15:42:29Z</time>
      </trkpt>
      <trkpt lat="44.74528" lon="-0.69319">
        <ele>34.8</ele>
        <time>2022-06-29T15:42:31Z</time>
      </trkpt>
      <trkpt lat="44.74542" lon="-0.69325">
        <ele>36</ele>
        <time>2022-06-29T15:42:34Z</time>
      </trkpt>
      <trkpt lat="44.74546" lon="-0.69328">
        <ele>36.4</ele>
        <time>2022-06-29T15:42:35Z</time>
      </trkpt>
      <trkpt lat="44.74554" lon="-0.69333">
        <ele>37</ele>
        <time>2022-06-29T15:42:37Z</time>
      </trkpt>
      <trkpt lat="44.74565" lon="-0.69342">
        <ele>38.2</ele>
        <time>2022-06-29T15:42:40Z</time>
      </trkpt>
      <trkpt lat="44.74569" lon="-0.69345">
        <ele>38.6</ele>
        <time>2022-06-29T15:42:41Z</time>
      </trkpt>
      <trkpt lat="44.74577" lon="-0.6935">
        <ele>39.4</ele>
        <time>2022-06-29T15:42:43Z</time>
      </trkpt>
      <trkpt lat="44.74595" lon="-0.69361">
        <ele>40.4</ele>
        <time>2022-06-29T15:42:47Z</time>
      </trkpt>
      <trkpt lat="44.74599" lon="-0.69365">
        <ele>40.6</ele>
        <time>2022-06-29T15:42:48Z</time>
      </trkpt>
      <trkpt lat="44.74621" lon="-0.69379">
        <ele>41.2</ele>
        <time>2022-06-29T15:42:53Z</time>
      </trkpt>
      <trkpt lat="44.74624" lon="-0.69383">
        <ele>41.2</ele>
        <time>2022-06-29T15:42:54Z</time>
      </trkpt>
      <trkpt lat="44.74633" lon="-0.6939">
        <ele>41.4</ele>
        <time>2022-06-29T15:42:57Z</time>
      </trkpt>
      <trkpt lat="44.74639" lon="-0.69389">
        <ele>41.4</ele>
        <time>2022-06-29T15:42:59Z</time>
      </trkpt>
      <trkpt lat="44.74644" lon="-0.69384">
        <ele>41.2</ele>
        <time>2022-06-29T15:43:01Z</time>
      </trkpt>
      <trkpt lat="44.74649" lon="-0.69367">
        <ele>41.6</ele>
        <time>2022-06-29T15:43:05Z</time>
      </trkpt>
      <trkpt lat="44.74648" lon="-0.69363">
        <ele>41.6</ele>
        <time>2022-06-29T15:43:06Z</time>
      </trkpt>
      <trkpt lat="44.7464" lon="-0.69347">
        <ele>42</ele>
        <time>2022-06-29T15:43:10Z</time>
      </trkpt>
      <trkpt lat="44.74637" lon="-0.69344">
        <ele>42</ele>
        <time>2022-06-29T15:43:11Z</time>
      </trkpt>
      <trkpt lat="44.74619" lon="-0.69334">
        <ele>41.4</ele>
        <time>2022-06-29T15:43:16Z</time>
      </trkpt>
      <trkpt lat="44.74615" lon="-0.69332">
        <ele>41.2</ele>
        <time>2022-06-29T15:43:17Z</time>
      </trkpt>
      <trkpt lat="44.74606" lon="-0.69319">
        <ele>40.6</ele>
        <time>2022-06-29T15:43:21Z</time>
      </trkpt>
      <trkpt lat="44.74607" lon="-0.69313">
        <ele>40.2</ele>
        <time>2022-06-29T15:43:22Z</time>
      </trkpt>
      <trkpt lat="44.7461" lon="-0.69302">
        <ele>39.4</ele>
        <time>2022-06-29T15:43:24Z</time>
      </trkpt>
      <trkpt lat="44.74612" lon="-0.69296">
        <ele>39.4</ele>
        <time>2022-06-29T15:43:25Z</time>
      </trkpt>
      <trkpt lat="44.74622" lon="-0.69267">
        <ele>39.4</ele>
        <time>2022-06-29T15:43:29Z</time>
      </trkpt>
      <trkpt lat="44.74633" lon="-0.69232">
        <ele>39</ele>
        <time>2022-06-29T15:43:34Z</time>
      </trkpt>
      <trkpt lat="44.74638" lon="-0.69217">
        <ele>39</ele>
        <time>2022-06-29T15:43:36Z</time>
      </trkpt>
      <trkpt lat="44.74658" lon="-0.6915">
        <ele>39.4</ele>
        <time>2022-06-29T15:43:46Z</time>
      </trkpt>
      <trkpt lat="44.74666" lon="-0.69139">
        <ele>39.4</ele>
        <time>2022-06-29T15:43:50Z</time>
      </trkpt>
      <trkpt lat="44.74675" lon="-0.69142">
        <ele>39.6</ele>
        <time>2022-06-29T15:43:53Z</time>
      </trkpt>
      <trkpt lat="44.74681" lon="-0.69143">
        <ele>39.8</ele>
        <time>2022-06-29T15:43:56Z</time>
      </trkpt>
      <trkpt lat="44.74683" lon="-0.69138">
        <ele>39.8</ele>
        <time>2022-06-29T15:43:58Z</time>
      </trkpt>
      <trkpt lat="44.74685" lon="-0.69136">
        <ele>39.6</ele>
        <time>2022-06-29T15:44:00Z</time>
      </trkpt>
      <trkpt lat="44.74684" lon="-0.69134">
        <ele>39.4</ele>
        <time>2022-06-29T15:44:01Z</time>
      </trkpt>
      <trkpt lat="44.74684" lon="-0.69132">
        <ele>39.4</ele>
        <time>2022-06-29T15:44:02Z</time>
      </trkpt>
      <trkpt lat="44.74683" lon="-0.69112">
        <ele>39.4</ele>
        <time>2022-06-29T15:44:08Z</time>
      </trkpt>
      <trkpt lat="44.74685" lon="-0.691">
        <ele>39.2</ele>
        <time>2022-06-29T15:44:10Z</time>
      </trkpt>
      <trkpt lat="44.74688" lon="-0.69088">
        <ele>39</ele>
        <time>2022-06-29T15:44:12Z</time>
      </trkpt>
      <trkpt lat="44.74691" lon="-0.69075">
        <ele>39</ele>
        <time>2022-06-29T15:44:14Z</time>
      </trkpt>
      <trkpt lat="44.74692" lon="-0.69061">
        <ele>39.2</ele>
        <time>2022-06-29T15:44:16Z</time>
      </trkpt>
      <trkpt lat="44.74692" lon="-0.69049">
        <ele>39</ele>
        <time>2022-06-29T15:44:18Z</time>
      </trkpt>
      <trkpt lat="44.74693" lon="-0.69028">
        <ele>38.6</ele>
        <time>2022-06-29T15:44:21Z</time>
      </trkpt>
      <trkpt lat="44.74699" lon="-0.68993">
        <ele>38.8</ele>
        <time>2022-06-29T15:44:26Z</time>
      </trkpt>
      <trkpt lat="44.74701" lon="-0.68986">
        <ele>39</ele>
        <time>2022-06-29T15:44:27Z</time>
      </trkpt>
      <trkpt lat="44.74709" lon="-0.68941">
        <ele>39.4</ele>
        <time>2022-06-29T15:44:33Z</time>
      </trkpt>
      <trkpt lat="44.74714" lon="-0.68916">
        <ele>39.8</ele>
        <time>2022-06-29T15:44:36Z</time>
      </trkpt>
      <trkpt lat="44.74713" lon="-0.68902">
        <ele>40</ele>
        <time>2022-06-29T15:44:38Z</time>
      </trkpt>
      <trkpt lat="44.74713" lon="-0.68874">
        <ele>39.6</ele>
        <time>2022-06-29T15:44:42Z</time>
      </trkpt>
      <trkpt lat="44.74713" lon="-0.68861">
        <ele>39.8</ele>
        <time>2022-06-29T15:44:44Z</time>
      </trkpt>
      <trkpt lat="44.74712" lon="-0.68855">
        <ele>40.2</ele>
        <time>2022-06-29T15:44:45Z</time>
      </trkpt>
      <trkpt lat="44.7471" lon="-0.68849">
        <ele>40.2</ele>
        <time>2022-06-29T15:44:46Z</time>
      </trkpt>
      <trkpt lat="44.74702" lon="-0.68842">
        <ele>40.4</ele>
        <time>2022-06-29T15:44:48Z</time>
      </trkpt>
      <trkpt lat="44.74683" lon="-0.68837">
        <ele>40.4</ele>
        <time>2022-06-29T15:44:52Z</time>
      </trkpt>
      <trkpt lat="44.74678" lon="-0.68837">
        <ele>40</ele>
        <time>2022-06-29T15:44:53Z</time>
      </trkpt>
      <trkpt lat="44.74661" lon="-0.68833">
        <ele>39</ele>
        <time>2022-06-29T15:44:58Z</time>
      </trkpt>
      <trkpt lat="44.74661" lon="-0.68817">
        <ele>39</ele>
        <time>2022-06-29T15:45:02Z</time>
      </trkpt>
      <trkpt lat="44.74661" lon="-0.68801">
        <ele>38</ele>
        <time>2022-06-29T15:45:05Z</time>
      </trkpt>
      <trkpt lat="44.74662" lon="-0.68794">
        <ele>37.8</ele>
        <time>2022-06-29T15:45:06Z</time>
      </trkpt>
      <trkpt lat="44.74661" lon="-0.68779">
        <ele>37.4</ele>
        <time>2022-06-29T15:45:08Z</time>
      </trkpt>
      <trkpt lat="44.74657" lon="-0.68757">
        <ele>37.2</ele>
        <time>2022-06-29T15:45:11Z</time>
      </trkpt>
      <trkpt lat="44.74654" lon="-0.68749">
        <ele>37</ele>
        <time>2022-06-29T15:45:12Z</time>
      </trkpt>
      <trkpt lat="44.74652" lon="-0.68742">
        <ele>36.6</ele>
        <time>2022-06-29T15:45:13Z</time>
      </trkpt>
      <trkpt lat="44.74644" lon="-0.68726">
        <ele>36.2</ele>
        <time>2022-06-29T15:45:16Z</time>
      </trkpt>
      <trkpt lat="44.74634" lon="-0.6872">
        <ele>36.8</ele>
        <time>2022-06-29T15:45:20Z</time>
      </trkpt>
      <trkpt lat="44.74636" lon="-0.68717">
        <ele>37.8</ele>
        <time>2022-06-29T15:45:24Z</time>
      </trkpt>
      <trkpt lat="44.74637" lon="-0.68712">
        <ele>37.8</ele>
        <time>2022-06-29T15:45:25Z</time>
      </trkpt>
      <trkpt lat="44.74642" lon="-0.68694">
        <ele>37.6</ele>
        <time>2022-06-29T15:45:29Z</time>
      </trkpt>
      <trkpt lat="44.74654" lon="-0.68682">
        <ele>37.6</ele>
        <time>2022-06-29T15:45:32Z</time>
      </trkpt>
      <trkpt lat="44.74658" lon="-0.68679">
        <ele>37.6</ele>
        <time>2022-06-29T15:45:33Z</time>
      </trkpt>
      <trkpt lat="44.74662" lon="-0.68674">
        <ele>37.8</ele>
        <time>2022-06-29T15:45:34Z</time>
      </trkpt>
      <trkpt lat="44.74668" lon="-0.68672">
        <ele>37.6</ele>
        <time>2022-06-29T15:45:36Z</time>
      </trkpt>
      <trkpt lat="44.74677" lon="-0.68675">
        <ele>36.8</ele>
        <time>2022-06-29T15:45:39Z</time>
      </trkpt>
      <trkpt lat="44.74685" lon="-0.6868">
        <ele>35.6</ele>
        <time>2022-06-29T15:45:41Z</time>
      </trkpt>
      <trkpt lat="44.74704" lon="-0.68683">
        <ele>34.4</ele>
        <time>2022-06-29T15:45:45Z</time>
      </trkpt>
      <trkpt lat="44.74711" lon="-0.68686">
        <ele>33.8</ele>
        <time>2022-06-29T15:45:47Z</time>
      </trkpt>
      <trkpt lat="44.74716" lon="-0.68686">
        <ele>33.8</ele>
        <time>2022-06-29T15:45:48Z</time>
      </trkpt>
      <trkpt lat="44.74732" lon="-0.6868">
        <ele>33.4</ele>
        <time>2022-06-29T15:45:51Z</time>
      </trkpt>
      <trkpt lat="44.74749" lon="-0.6866">
        <ele>33.2</ele>
        <time>2022-06-29T15:45:55Z</time>
      </trkpt>
      <trkpt lat="44.74754" lon="-0.68652">
        <ele>33.2</ele>
        <time>2022-06-29T15:45:56Z</time>
      </trkpt>
      <trkpt lat="44.7476" lon="-0.68646">
        <ele>33.2</ele>
        <time>2022-06-29T15:45:57Z</time>
      </trkpt>
      <trkpt lat="44.74771" lon="-0.68642">
        <ele>33.4</ele>
        <time>2022-06-29T15:45:59Z</time>
      </trkpt>
      <trkpt lat="44.74786" lon="-0.68631">
        <ele>34</ele>
        <time>2022-06-29T15:46:03Z</time>
      </trkpt>
      <trkpt lat="44.74799" lon="-0.68616">
        <ele>34.2</ele>
        <time>2022-06-29T15:46:07Z</time>
      </trkpt>
      <trkpt lat="44.74803" lon="-0.68615">
        <ele>34.4</ele>
        <time>2022-06-29T15:46:08Z</time>
      </trkpt>
      <trkpt lat="44.74814" lon="-0.68619">
        <ele>34.2</ele>
        <time>2022-06-29T15:46:11Z</time>
      </trkpt>
      <trkpt lat="44.74825" lon="-0.68635">
        <ele>34</ele>
        <time>2022-06-29T15:46:15Z</time>
      </trkpt>
      <trkpt lat="44.74833" lon="-0.68647">
        <ele>34.2</ele>
        <time>2022-06-29T15:46:19Z</time>
      </trkpt>
      <trkpt lat="44.74845" lon="-0.68649">
        <ele>34.8</ele>
        <time>2022-06-29T15:46:22Z</time>
      </trkpt>
      <trkpt lat="44.74849" lon="-0.68648">
        <ele>35.4</ele>
        <time>2022-06-29T15:46:23Z</time>
      </trkpt>
      <trkpt lat="44.74862" lon="-0.68641">
        <ele>36</ele>
        <time>2022-06-29T15:46:26Z</time>
      </trkpt>
      <trkpt lat="44.7487" lon="-0.68642">
        <ele>36.2</ele>
        <time>2022-06-29T15:46:28Z</time>
      </trkpt>
      <trkpt lat="44.74883" lon="-0.68651">
        <ele>35.6</ele>
        <time>2022-06-29T15:46:32Z</time>
      </trkpt>
      <trkpt lat="44.74896" lon="-0.68651">
        <ele>35.8</ele>
        <time>2022-06-29T15:46:35Z</time>
      </trkpt>
      <trkpt lat="44.749" lon="-0.68652">
        <ele>35.6</ele>
        <time>2022-06-29T15:46:36Z</time>
      </trkpt>
      <trkpt lat="44.74903" lon="-0.68655">
        <ele>35.6</ele>
        <time>2022-06-29T15:46:37Z</time>
      </trkpt>
      <trkpt lat="44.7491" lon="-0.6866">
        <ele>35</ele>
        <time>2022-06-29T15:46:39Z</time>
      </trkpt>
      <trkpt lat="44.74914" lon="-0.68664">
        <ele>34.4</ele>
        <time>2022-06-29T15:46:40Z</time>
      </trkpt>
      <trkpt lat="44.74917" lon="-0.68668">
        <ele>33.8</ele>
        <time>2022-06-29T15:46:41Z</time>
      </trkpt>
      <trkpt lat="44.74919" lon="-0.68672">
        <ele>33.2</ele>
        <time>2022-06-29T15:46:42Z</time>
      </trkpt>
      <trkpt lat="44.74921" lon="-0.68676">
        <ele>32.6</ele>
        <time>2022-06-29T15:46:43Z</time>
      </trkpt>
      <trkpt lat="44.74923" lon="-0.68682">
        <ele>32.6</ele>
        <time>2022-06-29T15:46:44Z</time>
      </trkpt>
      <trkpt lat="44.74936" lon="-0.68686">
        <ele>31.2</ele>
        <time>2022-06-29T15:46:47Z</time>
      </trkpt>
      <trkpt lat="44.74945" lon="-0.68685">
        <ele>30.2</ele>
        <time>2022-06-29T15:46:49Z</time>
      </trkpt>
      <trkpt lat="44.74952" lon="-0.68689">
        <ele>29.4</ele>
        <time>2022-06-29T15:46:51Z</time>
      </trkpt>
      <trkpt lat="44.74957" lon="-0.6869">
        <ele>29</ele>
        <time>2022-06-29T15:46:52Z</time>
      </trkpt>
      <trkpt lat="44.74972" lon="-0.68682">
        <ele>28</ele>
        <time>2022-06-29T15:46:55Z</time>
      </trkpt>
      <trkpt lat="44.74976" lon="-0.68677">
        <ele>27.8</ele>
        <time>2022-06-29T15:46:56Z</time>
      </trkpt>
      <trkpt lat="44.74982" lon="-0.68664">
        <ele>27.2</ele>
        <time>2022-06-29T15:46:58Z</time>
      </trkpt>
      <trkpt lat="44.7499" lon="-0.68653">
        <ele>26.6</ele>
        <time>2022-06-29T15:47:00Z</time>
      </trkpt>
      <trkpt lat="44.74998" lon="-0.68646">
        <ele>26</ele>
        <time>2022-06-29T15:47:02Z</time>
      </trkpt>
      <trkpt lat="44.75007" lon="-0.68638">
        <ele>25.6</ele>
        <time>2022-06-29T15:47:04Z</time>
      </trkpt>
      <trkpt lat="44.75014" lon="-0.68624">
        <ele>25.6</ele>
        <time>2022-06-29T15:47:06Z</time>
      </trkpt>
      <trkpt lat="44.75013" lon="-0.68605">
        <ele>24.8</ele>
        <time>2022-06-29T15:47:09Z</time>
      </trkpt>
      <trkpt lat="44.75012" lon="-0.686">
        <ele>24.2</ele>
        <time>2022-06-29T15:47:10Z</time>
      </trkpt>
      <trkpt lat="44.75012" lon="-0.68592">
        <ele>23</ele>
        <time>2022-06-29T15:47:12Z</time>
      </trkpt>
      <trkpt lat="44.75013" lon="-0.68583">
        <ele>22.2</ele>
        <time>2022-06-29T15:47:16Z</time>
      </trkpt>
      <trkpt lat="44.75015" lon="-0.68577">
        <ele>22</ele>
        <time>2022-06-29T15:47:18Z</time>
      </trkpt>
      <trkpt lat="44.75021" lon="-0.68568">
        <ele>22.2</ele>
        <time>2022-06-29T15:47:21Z</time>
      </trkpt>
      <trkpt lat="44.75034" lon="-0.68549">
        <ele>22.4</ele>
        <time>2022-06-29T15:47:28Z</time>
      </trkpt>
      <trkpt lat="44.7505" lon="-0.68544">
        <ele>22.4</ele>
        <time>2022-06-29T15:47:34Z</time>
      </trkpt>
      <trkpt lat="44.75065" lon="-0.68551">
        <ele>21</ele>
        <time>2022-06-29T15:47:38Z</time>
      </trkpt>
      <trkpt lat="44.75069" lon="-0.68551">
        <ele>20.6</ele>
        <time>2022-06-29T15:47:39Z</time>
      </trkpt>
      <trkpt lat="44.75082" lon="-0.68545">
        <ele>19.6</ele>
        <time>2022-06-29T15:47:42Z</time>
      </trkpt>
      <trkpt lat="44.75086" lon="-0.68544">
        <ele>19</ele>
        <time>2022-06-29T15:47:43Z</time>
      </trkpt>
      <trkpt lat="44.75095" lon="-0.68539">
        <ele>18.6</ele>
        <time>2022-06-29T15:47:45Z</time>
      </trkpt>
      <trkpt lat="44.75108" lon="-0.68534">
        <ele>19</ele>
        <time>2022-06-29T15:47:48Z</time>
      </trkpt>
      <trkpt lat="44.75113" lon="-0.68531">
        <ele>19.4</ele>
        <time>2022-06-29T15:47:50Z</time>
      </trkpt>
      <trkpt lat="44.75116" lon="-0.68528">
        <ele>19.8</ele>
        <time>2022-06-29T15:47:51Z</time>
      </trkpt>
      <trkpt lat="44.75119" lon="-0.68527">
        <ele>20</ele>
        <time>2022-06-29T15:47:52Z</time>
      </trkpt>
      <trkpt lat="44.75129" lon="-0.68509">
        <ele>23.8</ele>
        <time>2022-06-29T15:48:05Z</time>
      </trkpt>
      <trkpt lat="44.75128" lon="-0.68503">
        <ele>25</ele>
        <time>2022-06-29T15:48:07Z</time>
      </trkpt>
      <trkpt lat="44.75127" lon="-0.68501">
        <ele>25.6</ele>
        <time>2022-06-29T15:48:08Z</time>
      </trkpt>
      <trkpt lat="44.75125" lon="-0.685">
        <ele>27</ele>
        <time>2022-06-29T15:48:09Z</time>
      </trkpt>
      <trkpt lat="44.75123" lon="-0.68499">
        <ele>28.6</ele>
        <time>2022-06-29T15:48:11Z</time>
      </trkpt>
      <trkpt lat="44.75122" lon="-0.68499">
        <ele>29.2</ele>
        <time>2022-06-29T15:48:12Z</time>
      </trkpt>
      <trkpt lat="44.7512" lon="-0.68499">
        <ele>29.8</ele>
        <time>2022-06-29T15:48:13Z</time>
      </trkpt>
      <trkpt lat="44.75119" lon="-0.68497">
        <ele>30.6</ele>
        <time>2022-06-29T15:48:14Z</time>
      </trkpt>
      <trkpt lat="44.75116" lon="-0.68491">
        <ele>31.2</ele>
        <time>2022-06-29T15:48:16Z</time>
      </trkpt>
      <trkpt lat="44.75119" lon="-0.68478">
        <ele>30.4</ele>
        <time>2022-06-29T15:48:20Z</time>
      </trkpt>
      <trkpt lat="44.75122" lon="-0.68471">
        <ele>30.4</ele>
        <time>2022-06-29T15:48:22Z</time>
      </trkpt>
      <trkpt lat="44.75125" lon="-0.68468">
        <ele>30</ele>
        <time>2022-06-29T15:48:23Z</time>
      </trkpt>
      <trkpt lat="44.75133" lon="-0.68458">
        <ele>30</ele>
        <time>2022-06-29T15:48:26Z</time>
      </trkpt>
      <trkpt lat="44.75148" lon="-0.68439">
        <ele>30.4</ele>
        <time>2022-06-29T15:48:31Z</time>
      </trkpt>
      <trkpt lat="44.75165" lon="-0.68421">
        <ele>30.2</ele>
        <time>2022-06-29T15:48:36Z</time>
      </trkpt>
      <trkpt lat="44.75176" lon="-0.68407">
        <ele>29.8</ele>
        <time>2022-06-29T15:48:40Z</time>
      </trkpt>
      <trkpt lat="44.75179" lon="-0.68406">
        <ele>30</ele>
        <time>2022-06-29T15:48:41Z</time>
      </trkpt>
      <trkpt lat="44.75193" lon="-0.68392">
        <ele>30.2</ele>
        <time>2022-06-29T15:48:45Z</time>
      </trkpt>
      <trkpt lat="44.75195" lon="-0.68381">
        <ele>30.6</ele>
        <time>2022-06-29T15:48:47Z</time>
      </trkpt>
      <trkpt lat="44.75198" lon="-0.68365">
        <ele>29.6</ele>
        <time>2022-06-29T15:48:51Z</time>
      </trkpt>
      <trkpt lat="44.75201" lon="-0.68361">
        <ele>29</ele>
        <time>2022-06-29T15:48:52Z</time>
      </trkpt>
      <trkpt lat="44.75205" lon="-0.68358">
        <ele>27.8</ele>
        <time>2022-06-29T15:48:53Z</time>
      </trkpt>
      <trkpt lat="44.75209" lon="-0.68358">
        <ele>27</ele>
        <time>2022-06-29T15:48:54Z</time>
      </trkpt>
      <trkpt lat="44.75214" lon="-0.68359">
        <ele>26.4</ele>
        <time>2022-06-29T15:48:55Z</time>
      </trkpt>
      <trkpt lat="44.75217" lon="-0.68359">
        <ele>26</ele>
        <time>2022-06-29T15:48:56Z</time>
      </trkpt>
      <trkpt lat="44.7522" lon="-0.68359">
        <ele>25.2</ele>
        <time>2022-06-29T15:48:57Z</time>
      </trkpt>
      <trkpt lat="44.75229" lon="-0.68355">
        <ele>23.8</ele>
        <time>2022-06-29T15:48:59Z</time>
      </trkpt>
      <trkpt lat="44.75234" lon="-0.68354">
        <ele>23.2</ele>
        <time>2022-06-29T15:49:00Z</time>
      </trkpt>
      <trkpt lat="44.75239" lon="-0.68352">
        <ele>22.4</ele>
        <time>2022-06-29T15:49:01Z</time>
      </trkpt>
      <trkpt lat="44.75245" lon="-0.6835">
        <ele>21.8</ele>
        <time>2022-06-29T15:49:02Z</time>
      </trkpt>
      <trkpt lat="44.7525" lon="-0.68348">
        <ele>21.4</ele>
        <time>2022-06-29T15:49:03Z</time>
      </trkpt>
      <trkpt lat="44.75258" lon="-0.68344">
        <ele>20.4</ele>
        <time>2022-06-29T15:49:05Z</time>
      </trkpt>
      <trkpt lat="44.75262" lon="-0.68341">
        <ele>20</ele>
        <time>2022-06-29T15:49:06Z</time>
      </trkpt>
      <trkpt lat="44.7527" lon="-0.68339">
        <ele>19.8</ele>
        <time>2022-06-29T15:49:08Z</time>
      </trkpt>
      <trkpt lat="44.75274" lon="-0.68339">
        <ele>20</ele>
        <time>2022-06-29T15:49:09Z</time>
      </trkpt>
      <trkpt lat="44.75294" lon="-0.68333">
        <ele>19.8</ele>
        <time>2022-06-29T15:49:15Z</time>
      </trkpt>
      <trkpt lat="44.75314" lon="-0.68332">
        <ele>18.6</ele>
        <time>2022-06-29T15:49:20Z</time>
      </trkpt>
      <trkpt lat="44.75336" lon="-0.68322">
        <ele>18.6</ele>
        <time>2022-06-29T15:49:24Z</time>
      </trkpt>
      <trkpt lat="44.75354" lon="-0.68304">
        <ele>18.8</ele>
        <time>2022-06-29T15:49:28Z</time>
      </trkpt>
      <trkpt lat="44.75378" lon="-0.68286">
        <ele>19.6</ele>
        <time>2022-06-29T15:49:33Z</time>
      </trkpt>
      <trkpt lat="44.75389" lon="-0.68264">
        <ele>19.6</ele>
        <time>2022-06-29T15:49:37Z</time>
      </trkpt>
      <trkpt lat="44.75392" lon="-0.68259">
        <ele>19.4</ele>
        <time>2022-06-29T15:49:38Z</time>
      </trkpt>
      <trkpt lat="44.75396" lon="-0.68241">
        <ele>18.8</ele>
        <time>2022-06-29T15:49:41Z</time>
      </trkpt>
      <trkpt lat="44.75398" lon="-0.68235">
        <ele>18.6</ele>
        <time>2022-06-29T15:49:42Z</time>
      </trkpt>
      <trkpt lat="44.75403" lon="-0.68208">
        <ele>17.4</ele>
        <time>2022-06-29T15:49:46Z</time>
      </trkpt>
      <trkpt lat="44.75406" lon="-0.68204">
        <ele>17.2</ele>
        <time>2022-06-29T15:49:47Z</time>
      </trkpt>
      <trkpt lat="44.75412" lon="-0.68198">
        <ele>16.4</ele>
        <time>2022-06-29T15:49:49Z</time>
      </trkpt>
      <trkpt lat="44.75418" lon="-0.68191">
        <ele>15.8</ele>
        <time>2022-06-29T15:49:51Z</time>
      </trkpt>
      <trkpt lat="44.75417" lon="-0.68178">
        <ele>15</ele>
        <time>2022-06-29T15:49:54Z</time>
      </trkpt>
      <trkpt lat="44.75412" lon="-0.68167">
        <ele>13.6</ele>
        <time>2022-06-29T15:49:57Z</time>
      </trkpt>
      <trkpt lat="44.7541" lon="-0.68161">
        <ele>13.2</ele>
        <time>2022-06-29T15:49:58Z</time>
      </trkpt>
      <trkpt lat="44.75408" lon="-0.68156">
        <ele>12.4</ele>
        <time>2022-06-29T15:49:59Z</time>
      </trkpt>
      <trkpt lat="44.75405" lon="-0.68153">
        <ele>12.4</ele>
        <time>2022-06-29T15:50:00Z</time>
      </trkpt>
      <trkpt lat="44.75406" lon="-0.68148">
        <ele>12.2</ele>
        <time>2022-06-29T15:50:01Z</time>
      </trkpt>
      <trkpt lat="44.75409" lon="-0.68142">
        <ele>12.2</ele>
        <time>2022-06-29T15:50:02Z</time>
      </trkpt>
      <trkpt lat="44.75423" lon="-0.68118">
        <ele>11.8</ele>
        <time>2022-06-29T15:50:07Z</time>
      </trkpt>
      <trkpt lat="44.75433" lon="-0.6811">
        <ele>11.4</ele>
        <time>2022-06-29T15:50:10Z</time>
      </trkpt>
      <trkpt lat="44.75438" lon="-0.681">
        <ele>11.4</ele>
        <time>2022-06-29T15:50:12Z</time>
      </trkpt>
      <trkpt lat="44.75447" lon="-0.68088">
        <ele>11.6</ele>
        <time>2022-06-29T15:50:15Z</time>
      </trkpt>
      <trkpt lat="44.75452" lon="-0.68086">
        <ele>11.6</ele>
        <time>2022-06-29T15:50:17Z</time>
      </trkpt>
      <trkpt lat="44.75469" lon="-0.68082">
        <ele>11.8</ele>
        <time>2022-06-29T15:50:23Z</time>
      </trkpt>
      <trkpt lat="44.75485" lon="-0.68072">
        <ele>11.8</ele>
        <time>2022-06-29T15:50:28Z</time>
      </trkpt>
      <trkpt lat="44.75493" lon="-0.68062">
        <ele>12</ele>
        <time>2022-06-29T15:50:32Z</time>
      </trkpt>
      <trkpt lat="44.75495" lon="-0.68063">
        <ele>12.6</ele>
        <time>2022-06-29T15:50:33Z</time>
      </trkpt>
      <trkpt lat="44.75501" lon="-0.68065">
        <ele>12.6</ele>
        <time>2022-06-29T15:50:35Z</time>
      </trkpt>
      <trkpt lat="44.75508" lon="-0.68066">
        <ele>12</ele>
        <time>2022-06-29T15:50:37Z</time>
      </trkpt>
      <trkpt lat="44.75513" lon="-0.6807">
        <ele>12.6</ele>
        <time>2022-06-29T15:50:39Z</time>
      </trkpt>
      <trkpt lat="44.75516" lon="-0.6807">
        <ele>13.2</ele>
        <time>2022-06-29T15:50:40Z</time>
      </trkpt>
      <trkpt lat="44.75522" lon="-0.68071">
        <ele>13.8</ele>
        <time>2022-06-29T15:50:42Z</time>
      </trkpt>
      <trkpt lat="44.75534" lon="-0.68068">
        <ele>12.6</ele>
        <time>2022-06-29T15:50:44Z</time>
      </trkpt>
      <trkpt lat="44.75536" lon="-0.68068">
        <ele>12.6</ele>
        <time>2022-06-29T15:50:45Z</time>
      </trkpt>
      <trkpt lat="44.75543" lon="-0.68067">
        <ele>13.6</ele>
        <time>2022-06-29T15:50:46Z</time>
      </trkpt>
      <trkpt lat="44.75556" lon="-0.68066">
        <ele>14.4</ele>
        <time>2022-06-29T15:50:49Z</time>
      </trkpt>
      <trkpt lat="44.75562" lon="-0.68064">
        <ele>14.6</ele>
        <time>2022-06-29T15:50:51Z</time>
      </trkpt>
      <trkpt lat="44.75564" lon="-0.68062">
        <ele>15</ele>
        <time>2022-06-29T15:50:52Z</time>
      </trkpt>
      <trkpt lat="44.75567" lon="-0.68057">
        <ele>15.6</ele>
        <time>2022-06-29T15:50:53Z</time>
      </trkpt>
      <trkpt lat="44.75572" lon="-0.6805">
        <ele>17.4</ele>
        <time>2022-06-29T15:50:55Z</time>
      </trkpt>
      <trkpt lat="44.75574" lon="-0.68045">
        <ele>18.4</ele>
        <time>2022-06-29T15:50:56Z</time>
      </trkpt>
      <trkpt lat="44.75576" lon="-0.6804">
        <ele>17.8</ele>
        <time>2022-06-29T15:50:57Z</time>
      </trkpt>
      <trkpt lat="44.75583" lon="-0.68029">
        <ele>17.8</ele>
        <time>2022-06-29T15:50:59Z</time>
      </trkpt>
      <trkpt lat="44.75588" lon="-0.68025">
        <ele>17.8</ele>
        <time>2022-06-29T15:51:00Z</time>
      </trkpt>
      <trkpt lat="44.75609" lon="-0.68003">
        <ele>18.2</ele>
        <time>2022-06-29T15:51:06Z</time>
      </trkpt>
      <trkpt lat="44.75612" lon="-0.67998">
        <ele>18.4</ele>
        <time>2022-06-29T15:51:07Z</time>
      </trkpt>
      <trkpt lat="44.75617" lon="-0.67987">
        <ele>18.4</ele>
        <time>2022-06-29T15:51:09Z</time>
      </trkpt>
      <trkpt lat="44.75622" lon="-0.67977">
        <ele>17.8</ele>
        <time>2022-06-29T15:51:11Z</time>
      </trkpt>
      <trkpt lat="44.75624" lon="-0.67972">
        <ele>17.8</ele>
        <time>2022-06-29T15:51:13Z</time>
      </trkpt>
      <trkpt lat="44.75626" lon="-0.67968">
        <ele>17.6</ele>
        <time>2022-06-29T15:51:15Z</time>
      </trkpt>
      <trkpt lat="44.75629" lon="-0.67964">
        <ele>17.8</ele>
        <time>2022-06-29T15:51:16Z</time>
      </trkpt>
      <trkpt lat="44.75633" lon="-0.67961">
        <ele>18.4</ele>
        <time>2022-06-29T15:51:18Z</time>
      </trkpt>
      <trkpt lat="44.75634" lon="-0.6796">
        <ele>18.4</ele>
        <time>2022-06-29T15:51:19Z</time>
      </trkpt>
      <trkpt lat="44.75642" lon="-0.67951">
        <ele>19.6</ele>
        <time>2022-06-29T15:51:22Z</time>
      </trkpt>
      <trkpt lat="44.75647" lon="-0.67943">
        <ele>20.8</ele>
        <time>2022-06-29T15:51:24Z</time>
      </trkpt>
      <trkpt lat="44.75657" lon="-0.67929">
        <ele>22.2</ele>
        <time>2022-06-29T15:51:28Z</time>
      </trkpt>
      <trkpt lat="44.75659" lon="-0.67924">
        <ele>22.4</ele>
        <time>2022-06-29T15:51:29Z</time>
      </trkpt>
      <trkpt lat="44.75661" lon="-0.67907">
        <ele>22.2</ele>
        <time>2022-06-29T15:51:32Z</time>
      </trkpt>
      <trkpt lat="44.75662" lon="-0.67896">
        <ele>22.2</ele>
        <time>2022-06-29T15:51:34Z</time>
      </trkpt>
      <trkpt lat="44.75668" lon="-0.67877">
        <ele>22.4</ele>
        <time>2022-06-29T15:51:38Z</time>
      </trkpt>
      <trkpt lat="44.75675" lon="-0.67867">
        <ele>23.6</ele>
        <time>2022-06-29T15:51:41Z</time>
      </trkpt>
      <trkpt lat="44.75678" lon="-0.6786">
        <ele>24.2</ele>
        <time>2022-06-29T15:51:42Z</time>
      </trkpt>
      <trkpt lat="44.7568" lon="-0.67854">
        <ele>24.2</ele>
        <time>2022-06-29T15:51:43Z</time>
      </trkpt>
      <trkpt lat="44.75692" lon="-0.67833">
        <ele>22.8</ele>
        <time>2022-06-29T15:51:47Z</time>
      </trkpt>
      <trkpt lat="44.75693" lon="-0.67829">
        <ele>22.8</ele>
        <time>2022-06-29T15:51:48Z</time>
      </trkpt>
      <trkpt lat="44.75694" lon="-0.67825">
        <ele>23.2</ele>
        <time>2022-06-29T15:51:49Z</time>
      </trkpt>
      <trkpt lat="44.75695" lon="-0.67818">
        <ele>24.8</ele>
        <time>2022-06-29T15:51:51Z</time>
      </trkpt>
      <trkpt lat="44.75695" lon="-0.67814">
        <ele>25.4</ele>
        <time>2022-06-29T15:51:53Z</time>
      </trkpt>
      <trkpt lat="44.75692" lon="-0.67807">
        <ele>25.8</ele>
        <time>2022-06-29T15:51:55Z</time>
      </trkpt>
      <trkpt lat="44.75691" lon="-0.67804">
        <ele>25.8</ele>
        <time>2022-06-29T15:51:56Z</time>
      </trkpt>
      <trkpt lat="44.75679" lon="-0.67779">
        <ele>26.2</ele>
        <time>2022-06-29T15:52:01Z</time>
      </trkpt>
      <trkpt lat="44.7566" lon="-0.67742">
        <ele>27.2</ele>
        <time>2022-06-29T15:52:08Z</time>
      </trkpt>
      <trkpt lat="44.75657" lon="-0.67711">
        <ele>28.6</ele>
        <time>2022-06-29T15:52:13Z</time>
      </trkpt>
      <trkpt lat="44.75664" lon="-0.67681">
        <ele>29.8</ele>
        <time>2022-06-29T15:52:18Z</time>
      </trkpt>
      <trkpt lat="44.75667" lon="-0.67663">
        <ele>31.2</ele>
        <time>2022-06-29T15:52:21Z</time>
      </trkpt>
      <trkpt lat="44.7567" lon="-0.67645">
        <ele>32.4</ele>
        <time>2022-06-29T15:52:24Z</time>
      </trkpt>
      <trkpt lat="44.75669" lon="-0.6764">
        <ele>32.6</ele>
        <time>2022-06-29T15:52:25Z</time>
      </trkpt>
      <trkpt lat="44.75668" lon="-0.67635">
        <ele>33</ele>
        <time>2022-06-29T15:52:26Z</time>
      </trkpt>
      <trkpt lat="44.75665" lon="-0.67627">
        <ele>33.6</ele>
        <time>2022-06-29T15:52:28Z</time>
      </trkpt>
      <trkpt lat="44.75663" lon="-0.67622">
        <ele>34</ele>
        <time>2022-06-29T15:52:29Z</time>
      </trkpt>
      <trkpt lat="44.75659" lon="-0.67614">
        <ele>34.8</ele>
        <time>2022-06-29T15:52:31Z</time>
      </trkpt>
      <trkpt lat="44.75654" lon="-0.676">
        <ele>35.2</ele>
        <time>2022-06-29T15:52:34Z</time>
      </trkpt>
      <trkpt lat="44.7565" lon="-0.67588">
        <ele>35.6</ele>
        <time>2022-06-29T15:52:36Z</time>
      </trkpt>
      <trkpt lat="44.75644" lon="-0.67577">
        <ele>35.6</ele>
        <time>2022-06-29T15:52:38Z</time>
      </trkpt>
      <trkpt lat="44.75639" lon="-0.67573">
        <ele>36</ele>
        <time>2022-06-29T15:52:39Z</time>
      </trkpt>
      <trkpt lat="44.75629" lon="-0.67568">
        <ele>36.2</ele>
        <time>2022-06-29T15:52:41Z</time>
      </trkpt>
      <trkpt lat="44.75615" lon="-0.67562">
        <ele>36.6</ele>
        <time>2022-06-29T15:52:44Z</time>
      </trkpt>
      <trkpt lat="44.75607" lon="-0.67553">
        <ele>36.8</ele>
        <time>2022-06-29T15:52:46Z</time>
      </trkpt>
      <trkpt lat="44.756" lon="-0.67542">
        <ele>37</ele>
        <time>2022-06-29T15:52:48Z</time>
      </trkpt>
      <trkpt lat="44.75597" lon="-0.6753">
        <ele>37.2</ele>
        <time>2022-06-29T15:52:50Z</time>
      </trkpt>
      <trkpt lat="44.75594" lon="-0.67512">
        <ele>38.2</ele>
        <time>2022-06-29T15:52:53Z</time>
      </trkpt>
      <trkpt lat="44.75593" lon="-0.67496">
        <ele>37.6</ele>
        <time>2022-06-29T15:52:56Z</time>
      </trkpt>
      <trkpt lat="44.75593" lon="-0.67486">
        <ele>37</ele>
        <time>2022-06-29T15:52:58Z</time>
      </trkpt>
      <trkpt lat="44.75593" lon="-0.67472">
        <ele>36</ele>
        <time>2022-06-29T15:53:01Z</time>
      </trkpt>
      <trkpt lat="44.75593" lon="-0.67468">
        <ele>35.6</ele>
        <time>2022-06-29T15:53:02Z</time>
      </trkpt>
      <trkpt lat="44.75593" lon="-0.67459">
        <ele>35</ele>
        <time>2022-06-29T15:53:04Z</time>
      </trkpt>
      <trkpt lat="44.75591" lon="-0.67445">
        <ele>34</ele>
        <time>2022-06-29T15:53:07Z</time>
      </trkpt>
      <trkpt lat="44.75591" lon="-0.67432">
        <ele>32.8</ele>
        <time>2022-06-29T15:53:10Z</time>
      </trkpt>
      <trkpt lat="44.7559" lon="-0.67428">
        <ele>32.4</ele>
        <time>2022-06-29T15:53:11Z</time>
      </trkpt>
      <trkpt lat="44.75589" lon="-0.67424">
        <ele>31.6</ele>
        <time>2022-06-29T15:53:12Z</time>
      </trkpt>
      <trkpt lat="44.75589" lon="-0.67419">
        <ele>31</ele>
        <time>2022-06-29T15:53:13Z</time>
      </trkpt>
      <trkpt lat="44.75589" lon="-0.67411">
        <ele>30.4</ele>
        <time>2022-06-29T15:53:15Z</time>
      </trkpt>
      <trkpt lat="44.75589" lon="-0.67406">
        <ele>30.4</ele>
        <time>2022-06-29T15:53:16Z</time>
      </trkpt>
      <trkpt lat="44.7559" lon="-0.67395">
        <ele>29.4</ele>
        <time>2022-06-29T15:53:18Z</time>
      </trkpt>
      <trkpt lat="44.7559" lon="-0.67391">
        <ele>29.2</ele>
        <time>2022-06-29T15:53:19Z</time>
      </trkpt>
      <trkpt lat="44.75592" lon="-0.67379">
        <ele>28.4</ele>
        <time>2022-06-29T15:53:22Z</time>
      </trkpt>
      <trkpt lat="44.75592" lon="-0.67375">
        <ele>28</ele>
        <time>2022-06-29T15:53:23Z</time>
      </trkpt>
      <trkpt lat="44.75596" lon="-0.67357">
        <ele>27.4</ele>
        <time>2022-06-29T15:53:27Z</time>
      </trkpt>
      <trkpt lat="44.75596" lon="-0.67353">
        <ele>27</ele>
        <time>2022-06-29T15:53:28Z</time>
      </trkpt>
      <trkpt lat="44.75594" lon="-0.67333">
        <ele>26.4</ele>
        <time>2022-06-29T15:53:32Z</time>
      </trkpt>
      <trkpt lat="44.75593" lon="-0.6732">
        <ele>26</ele>
        <time>2022-06-29T15:53:34Z</time>
      </trkpt>
      <trkpt lat="44.75591" lon="-0.67302">
        <ele>26.6</ele>
        <time>2022-06-29T15:53:37Z</time>
      </trkpt>
      <trkpt lat="44.75584" lon="-0.67262">
        <ele>27</ele>
        <time>2022-06-29T15:53:44Z</time>
      </trkpt>
      <trkpt lat="44.75581" lon="-0.67245">
        <ele>28.6</ele>
        <time>2022-06-29T15:53:47Z</time>
      </trkpt>
      <trkpt lat="44.75579" lon="-0.67231">
        <ele>29.8</ele>
        <time>2022-06-29T15:53:50Z</time>
      </trkpt>
      <trkpt lat="44.75579" lon="-0.67227">
        <ele>29.6</ele>
        <time>2022-06-29T15:53:51Z</time>
      </trkpt>
      <trkpt lat="44.75581" lon="-0.67204">
        <ele>30.6</ele>
        <time>2022-06-29T15:53:56Z</time>
      </trkpt>
      <trkpt lat="44.75581" lon="-0.672">
        <ele>31</ele>
        <time>2022-06-29T15:53:57Z</time>
      </trkpt>
      <trkpt lat="44.75582" lon="-0.67187">
        <ele>32.2</ele>
        <time>2022-06-29T15:54:00Z</time>
      </trkpt>
      <trkpt lat="44.75581" lon="-0.67171">
        <ele>32.2</ele>
        <time>2022-06-29T15:54:03Z</time>
      </trkpt>
      <trkpt lat="44.75577" lon="-0.67155">
        <ele>31.8</ele>
        <time>2022-06-29T15:54:08Z</time>
      </trkpt>
      <trkpt lat="44.75575" lon="-0.67147">
        <ele>32.4</ele>
        <time>2022-06-29T15:54:12Z</time>
      </trkpt>
      <trkpt lat="44.75577" lon="-0.67132">
        <ele>33.4</ele>
        <time>2022-06-29T15:54:16Z</time>
      </trkpt>
      <trkpt lat="44.75577" lon="-0.67129">
        <ele>33.4</ele>
        <time>2022-06-29T15:54:17Z</time>
      </trkpt>
      <trkpt lat="44.75577" lon="-0.67124">
        <ele>33.6</ele>
        <time>2022-06-29T15:54:18Z</time>
      </trkpt>
      <trkpt lat="44.75577" lon="-0.67105">
        <ele>34</ele>
        <time>2022-06-29T15:54:22Z</time>
      </trkpt>
      <trkpt lat="44.75583" lon="-0.67085">
        <ele>34.4</ele>
        <time>2022-06-29T15:54:26Z</time>
      </trkpt>
      <trkpt lat="44.75592" lon="-0.67072">
        <ele>35.4</ele>
        <time>2022-06-29T15:54:30Z</time>
      </trkpt>
      <trkpt lat="44.75601" lon="-0.67062">
        <ele>35.2</ele>
        <time>2022-06-29T15:54:43Z</time>
      </trkpt>
      <trkpt lat="44.75602" lon="-0.6706">
        <ele>35.2</ele>
        <time>2022-06-29T15:54:44Z</time>
      </trkpt>
      <trkpt lat="44.75611" lon="-0.67056">
        <ele>36.4</ele>
        <time>2022-06-29T15:54:59Z</time>
      </trkpt>
      <trkpt lat="44.75615" lon="-0.67052">
        <ele>36.4</ele>
        <time>2022-06-29T15:55:01Z</time>
      </trkpt>
      <trkpt lat="44.75627" lon="-0.67031">
        <ele>36.6</ele>
        <time>2022-06-29T15:55:07Z</time>
      </trkpt>
      <trkpt lat="44.75642" lon="-0.66999">
        <ele>35.2</ele>
        <time>2022-06-29T15:55:13Z</time>
      </trkpt>
      <trkpt lat="44.7565" lon="-0.66982">
        <ele>34.4</ele>
        <time>2022-06-29T15:55:16Z</time>
      </trkpt>
      <trkpt lat="44.75652" lon="-0.66975">
        <ele>34</ele>
        <time>2022-06-29T15:55:17Z</time>
      </trkpt>
      <trkpt lat="44.75654" lon="-0.66969">
        <ele>33.6</ele>
        <time>2022-06-29T15:55:18Z</time>
      </trkpt>
      <trkpt lat="44.75655" lon="-0.66956">
        <ele>33.6</ele>
        <time>2022-06-29T15:55:20Z</time>
      </trkpt>
      <trkpt lat="44.75659" lon="-0.66927">
        <ele>34.6</ele>
        <time>2022-06-29T15:55:24Z</time>
      </trkpt>
      <trkpt lat="44.75661" lon="-0.66913">
        <ele>35.2</ele>
        <time>2022-06-29T15:55:26Z</time>
      </trkpt>
      <trkpt lat="44.75661" lon="-0.66907">
        <ele>35.4</ele>
        <time>2022-06-29T15:55:27Z</time>
      </trkpt>
      <trkpt lat="44.75662" lon="-0.669">
        <ele>35.6</ele>
        <time>2022-06-29T15:55:28Z</time>
      </trkpt>
      <trkpt lat="44.75668" lon="-0.6686">
        <ele>35.8</ele>
        <time>2022-06-29T15:55:34Z</time>
      </trkpt>
      <trkpt lat="44.75679" lon="-0.66822">
        <ele>35.4</ele>
        <time>2022-06-29T15:55:40Z</time>
      </trkpt>
      <trkpt lat="44.75687" lon="-0.66801">
        <ele>36.4</ele>
        <time>2022-06-29T15:55:44Z</time>
      </trkpt>
      <trkpt lat="44.75689" lon="-0.66797">
        <ele>36.4</ele>
        <time>2022-06-29T15:55:45Z</time>
      </trkpt>
      <trkpt lat="44.75698" lon="-0.66785">
        <ele>37.4</ele>
        <time>2022-06-29T15:55:48Z</time>
      </trkpt>
      <trkpt lat="44.75702" lon="-0.6678">
        <ele>37.8</ele>
        <time>2022-06-29T15:55:49Z</time>
      </trkpt>
      <trkpt lat="44.75708" lon="-0.66768">
        <ele>38</ele>
        <time>2022-06-29T15:55:51Z</time>
      </trkpt>
      <trkpt lat="44.75724" lon="-0.66734">
        <ele>38.4</ele>
        <time>2022-06-29T15:55:56Z</time>
      </trkpt>
      <trkpt lat="44.75728" lon="-0.66728">
        <ele>38.6</ele>
        <time>2022-06-29T15:55:57Z</time>
      </trkpt>
      <trkpt lat="44.75743" lon="-0.66698">
        <ele>39.4</ele>
        <time>2022-06-29T15:56:01Z</time>
      </trkpt>
      <trkpt lat="44.75746" lon="-0.66691">
        <ele>39.4</ele>
        <time>2022-06-29T15:56:02Z</time>
      </trkpt>
      <trkpt lat="44.75754" lon="-0.66668">
        <ele>39.4</ele>
        <time>2022-06-29T15:56:05Z</time>
      </trkpt>
      <trkpt lat="44.75758" lon="-0.66653">
        <ele>39.6</ele>
        <time>2022-06-29T15:56:07Z</time>
      </trkpt>
      <trkpt lat="44.75754" lon="-0.66631">
        <ele>39.6</ele>
        <time>2022-06-29T15:56:10Z</time>
      </trkpt>
      <trkpt lat="44.75752" lon="-0.66616">
        <ele>39.2</ele>
        <time>2022-06-29T15:56:12Z</time>
      </trkpt>
      <trkpt lat="44.75751" lon="-0.66609">
        <ele>39.4</ele>
        <time>2022-06-29T15:56:13Z</time>
      </trkpt>
      <trkpt lat="44.75753" lon="-0.66602">
        <ele>39.4</ele>
        <time>2022-06-29T15:56:14Z</time>
      </trkpt>
      <trkpt lat="44.75758" lon="-0.66567">
        <ele>38</ele>
        <time>2022-06-29T15:56:19Z</time>
      </trkpt>
      <trkpt lat="44.75759" lon="-0.66559">
        <ele>36.4</ele>
        <time>2022-06-29T15:56:20Z</time>
      </trkpt>
      <trkpt lat="44.75759" lon="-0.6655">
        <ele>35.2</ele>
        <time>2022-06-29T15:56:22Z</time>
      </trkpt>
      <trkpt lat="44.75766" lon="-0.66532">
        <ele>34.2</ele>
        <time>2022-06-29T15:57:49Z</time>
      </trkpt>
      <trkpt lat="44.75769" lon="-0.66526">
        <ele>34</ele>
        <time>2022-06-29T15:57:51Z</time>
      </trkpt>
      <trkpt lat="44.75779" lon="-0.66514">
        <ele>33</ele>
        <time>2022-06-29T15:57:55Z</time>
      </trkpt>
      <trkpt lat="44.75787" lon="-0.66508">
        <ele>32.4</ele>
        <time>2022-06-29T15:57:57Z</time>
      </trkpt>
      <trkpt lat="44.75794" lon="-0.66506">
        <ele>31.6</ele>
        <time>2022-06-29T15:57:59Z</time>
      </trkpt>
      <trkpt lat="44.75796" lon="-0.66508">
        <ele>31</ele>
        <time>2022-06-29T15:58:00Z</time>
      </trkpt>
      <trkpt lat="44.75798" lon="-0.6651">
        <ele>30.2</ele>
        <time>2022-06-29T15:58:01Z</time>
      </trkpt>
      <trkpt lat="44.75801" lon="-0.66513">
        <ele>28.8</ele>
        <time>2022-06-29T15:58:03Z</time>
      </trkpt>
      <trkpt lat="44.75803" lon="-0.66514">
        <ele>28.2</ele>
        <time>2022-06-29T15:58:04Z</time>
      </trkpt>
      <trkpt lat="44.75805" lon="-0.66515">
        <ele>27.6</ele>
        <time>2022-06-29T15:58:05Z</time>
      </trkpt>
      <trkpt lat="44.75808" lon="-0.66517">
        <ele>27</ele>
        <time>2022-06-29T15:58:06Z</time>
      </trkpt>
      <trkpt lat="44.75815" lon="-0.6652">
        <ele>26.2</ele>
        <time>2022-06-29T15:58:08Z</time>
      </trkpt>
      <trkpt lat="44.75824" lon="-0.66523">
        <ele>25.2</ele>
        <time>2022-06-29T15:58:11Z</time>
      </trkpt>
      <trkpt lat="44.75828" lon="-0.66523">
        <ele>25</ele>
        <time>2022-06-29T15:58:12Z</time>
      </trkpt>
      <trkpt lat="44.75848" lon="-0.66534">
        <ele>25</ele>
        <time>2022-06-29T15:58:17Z</time>
      </trkpt>
      <trkpt lat="44.75866" lon="-0.66542">
        <ele>26</ele>
        <time>2022-06-29T15:58:21Z</time>
      </trkpt>
      <trkpt lat="44.7588" lon="-0.66549">
        <ele>26.8</ele>
        <time>2022-06-29T15:58:24Z</time>
      </trkpt>
      <trkpt lat="44.75884" lon="-0.66551">
        <ele>27</ele>
        <time>2022-06-29T15:58:25Z</time>
      </trkpt>
      <trkpt lat="44.75889" lon="-0.66553">
        <ele>27.2</ele>
        <time>2022-06-29T15:58:26Z</time>
      </trkpt>
      <trkpt lat="44.75902" lon="-0.66559">
        <ele>28.2</ele>
        <time>2022-06-29T15:58:29Z</time>
      </trkpt>
      <trkpt lat="44.75907" lon="-0.66561">
        <ele>28.6</ele>
        <time>2022-06-29T15:58:30Z</time>
      </trkpt>
      <trkpt lat="44.75921" lon="-0.66564">
        <ele>29.4</ele>
        <time>2022-06-29T15:58:34Z</time>
      </trkpt>
      <trkpt lat="44.75923" lon="-0.66564">
        <ele>30</ele>
        <time>2022-06-29T15:58:35Z</time>
      </trkpt>
      <trkpt lat="44.75932" lon="-0.66559">
        <ele>31.2</ele>
        <time>2022-06-29T15:58:38Z</time>
      </trkpt>
      <trkpt lat="44.75935" lon="-0.66558">
        <ele>31.6</ele>
        <time>2022-06-29T15:58:39Z</time>
      </trkpt>
      <trkpt lat="44.75942" lon="-0.66557">
        <ele>32.8</ele>
        <time>2022-06-29T15:58:41Z</time>
      </trkpt>
      <trkpt lat="44.75952" lon="-0.66561">
        <ele>33.2</ele>
        <time>2022-06-29T15:58:44Z</time>
      </trkpt>
      <trkpt lat="44.75963" lon="-0.66565">
        <ele>34</ele>
        <time>2022-06-29T15:58:47Z</time>
      </trkpt>
      <trkpt lat="44.75979" lon="-0.66571">
        <ele>35</ele>
        <time>2022-06-29T15:58:51Z</time>
      </trkpt>
      <trkpt lat="44.75983" lon="-0.66573">
        <ele>35.2</ele>
        <time>2022-06-29T15:58:52Z</time>
      </trkpt>
      <trkpt lat="44.76003" lon="-0.66584">
        <ele>35.2</ele>
        <time>2022-06-29T15:58:57Z</time>
      </trkpt>
      <trkpt lat="44.76023" lon="-0.66594">
        <ele>36.4</ele>
        <time>2022-06-29T15:59:02Z</time>
      </trkpt>
      <trkpt lat="44.76027" lon="-0.66597">
        <ele>36.6</ele>
        <time>2022-06-29T15:59:03Z</time>
      </trkpt>
      <trkpt lat="44.76035" lon="-0.66602">
        <ele>37</ele>
        <time>2022-06-29T15:59:05Z</time>
      </trkpt>
      <trkpt lat="44.76048" lon="-0.66608">
        <ele>37.4</ele>
        <time>2022-06-29T15:59:08Z</time>
      </trkpt>
      <trkpt lat="44.76066" lon="-0.66613">
        <ele>38.4</ele>
        <time>2022-06-29T15:59:12Z</time>
      </trkpt>
      <trkpt lat="44.7607" lon="-0.66612">
        <ele>38.6</ele>
        <time>2022-06-29T15:59:13Z</time>
      </trkpt>
      <trkpt lat="44.76087" lon="-0.66609">
        <ele>39.2</ele>
        <time>2022-06-29T15:59:17Z</time>
      </trkpt>
      <trkpt lat="44.76109" lon="-0.66603">
        <ele>39.8</ele>
        <time>2022-06-29T15:59:22Z</time>
      </trkpt>
      <trkpt lat="44.76118" lon="-0.66602">
        <ele>40.2</ele>
        <time>2022-06-29T15:59:24Z</time>
      </trkpt>
      <trkpt lat="44.76131" lon="-0.66602">
        <ele>40.2</ele>
        <time>2022-06-29T15:59:27Z</time>
      </trkpt>
      <trkpt lat="44.76149" lon="-0.66601">
        <ele>40</ele>
        <time>2022-06-29T15:59:31Z</time>
      </trkpt>
      <trkpt lat="44.76183" lon="-0.66603">
        <ele>39.4</ele>
        <time>2022-06-29T15:59:38Z</time>
      </trkpt>
      <trkpt lat="44.76219" lon="-0.6662">
        <ele>39.2</ele>
        <time>2022-06-29T15:59:46Z</time>
      </trkpt>
      <trkpt lat="44.76227" lon="-0.66626">
        <ele>38.8</ele>
        <time>2022-06-29T15:59:48Z</time>
      </trkpt>
      <trkpt lat="44.76231" lon="-0.6663">
        <ele>38.8</ele>
        <time>2022-06-29T15:59:49Z</time>
      </trkpt>
      <trkpt lat="44.76236" lon="-0.6664">
        <ele>38.8</ele>
        <time>2022-06-29T15:59:51Z</time>
      </trkpt>
      <trkpt lat="44.76256" lon="-0.66676">
        <ele>39.4</ele>
        <time>2022-06-29T15:59:58Z</time>
      </trkpt>
      <trkpt lat="44.76275" lon="-0.66714">
        <ele>39</ele>
        <time>2022-06-29T16:00:05Z</time>
      </trkpt>
      <trkpt lat="44.76298" lon="-0.6676">
        <ele>38.2</ele>
        <time>2022-06-29T16:00:13Z</time>
      </trkpt>
      <trkpt lat="44.76301" lon="-0.66765">
        <ele>38.2</ele>
        <time>2022-06-29T16:00:14Z</time>
      </trkpt>
      <trkpt lat="44.76315" lon="-0.66786">
        <ele>38.4</ele>
        <time>2022-06-29T16:00:18Z</time>
      </trkpt>
      <trkpt lat="44.76325" lon="-0.66796">
        <ele>38</ele>
        <time>2022-06-29T16:00:21Z</time>
      </trkpt>
      <trkpt lat="44.7633" lon="-0.66796">
        <ele>38.2</ele>
        <time>2022-06-29T16:00:22Z</time>
      </trkpt>
      <trkpt lat="44.7635" lon="-0.66787">
        <ele>38.2</ele>
        <time>2022-06-29T16:00:26Z</time>
      </trkpt>
      <trkpt lat="44.76365" lon="-0.66795">
        <ele>38.2</ele>
        <time>2022-06-29T16:00:29Z</time>
      </trkpt>
      <trkpt lat="44.76389" lon="-0.66811">
        <ele>38.6</ele>
        <time>2022-06-29T16:00:34Z</time>
      </trkpt>
      <trkpt lat="44.76394" lon="-0.66811">
        <ele>39</ele>
        <time>2022-06-29T16:00:35Z</time>
      </trkpt>
      <trkpt lat="44.76408" lon="-0.66801">
        <ele>39.8</ele>
        <time>2022-06-29T16:00:39Z</time>
      </trkpt>
      <trkpt lat="44.76414" lon="-0.6679">
        <ele>39.8</ele>
        <time>2022-06-29T16:00:41Z</time>
      </trkpt>
      <trkpt lat="44.76423" lon="-0.66774">
        <ele>39.8</ele>
        <time>2022-06-29T16:00:44Z</time>
      </trkpt>
      <trkpt lat="44.76429" lon="-0.66764">
        <ele>40.4</ele>
        <time>2022-06-29T16:00:46Z</time>
      </trkpt>
      <trkpt lat="44.76432" lon="-0.66759">
        <ele>40.6</ele>
        <time>2022-06-29T16:00:47Z</time>
      </trkpt>
      <trkpt lat="44.76433" lon="-0.66754">
        <ele>40.8</ele>
        <time>2022-06-29T16:00:48Z</time>
      </trkpt>
      <trkpt lat="44.76438" lon="-0.66744">
        <ele>41.2</ele>
        <time>2022-06-29T16:00:50Z</time>
      </trkpt>
      <trkpt lat="44.76444" lon="-0.66738">
        <ele>41.2</ele>
        <time>2022-06-29T16:00:52Z</time>
      </trkpt>
      <trkpt lat="44.76447" lon="-0.66738">
        <ele>41.6</ele>
        <time>2022-06-29T16:00:53Z</time>
      </trkpt>
      <trkpt lat="44.76453" lon="-0.66748">
        <ele>42</ele>
        <time>2022-06-29T16:00:56Z</time>
      </trkpt>
      <trkpt lat="44.76467" lon="-0.66757">
        <ele>42.8</ele>
        <time>2022-06-29T16:01:00Z</time>
      </trkpt>
      <trkpt lat="44.76475" lon="-0.66761">
        <ele>43</ele>
        <time>2022-06-29T16:01:02Z</time>
      </trkpt>
      <trkpt lat="44.76495" lon="-0.66771">
        <ele>43.8</ele>
        <time>2022-06-29T16:01:07Z</time>
      </trkpt>
      <trkpt lat="44.76499" lon="-0.66773">
        <ele>44</ele>
        <time>2022-06-29T16:01:08Z</time>
      </trkpt>
      <trkpt lat="44.76503" lon="-0.66775">
        <ele>44.2</ele>
        <time>2022-06-29T16:01:09Z</time>
      </trkpt>
      <trkpt lat="44.76508" lon="-0.66777">
        <ele>44.6</ele>
        <time>2022-06-29T16:01:11Z</time>
      </trkpt>
      <trkpt lat="44.76509" lon="-0.66775">
        <ele>44.8</ele>
        <time>2022-06-29T16:01:12Z</time>
      </trkpt>
      <trkpt lat="44.76512" lon="-0.66772">
        <ele>44.4</ele>
        <time>2022-06-29T16:01:14Z</time>
      </trkpt>
      <trkpt lat="44.76516" lon="-0.66772">
        <ele>44.8</ele>
        <time>2022-06-29T16:01:17Z</time>
      </trkpt>
      <trkpt lat="44.76521" lon="-0.66773">
        <ele>45.2</ele>
        <time>2022-06-29T16:01:19Z</time>
      </trkpt>
      <trkpt lat="44.76524" lon="-0.66773">
        <ele>45.6</ele>
        <time>2022-06-29T16:01:20Z</time>
      </trkpt>
      <trkpt lat="44.76531" lon="-0.66773">
        <ele>46</ele>
        <time>2022-06-29T16:01:22Z</time>
      </trkpt>
      <trkpt lat="44.76545" lon="-0.66772">
        <ele>45.8</ele>
        <time>2022-06-29T16:01:26Z</time>
      </trkpt>
      <trkpt lat="44.7655" lon="-0.66787">
        <ele>45.6</ele>
        <time>2022-06-29T16:01:29Z</time>
      </trkpt>
      <trkpt lat="44.76552" lon="-0.66807">
        <ele>45.2</ele>
        <time>2022-06-29T16:01:32Z</time>
      </trkpt>
      <trkpt lat="44.76556" lon="-0.66828">
        <ele>44.6</ele>
        <time>2022-06-29T16:01:35Z</time>
      </trkpt>
      <trkpt lat="44.7656" lon="-0.66843">
        <ele>44.2</ele>
        <time>2022-06-29T16:01:37Z</time>
      </trkpt>
      <trkpt lat="44.7657" lon="-0.66872">
        <ele>43.6</ele>
        <time>2022-06-29T16:01:41Z</time>
      </trkpt>
      <trkpt lat="44.76581" lon="-0.66892">
        <ele>43.2</ele>
        <time>2022-06-29T16:01:44Z</time>
      </trkpt>
      <trkpt lat="44.76592" lon="-0.66911">
        <ele>41.8</ele>
        <time>2022-06-29T16:01:47Z</time>
      </trkpt>
      <trkpt lat="44.76616" lon="-0.66939">
        <ele>40.8</ele>
        <time>2022-06-29T16:01:52Z</time>
      </trkpt>
      <trkpt lat="44.76627" lon="-0.6695">
        <ele>40.4</ele>
        <time>2022-06-29T16:01:54Z</time>
      </trkpt>
      <trkpt lat="44.7664" lon="-0.66967">
        <ele>39.8</ele>
        <time>2022-06-29T16:01:57Z</time>
      </trkpt>
      <trkpt lat="44.76664" lon="-0.66993">
        <ele>39</ele>
        <time>2022-06-29T16:02:02Z</time>
      </trkpt>
      <trkpt lat="44.76672" lon="-0.67003">
        <ele>38.6</ele>
        <time>2022-06-29T16:02:04Z</time>
      </trkpt>
      <trkpt lat="44.76685" lon="-0.67017">
        <ele>38</ele>
        <time>2022-06-29T16:02:07Z</time>
      </trkpt>
      <trkpt lat="44.767" lon="-0.67033">
        <ele>37.6</ele>
        <time>2022-06-29T16:02:10Z</time>
      </trkpt>
      <trkpt lat="44.76724" lon="-0.67062">
        <ele>37.8</ele>
        <time>2022-06-29T16:02:15Z</time>
      </trkpt>
      <trkpt lat="44.76736" lon="-0.67079">
        <ele>38.6</ele>
        <time>2022-06-29T16:02:18Z</time>
      </trkpt>
      <trkpt lat="44.76743" lon="-0.67092">
        <ele>38.6</ele>
        <time>2022-06-29T16:02:20Z</time>
      </trkpt>
      <trkpt lat="44.76746" lon="-0.67099">
        <ele>38.8</ele>
        <time>2022-06-29T16:02:21Z</time>
      </trkpt>
      <trkpt lat="44.7675" lon="-0.67113">
        <ele>39.2</ele>
        <time>2022-06-29T16:02:23Z</time>
      </trkpt>
      <trkpt lat="44.76751" lon="-0.67121">
        <ele>39.6</ele>
        <time>2022-06-29T16:02:24Z</time>
      </trkpt>
      <trkpt lat="44.76753" lon="-0.67137">
        <ele>40.4</ele>
        <time>2022-06-29T16:02:26Z</time>
      </trkpt>
      <trkpt lat="44.76754" lon="-0.67145">
        <ele>40.8</ele>
        <time>2022-06-29T16:02:27Z</time>
      </trkpt>
      <trkpt lat="44.76754" lon="-0.67152">
        <ele>41</ele>
        <time>2022-06-29T16:02:28Z</time>
      </trkpt>
      <trkpt lat="44.76752" lon="-0.67174">
        <ele>41.6</ele>
        <time>2022-06-29T16:02:31Z</time>
      </trkpt>
      <trkpt lat="44.7675" lon="-0.67181">
        <ele>42</ele>
        <time>2022-06-29T16:02:32Z</time>
      </trkpt>
      <trkpt lat="44.76742" lon="-0.67207">
        <ele>43.2</ele>
        <time>2022-06-29T16:02:36Z</time>
      </trkpt>
      <trkpt lat="44.76736" lon="-0.67219">
        <ele>43.6</ele>
        <time>2022-06-29T16:02:38Z</time>
      </trkpt>
      <trkpt lat="44.76723" lon="-0.67237">
        <ele>43.6</ele>
        <time>2022-06-29T16:02:42Z</time>
      </trkpt>
      <trkpt lat="44.76707" lon="-0.6725">
        <ele>44.2</ele>
        <time>2022-06-29T16:02:47Z</time>
      </trkpt>
      <trkpt lat="44.76705" lon="-0.67253">
        <ele>44.2</ele>
        <time>2022-06-29T16:02:48Z</time>
      </trkpt>
      <trkpt lat="44.76705" lon="-0.67266">
        <ele>44.4</ele>
        <time>2022-06-29T16:02:51Z</time>
      </trkpt>
      <trkpt lat="44.76714" lon="-0.67269">
        <ele>44.8</ele>
        <time>2022-06-29T16:02:54Z</time>
      </trkpt>
      <trkpt lat="44.76721" lon="-0.67276">
        <ele>45</ele>
        <time>2022-06-29T16:02:57Z</time>
      </trkpt>
      <trkpt lat="44.76724" lon="-0.67277">
        <ele>45.2</ele>
        <time>2022-06-29T16:02:58Z</time>
      </trkpt>
      <trkpt lat="44.76733" lon="-0.67273">
        <ele>45.4</ele>
        <time>2022-06-29T16:03:01Z</time>
      </trkpt>
      <trkpt lat="44.7674" lon="-0.67268">
        <ele>45.4</ele>
        <time>2022-06-29T16:03:03Z</time>
      </trkpt>
      <trkpt lat="44.76755" lon="-0.6726">
        <ele>45</ele>
        <time>2022-06-29T16:03:07Z</time>
      </trkpt>
      <trkpt lat="44.76776" lon="-0.67257">
        <ele>45</ele>
        <time>2022-06-29T16:03:12Z</time>
      </trkpt>
      <trkpt lat="44.76781" lon="-0.67256">
        <ele>44.8</ele>
        <time>2022-06-29T16:03:13Z</time>
      </trkpt>
      <trkpt lat="44.76806" lon="-0.67253">
        <ele>44.4</ele>
        <time>2022-06-29T16:03:18Z</time>
      </trkpt>
      <trkpt lat="44.76812" lon="-0.67252">
        <ele>44.4</ele>
        <time>2022-06-29T16:03:19Z</time>
      </trkpt>
      <trkpt lat="44.76846" lon="-0.67248">
        <ele>44.2</ele>
        <time>2022-06-29T16:03:25Z</time>
      </trkpt>
      <trkpt lat="44.76864" lon="-0.67246">
        <ele>44.2</ele>
        <time>2022-06-29T16:03:28Z</time>
      </trkpt>
      <trkpt lat="44.76869" lon="-0.67246">
        <ele>44.4</ele>
        <time>2022-06-29T16:03:29Z</time>
      </trkpt>
      <trkpt lat="44.7688" lon="-0.67246">
        <ele>44.4</ele>
        <time>2022-06-29T16:03:31Z</time>
      </trkpt>
      <trkpt lat="44.76891" lon="-0.67245">
        <ele>44.6</ele>
        <time>2022-06-29T16:03:33Z</time>
      </trkpt>
      <trkpt lat="44.7693" lon="-0.67241">
        <ele>45.2</ele>
        <time>2022-06-29T16:03:40Z</time>
      </trkpt>
      <trkpt lat="44.76958" lon="-0.67237">
        <ele>46.2</ele>
        <time>2022-06-29T16:03:45Z</time>
      </trkpt>
      <trkpt lat="44.7697" lon="-0.67236">
        <ele>46.8</ele>
        <time>2022-06-29T16:03:47Z</time>
      </trkpt>
      <trkpt lat="44.76987" lon="-0.67234">
        <ele>47.4</ele>
        <time>2022-06-29T16:03:50Z</time>
      </trkpt>
      <trkpt lat="44.7701" lon="-0.67232">
        <ele>48.2</ele>
        <time>2022-06-29T16:03:54Z</time>
      </trkpt>
      <trkpt lat="44.77052" lon="-0.67227">
        <ele>48.4</ele>
        <time>2022-06-29T16:04:01Z</time>
      </trkpt>
      <trkpt lat="44.77062" lon="-0.67226">
        <ele>49</ele>
        <time>2022-06-29T16:04:03Z</time>
      </trkpt>
      <trkpt lat="44.77071" lon="-0.67227">
        <ele>49.2</ele>
        <time>2022-06-29T16:04:05Z</time>
      </trkpt>
      <trkpt lat="44.77075" lon="-0.67228">
        <ele>49.2</ele>
        <time>2022-06-29T16:04:06Z</time>
      </trkpt>
      <trkpt lat="44.77095" lon="-0.67236">
        <ele>49.4</ele>
        <time>2022-06-29T16:04:11Z</time>
      </trkpt>
      <trkpt lat="44.77099" lon="-0.67239">
        <ele>49.4</ele>
        <time>2022-06-29T16:04:12Z</time>
      </trkpt>
      <trkpt lat="44.77103" lon="-0.67241">
        <ele>49.6</ele>
        <time>2022-06-29T16:04:13Z</time>
      </trkpt>
      <trkpt lat="44.77123" lon="-0.67251">
        <ele>50</ele>
        <time>2022-06-29T16:04:17Z</time>
      </trkpt>
      <trkpt lat="44.77148" lon="-0.67264">
        <ele>50.6</ele>
        <time>2022-06-29T16:04:22Z</time>
      </trkpt>
      <trkpt lat="44.77158" lon="-0.6727">
        <ele>51</ele>
        <time>2022-06-29T16:04:24Z</time>
      </trkpt>
      <trkpt lat="44.77196" lon="-0.67289">
        <ele>51.2</ele>
        <time>2022-06-29T16:04:31Z</time>
      </trkpt>
      <trkpt lat="44.77231" lon="-0.67306">
        <ele>51.2</ele>
        <time>2022-06-29T16:04:38Z</time>
      </trkpt>
      <trkpt lat="44.77256" lon="-0.67318">
        <ele>51.4</ele>
        <time>2022-06-29T16:04:44Z</time>
      </trkpt>
      <trkpt lat="44.77258" lon="-0.67319">
        <ele>51.8</ele>
        <time>2022-06-29T16:04:45Z</time>
      </trkpt>
      <trkpt lat="44.77262" lon="-0.67322">
        <ele>52.4</ele>
        <time>2022-06-29T16:04:56Z</time>
      </trkpt>
      <trkpt lat="44.77277" lon="-0.6733">
        <ele>52.8</ele>
        <time>2022-06-29T16:05:01Z</time>
      </trkpt>
      <trkpt lat="44.77285" lon="-0.67333">
        <ele>52.8</ele>
        <time>2022-06-29T16:05:03Z</time>
      </trkpt>
      <trkpt lat="44.77304" lon="-0.67343">
        <ele>53.4</ele>
        <time>2022-06-29T16:05:07Z</time>
      </trkpt>
      <trkpt lat="44.77334" lon="-0.67359">
        <ele>53.6</ele>
        <time>2022-06-29T16:05:13Z</time>
      </trkpt>
      <trkpt lat="44.77368" lon="-0.67376">
        <ele>54</ele>
        <time>2022-06-29T16:05:19Z</time>
      </trkpt>
      <trkpt lat="44.77379" lon="-0.67382">
        <ele>54</ele>
        <time>2022-06-29T16:05:21Z</time>
      </trkpt>
      <trkpt lat="44.77425" lon="-0.67405">
        <ele>54.4</ele>
        <time>2022-06-29T16:05:29Z</time>
      </trkpt>
      <trkpt lat="44.7747" lon="-0.6743">
        <ele>55</ele>
        <time>2022-06-29T16:05:37Z</time>
      </trkpt>
      <trkpt lat="44.77475" lon="-0.67435">
        <ele>55.2</ele>
        <time>2022-06-29T16:05:38Z</time>
      </trkpt>
      <trkpt lat="44.7749" lon="-0.6746">
        <ele>55.2</ele>
        <time>2022-06-29T16:05:42Z</time>
      </trkpt>
      <trkpt lat="44.77493" lon="-0.67468">
        <ele>55</ele>
        <time>2022-06-29T16:05:43Z</time>
      </trkpt>
      <trkpt lat="44.77495" lon="-0.67474">
        <ele>54.8</ele>
        <time>2022-06-29T16:05:44Z</time>
      </trkpt>
      <trkpt lat="44.77507" lon="-0.67502">
        <ele>54.4</ele>
        <time>2022-06-29T16:05:48Z</time>
      </trkpt>
      <trkpt lat="44.77523" lon="-0.67536">
        <ele>54</ele>
        <time>2022-06-29T16:05:53Z</time>
      </trkpt>
      <trkpt lat="44.77535" lon="-0.67564">
        <ele>53.6</ele>
        <time>2022-06-29T16:05:57Z</time>
      </trkpt>
      <trkpt lat="44.77554" lon="-0.67605">
        <ele>53</ele>
        <time>2022-06-29T16:06:03Z</time>
      </trkpt>
      <trkpt lat="44.7756" lon="-0.67618">
        <ele>52.6</ele>
        <time>2022-06-29T16:06:05Z</time>
      </trkpt>
      <trkpt lat="44.77568" lon="-0.67639">
        <ele>51.8</ele>
        <time>2022-06-29T16:06:08Z</time>
      </trkpt>
      <trkpt lat="44.77576" lon="-0.67658">
        <ele>51.4</ele>
        <time>2022-06-29T16:06:11Z</time>
      </trkpt>
      <trkpt lat="44.77584" lon="-0.67678">
        <ele>50.8</ele>
        <time>2022-06-29T16:06:14Z</time>
      </trkpt>
      <trkpt lat="44.77596" lon="-0.67705">
        <ele>49.6</ele>
        <time>2022-06-29T16:06:18Z</time>
      </trkpt>
      <trkpt lat="44.77599" lon="-0.67712">
        <ele>49.2</ele>
        <time>2022-06-29T16:06:19Z</time>
      </trkpt>
      <trkpt lat="44.77608" lon="-0.67733">
        <ele>48.4</ele>
        <time>2022-06-29T16:06:22Z</time>
      </trkpt>
      <trkpt lat="44.7762" lon="-0.67762">
        <ele>47.2</ele>
        <time>2022-06-29T16:06:26Z</time>
      </trkpt>
      <trkpt lat="44.77626" lon="-0.67776">
        <ele>46.4</ele>
        <time>2022-06-29T16:06:28Z</time>
      </trkpt>
      <trkpt lat="44.7763" lon="-0.67782">
        <ele>46</ele>
        <time>2022-06-29T16:06:29Z</time>
      </trkpt>
      <trkpt lat="44.77638" lon="-0.67792">
        <ele>45.6</ele>
        <time>2022-06-29T16:06:31Z</time>
      </trkpt>
      <trkpt lat="44.77642" lon="-0.67798">
        <ele>45.4</ele>
        <time>2022-06-29T16:06:32Z</time>
      </trkpt>
      <trkpt lat="44.77651" lon="-0.67809">
        <ele>45</ele>
        <time>2022-06-29T16:06:34Z</time>
      </trkpt>
      <trkpt lat="44.77667" lon="-0.67833">
        <ele>43.8</ele>
        <time>2022-06-29T16:06:38Z</time>
      </trkpt>
      <trkpt lat="44.77671" lon="-0.67839">
        <ele>43.4</ele>
        <time>2022-06-29T16:06:39Z</time>
      </trkpt>
      <trkpt lat="44.77679" lon="-0.67851">
        <ele>42.6</ele>
        <time>2022-06-29T16:06:41Z</time>
      </trkpt>
      <trkpt lat="44.77701" lon="-0.67883">
        <ele>41.8</ele>
        <time>2022-06-29T16:06:46Z</time>
      </trkpt>
      <trkpt lat="44.77705" lon="-0.6789">
        <ele>41.6</ele>
        <time>2022-06-29T16:06:47Z</time>
      </trkpt>
      <trkpt lat="44.77725" lon="-0.67924">
        <ele>40.6</ele>
        <time>2022-06-29T16:06:52Z</time>
      </trkpt>
      <trkpt lat="44.77733" lon="-0.67938">
        <ele>40.2</ele>
        <time>2022-06-29T16:06:54Z</time>
      </trkpt>
      <trkpt lat="44.77748" lon="-0.67968">
        <ele>39.4</ele>
        <time>2022-06-29T16:06:58Z</time>
      </trkpt>
      <trkpt lat="44.77767" lon="-0.68007">
        <ele>39.2</ele>
        <time>2022-06-29T16:07:03Z</time>
      </trkpt>
      <trkpt lat="44.77787" lon="-0.68056">
        <ele>39.6</ele>
        <time>2022-06-29T16:07:09Z</time>
      </trkpt>
      <trkpt lat="44.77793" lon="-0.68072">
        <ele>39.8</ele>
        <time>2022-06-29T16:07:11Z</time>
      </trkpt>
      <trkpt lat="44.77801" lon="-0.68097">
        <ele>40.2</ele>
        <time>2022-06-29T16:07:14Z</time>
      </trkpt>
      <trkpt lat="44.77809" lon="-0.68109">
        <ele>40.4</ele>
        <time>2022-06-29T16:07:16Z</time>
      </trkpt>
      <trkpt lat="44.77812" lon="-0.68115">
        <ele>40.8</ele>
        <time>2022-06-29T16:07:17Z</time>
      </trkpt>
      <trkpt lat="44.77814" lon="-0.68122">
        <ele>40.8</ele>
        <time>2022-06-29T16:07:18Z</time>
      </trkpt>
      <trkpt lat="44.77828" lon="-0.68157">
        <ele>41</ele>
        <time>2022-06-29T16:07:23Z</time>
      </trkpt>
      <trkpt lat="44.7783" lon="-0.68163">
        <ele>41.2</ele>
        <time>2022-06-29T16:07:24Z</time>
      </trkpt>
      <trkpt lat="44.7785" lon="-0.68209">
        <ele>40.8</ele>
        <time>2022-06-29T16:07:31Z</time>
      </trkpt>
      <trkpt lat="44.77857" lon="-0.68221">
        <ele>40.2</ele>
        <time>2022-06-29T16:07:33Z</time>
      </trkpt>
      <trkpt lat="44.77865" lon="-0.68245">
        <ele>39.4</ele>
        <time>2022-06-29T16:07:36Z</time>
      </trkpt>
      <trkpt lat="44.77873" lon="-0.68267">
        <ele>38.8</ele>
        <time>2022-06-29T16:07:39Z</time>
      </trkpt>
      <trkpt lat="44.7788" lon="-0.6828">
        <ele>39.2</ele>
        <time>2022-06-29T16:07:41Z</time>
      </trkpt>
      <trkpt lat="44.77889" lon="-0.68281">
        <ele>39.6</ele>
        <time>2022-06-29T16:07:43Z</time>
      </trkpt>
      <trkpt lat="44.77896" lon="-0.68274">
        <ele>40.4</ele>
        <time>2022-06-29T16:07:45Z</time>
      </trkpt>
      <trkpt lat="44.779" lon="-0.68269">
        <ele>41</ele>
        <time>2022-06-29T16:07:46Z</time>
      </trkpt>
      <trkpt lat="44.77903" lon="-0.68265">
        <ele>41.4</ele>
        <time>2022-06-29T16:07:47Z</time>
      </trkpt>
      <trkpt lat="44.77906" lon="-0.68261">
        <ele>42</ele>
        <time>2022-06-29T16:07:48Z</time>
      </trkpt>
      <trkpt lat="44.77906" lon="-0.68257">
        <ele>42.8</ele>
        <time>2022-06-29T16:07:49Z</time>
      </trkpt>
      <trkpt lat="44.77905" lon="-0.68255">
        <ele>43.6</ele>
        <time>2022-06-29T16:07:50Z</time>
      </trkpt>
      <trkpt lat="44.77908" lon="-0.68239">
        <ele>44.6</ele>
        <time>2022-06-29T16:07:54Z</time>
      </trkpt>
      <trkpt lat="44.77911" lon="-0.68236">
        <ele>44.8</ele>
        <time>2022-06-29T16:07:55Z</time>
      </trkpt>
      <trkpt lat="44.77919" lon="-0.68224">
        <ele>45.6</ele>
        <time>2022-06-29T16:07:58Z</time>
      </trkpt>
      <trkpt lat="44.77922" lon="-0.68219">
        <ele>45.8</ele>
        <time>2022-06-29T16:07:59Z</time>
      </trkpt>
      <trkpt lat="44.77925" lon="-0.68215">
        <ele>46</ele>
        <time>2022-06-29T16:08:00Z</time>
      </trkpt>
      <trkpt lat="44.77928" lon="-0.68209">
        <ele>46</ele>
        <time>2022-06-29T16:08:01Z</time>
      </trkpt>
      <trkpt lat="44.77936" lon="-0.68193">
        <ele>46</ele>
        <time>2022-06-29T16:08:04Z</time>
      </trkpt>
      <trkpt lat="44.77939" lon="-0.68188">
        <ele>46</ele>
        <time>2022-06-29T16:08:05Z</time>
      </trkpt>
      <trkpt lat="44.77961" lon="-0.68146">
        <ele>47</ele>
        <time>2022-06-29T16:08:12Z</time>
      </trkpt>
      <trkpt lat="44.77968" lon="-0.68134">
        <ele>47</ele>
        <time>2022-06-29T16:08:14Z</time>
      </trkpt>
      <trkpt lat="44.77998" lon="-0.6808">
        <ele>48.2</ele>
        <time>2022-06-29T16:08:22Z</time>
      </trkpt>
      <trkpt lat="44.78026" lon="-0.68029">
        <ele>48.2</ele>
        <time>2022-06-29T16:08:30Z</time>
      </trkpt>
      <trkpt lat="44.78058" lon="-0.6797">
        <ele>48.8</ele>
        <time>2022-06-29T16:08:39Z</time>
      </trkpt>
      <trkpt lat="44.78088" lon="-0.67915">
        <ele>48.8</ele>
        <time>2022-06-29T16:08:47Z</time>
      </trkpt>
      <trkpt lat="44.78111" lon="-0.67873">
        <ele>49</ele>
        <time>2022-06-29T16:08:53Z</time>
      </trkpt>
      <trkpt lat="44.78114" lon="-0.67865">
        <ele>49</ele>
        <time>2022-06-29T16:08:54Z</time>
      </trkpt>
      <trkpt lat="44.78131" lon="-0.67833">
        <ele>48.4</ele>
        <time>2022-06-29T16:08:59Z</time>
      </trkpt>
      <trkpt lat="44.78148" lon="-0.67801">
        <ele>48.6</ele>
        <time>2022-06-29T16:09:05Z</time>
      </trkpt>
      <trkpt lat="44.78161" lon="-0.67781">
        <ele>48.2</ele>
        <time>2022-06-29T16:09:10Z</time>
      </trkpt>
      <trkpt lat="44.78177" lon="-0.67781">
        <ele>48.6</ele>
        <time>2022-06-29T16:09:14Z</time>
      </trkpt>
      <trkpt lat="44.78196" lon="-0.67792">
        <ele>48.4</ele>
        <time>2022-06-29T16:09:18Z</time>
      </trkpt>
      <trkpt lat="44.78204" lon="-0.67802">
        <ele>48.2</ele>
        <time>2022-06-29T16:09:20Z</time>
      </trkpt>
      <trkpt lat="44.78222" lon="-0.67822">
        <ele>48</ele>
        <time>2022-06-29T16:09:24Z</time>
      </trkpt>
      <trkpt lat="44.78254" lon="-0.67857">
        <ele>47.6</ele>
        <time>2022-06-29T16:09:30Z</time>
      </trkpt>
      <trkpt lat="44.78266" lon="-0.6787">
        <ele>47.2</ele>
        <time>2022-06-29T16:09:32Z</time>
      </trkpt>
      <trkpt lat="44.78288" lon="-0.67891">
        <ele>46.6</ele>
        <time>2022-06-29T16:09:35Z</time>
      </trkpt>
      <trkpt lat="44.78302" lon="-0.67905">
        <ele>46</ele>
        <time>2022-06-29T16:09:37Z</time>
      </trkpt>
      <trkpt lat="44.78333" lon="-0.67932">
        <ele>45</ele>
        <time>2022-06-29T16:09:41Z</time>
      </trkpt>
      <trkpt lat="44.78341" lon="-0.67937">
        <ele>44.8</ele>
        <time>2022-06-29T16:09:42Z</time>
      </trkpt>
      <trkpt lat="44.78369" lon="-0.67957">
        <ele>44.8</ele>
        <time>2022-06-29T16:09:46Z</time>
      </trkpt>
      <trkpt lat="44.78392" lon="-0.67973">
        <ele>44.8</ele>
        <time>2022-06-29T16:09:50Z</time>
      </trkpt>
      <trkpt lat="44.78397" lon="-0.67977">
        <ele>44.8</ele>
        <time>2022-06-29T16:09:51Z</time>
      </trkpt>
      <trkpt lat="44.7843" lon="-0.68001">
        <ele>44.4</ele>
        <time>2022-06-29T16:09:58Z</time>
      </trkpt>
      <trkpt lat="44.78434" lon="-0.68004">
        <ele>44.4</ele>
        <time>2022-06-29T16:09:59Z</time>
      </trkpt>
      <trkpt lat="44.78449" lon="-0.68015">
        <ele>43.8</ele>
        <time>2022-06-29T16:10:03Z</time>
      </trkpt>
      <trkpt lat="44.78452" lon="-0.68017">
        <ele>43.6</ele>
        <time>2022-06-29T16:10:04Z</time>
      </trkpt>
      <trkpt lat="44.78471" lon="-0.68032">
        <ele>43.8</ele>
        <time>2022-06-29T16:10:10Z</time>
      </trkpt>
      <trkpt lat="44.78494" lon="-0.6805">
        <ele>44.6</ele>
        <time>2022-06-29T16:10:18Z</time>
      </trkpt>
      <trkpt lat="44.78498" lon="-0.68053">
        <ele>44.8</ele>
        <time>2022-06-29T16:10:19Z</time>
      </trkpt>
      <trkpt lat="44.7852" lon="-0.68071">
        <ele>45.8</ele>
        <time>2022-06-29T16:10:24Z</time>
      </trkpt>
      <trkpt lat="44.78524" lon="-0.68074">
        <ele>46</ele>
        <time>2022-06-29T16:10:25Z</time>
      </trkpt>
      <trkpt lat="44.78552" lon="-0.68096">
        <ele>46.8</ele>
        <time>2022-06-29T16:10:31Z</time>
      </trkpt>
      <trkpt lat="44.78564" lon="-0.68103">
        <ele>47.2</ele>
        <time>2022-06-29T16:10:34Z</time>
      </trkpt>
      <trkpt lat="44.78568" lon="-0.68104">
        <ele>47.6</ele>
        <time>2022-06-29T16:10:35Z</time>
      </trkpt>
      <trkpt lat="44.78572" lon="-0.68104">
        <ele>47.6</ele>
        <time>2022-06-29T16:10:36Z</time>
      </trkpt>
      <trkpt lat="44.78578" lon="-0.68103">
        <ele>47.8</ele>
        <time>2022-06-29T16:10:38Z</time>
      </trkpt>
      <trkpt lat="44.78582" lon="-0.68097">
        <ele>48</ele>
        <time>2022-06-29T16:10:40Z</time>
      </trkpt>
      <trkpt lat="44.78585" lon="-0.6809">
        <ele>48.4</ele>
        <time>2022-06-29T16:10:42Z</time>
      </trkpt>
      <trkpt lat="44.78587" lon="-0.68086">
        <ele>48.2</ele>
        <time>2022-06-29T16:10:43Z</time>
      </trkpt>
      <trkpt lat="44.78592" lon="-0.6808">
        <ele>47.8</ele>
        <time>2022-06-29T16:10:45Z</time>
      </trkpt>
      <trkpt lat="44.78601" lon="-0.68074">
        <ele>47</ele>
        <time>2022-06-29T16:10:48Z</time>
      </trkpt>
      <trkpt lat="44.78607" lon="-0.68073">
        <ele>46.8</ele>
        <time>2022-06-29T16:10:50Z</time>
      </trkpt>
      <trkpt lat="44.78622" lon="-0.68085">
        <ele>47</ele>
        <time>2022-06-29T16:10:55Z</time>
      </trkpt>
      <trkpt lat="44.78624" lon="-0.6809">
        <ele>46.8</ele>
        <time>2022-06-29T16:10:56Z</time>
      </trkpt>
      <trkpt lat="44.78631" lon="-0.68107">
        <ele>46.4</ele>
        <time>2022-06-29T16:10:59Z</time>
      </trkpt>
      <trkpt lat="44.78643" lon="-0.68109">
        <ele>46.4</ele>
        <time>2022-06-29T16:11:02Z</time>
      </trkpt>
      <trkpt lat="44.78646" lon="-0.68101">
        <ele>46.6</ele>
        <time>2022-06-29T16:11:05Z</time>
      </trkpt>
      <trkpt lat="44.78644" lon="-0.68094">
        <ele>46.6</ele>
        <time>2022-06-29T16:11:07Z</time>
      </trkpt>
      <trkpt lat="44.78641" lon="-0.68079">
        <ele>46.8</ele>
        <time>2022-06-29T16:11:10Z</time>
      </trkpt>
      <trkpt lat="44.78637" lon="-0.68059">
        <ele>47.2</ele>
        <time>2022-06-29T16:11:14Z</time>
      </trkpt>
      <trkpt lat="44.78639" lon="-0.68054">
        <ele>47</ele>
        <time>2022-06-29T16:11:15Z</time>
      </trkpt>
      <trkpt lat="44.78649" lon="-0.68037">
        <ele>46</ele>
        <time>2022-06-29T16:11:18Z</time>
      </trkpt>
      <trkpt lat="44.78653" lon="-0.6803">
        <ele>45.8</ele>
        <time>2022-06-29T16:11:19Z</time>
      </trkpt>
      <trkpt lat="44.78664" lon="-0.6801">
        <ele>45.6</ele>
        <time>2022-06-29T16:11:22Z</time>
      </trkpt>
      <trkpt lat="44.78673" lon="-0.67986">
        <ele>46</ele>
        <time>2022-06-29T16:11:25Z</time>
      </trkpt>
      <trkpt lat="44.78699" lon="-0.67933">
        <ele>46</ele>
        <time>2022-06-29T16:11:32Z</time>
      </trkpt>
      <trkpt lat="44.78731" lon="-0.6787">
        <ele>46</ele>
        <time>2022-06-29T16:11:40Z</time>
      </trkpt>
      <trkpt lat="44.7876" lon="-0.67808">
        <ele>46.2</ele>
        <time>2022-06-29T16:11:48Z</time>
      </trkpt>
      <trkpt lat="44.78781" lon="-0.67764">
        <ele>45.8</ele>
        <time>2022-06-29T16:11:54Z</time>
      </trkpt>
      <trkpt lat="44.78806" lon="-0.6771">
        <ele>46.2</ele>
        <time>2022-06-29T16:12:01Z</time>
      </trkpt>
      <trkpt lat="44.78838" lon="-0.67646">
        <ele>46.2</ele>
        <time>2022-06-29T16:12:09Z</time>
      </trkpt>
      <trkpt lat="44.7887" lon="-0.6758">
        <ele>46</ele>
        <time>2022-06-29T16:12:17Z</time>
      </trkpt>
      <trkpt lat="44.78897" lon="-0.67522">
        <ele>45.8</ele>
        <time>2022-06-29T16:12:24Z</time>
      </trkpt>
      <trkpt lat="44.7893" lon="-0.67455">
        <ele>46.2</ele>
        <time>2022-06-29T16:12:32Z</time>
      </trkpt>
      <trkpt lat="44.78939" lon="-0.67437">
        <ele>45.8</ele>
        <time>2022-06-29T16:12:34Z</time>
      </trkpt>
      <trkpt lat="44.78944" lon="-0.67429">
        <ele>45.8</ele>
        <time>2022-06-29T16:12:35Z</time>
      </trkpt>
      <trkpt lat="44.78967" lon="-0.67401">
        <ele>45.8</ele>
        <time>2022-06-29T16:12:39Z</time>
      </trkpt>
      <trkpt lat="44.79007" lon="-0.67369">
        <ele>45.2</ele>
        <time>2022-06-29T16:12:45Z</time>
      </trkpt>
      <trkpt lat="44.79041" lon="-0.67342">
        <ele>45.4</ele>
        <time>2022-06-29T16:12:51Z</time>
      </trkpt>
      <trkpt lat="44.79056" lon="-0.67328">
        <ele>45.4</ele>
        <time>2022-06-29T16:12:54Z</time>
      </trkpt>
      <trkpt lat="44.79073" lon="-0.67315">
        <ele>45.6</ele>
        <time>2022-06-29T16:12:57Z</time>
      </trkpt>
      <trkpt lat="44.79113" lon="-0.67283">
        <ele>46</ele>
        <time>2022-06-29T16:13:04Z</time>
      </trkpt>
      <trkpt lat="44.79151" lon="-0.67252">
        <ele>46</ele>
        <time>2022-06-29T16:13:11Z</time>
      </trkpt>
      <trkpt lat="44.792" lon="-0.6721">
        <ele>45.8</ele>
        <time>2022-06-29T16:13:20Z</time>
      </trkpt>
      <trkpt lat="44.79237" lon="-0.67181">
        <ele>46</ele>
        <time>2022-06-29T16:13:27Z</time>
      </trkpt>
      <trkpt lat="44.7928" lon="-0.67149">
        <ele>45.8</ele>
        <time>2022-06-29T16:13:36Z</time>
      </trkpt>
      <trkpt lat="44.79311" lon="-0.67115">
        <ele>46</ele>
        <time>2022-06-29T16:13:43Z</time>
      </trkpt>
      <trkpt lat="44.79335" lon="-0.67088">
        <ele>45.6</ele>
        <time>2022-06-29T16:13:49Z</time>
      </trkpt>
      <trkpt lat="44.79343" lon="-0.67085">
        <ele>45.4</ele>
        <time>2022-06-29T16:13:52Z</time>
      </trkpt>
      <trkpt lat="44.7935" lon="-0.67096">
        <ele>45</ele>
        <time>2022-06-29T16:13:55Z</time>
      </trkpt>
      <trkpt lat="44.79353" lon="-0.67107">
        <ele>44.6</ele>
        <time>2022-06-29T16:13:57Z</time>
      </trkpt>
      <trkpt lat="44.79359" lon="-0.67125">
        <ele>44.6</ele>
        <time>2022-06-29T16:14:00Z</time>
      </trkpt>
      <trkpt lat="44.79377" lon="-0.6718">
        <ele>44.2</ele>
        <time>2022-06-29T16:14:09Z</time>
      </trkpt>
      <trkpt lat="44.79395" lon="-0.67228">
        <ele>44.8</ele>
        <time>2022-06-29T16:14:17Z</time>
      </trkpt>
      <trkpt lat="44.79404" lon="-0.67259">
        <ele>44.8</ele>
        <time>2022-06-29T16:14:22Z</time>
      </trkpt>
      <trkpt lat="44.79412" lon="-0.67284">
        <ele>45.2</ele>
        <time>2022-06-29T16:14:26Z</time>
      </trkpt>
      <trkpt lat="44.79432" lon="-0.67333">
        <ele>45.4</ele>
        <time>2022-06-29T16:14:34Z</time>
      </trkpt>
      <trkpt lat="44.79435" lon="-0.67337">
        <ele>45.4</ele>
        <time>2022-06-29T16:14:35Z</time>
      </trkpt>
      <trkpt lat="44.79442" lon="-0.6734">
        <ele>45.6</ele>
        <time>2022-06-29T16:14:37Z</time>
      </trkpt>
      <trkpt lat="44.79452" lon="-0.67333">
        <ele>45.4</ele>
        <time>2022-06-29T16:14:40Z</time>
      </trkpt>
      <trkpt lat="44.79459" lon="-0.67328">
        <ele>45.6</ele>
        <time>2022-06-29T16:14:42Z</time>
      </trkpt>
      <trkpt lat="44.7947" lon="-0.67321">
        <ele>46</ele>
        <time>2022-06-29T16:14:45Z</time>
      </trkpt>
      <trkpt lat="44.79473" lon="-0.6732">
        <ele>46.2</ele>
        <time>2022-06-29T16:14:46Z</time>
      </trkpt>
      <trkpt lat="44.79479" lon="-0.6732">
        <ele>46.2</ele>
        <time>2022-06-29T16:14:48Z</time>
      </trkpt>
      <trkpt lat="44.79481" lon="-0.67324">
        <ele>46.2</ele>
        <time>2022-06-29T16:14:50Z</time>
      </trkpt>
      <trkpt lat="44.79484" lon="-0.67337">
        <ele>45.4</ele>
        <time>2022-06-29T16:14:55Z</time>
      </trkpt>
      <trkpt lat="44.79486" lon="-0.67343">
        <ele>45</ele>
        <time>2022-06-29T16:14:58Z</time>
      </trkpt>
    </trkseg>
  </trk>
</gpx>